[[{"header":{"parameterUnit":"m.s-1","parameterCategory":1,"la1":30.6,"la2":29.2853,"lo1":-89.7004,"lo2":-87.6739,"dy":0.0162,"dx":0.0183,"nx":112,"ny":82,"refTime":"2025-03-16T06:00:00:Z","depth":0,"parameterNumber":2,"parameterNumberName":"U-component_of_WINDS"},"data":[0.0,0.0,0.0,0.0,0.0,0.0,0.0,0.0,0.0,0.0,0.0,0.0,0.0,0.0,0.0,0.0,0.0,0.0,0.0,0.0,0.0,0.0,0.0,0.0,0.0,0.0,0.0,0.0,0.0,0.0,0.0,0.0,0.0,0.0,0.0,0.0,0.0,0.0,0.0,0.0,0.0,0.0,0.0,0.0,0.0,0.0,0.0,0.0,0.0,0.0,0.0,0.0,0.0,0.0,0.0,0.0,0.0,0.0,0.0,0.0,0.0,0.0,0.0,0.0,0.0,0.0,0.0,0.0,0.0,0.0,0.0,0.0,0.0,0.0,0.0,0.0,0.0,0.0,0.0,0.0,0.0,0.0,0.0,0.0,0.0,0.0,0.0,0.0,0.0,0.0,2.2689,2.24,2.2717,2.2739,2.2445,2.2151,2.151,2.0374,0.0,0.0,0.0,0.0,0.0,0.0,0.0,0.0,0.0,0.0,0.0,0.0,0.0,0.0,0.0,0.0,0.0,0.0,0.0,0.0,0.0,0.0,0.0,0.0,0.0,0.0,0.0,0.0,0.0,0.0,0.0,0.0,0.0,0.0,0.0,0.0,0.0,0.0,0.0,0.0,0.0,0.0,0.0,0.0,0.0,0.0,0.0,0.0,0.0,0.0,0.0,0.0,0.0,0.0,0.0,0.0,0.0,0.0,0.0,0.0,0.0,0.0,0.0,0.0,0.0,0.0,0.0,0.0,0.0,0.0,0.0,0.0,0.0,0.0,0.0,0.0,0.0,0.0,0.0,0.0,0.0,0.0,0.0,0.0,0.0,0.0,0.0,0.0,0.0,0.0,0.0,0.0,0.0,0.0,0.0,0.0,0.0,0.0,0.0,0.0,0.0,0.0,0.0,0.0,2.2228,2.2406,2.27,2.2739,2.2445,2.2151,2.159,2.0668,0.0,0.0,0.0,0.0,0.0,0.0,0.0,0.0,0.0,0.0,0.0,0.0,0.0,0.0,0.0,0.0,0.0,0.0,0.0,0.0,0.0,0.0,0.0,0.0,0.0,0.0,0.0,0.0,0.0,0.0,0.0,0.0,0.0,0.0,0.0,0.0,0.0,0.0,0.0,0.0,0.0,0.0,0.0,0.0,0.0,0.0,0.0,0.0,0.0,0.0,0.0,0.0,0.0,0.0,0.0,0.0,0.0,0.0,0.0,0.0,0.0,0.0,0.0,0.0,0.0,0.0,0.0,0.0,0.0,0.0,0.0,0.0,0.0,0.0,0.0,0.0,0.0,0.0,0.0,0.0,0.0,0.0,0.0,0.0,0.0,0.0,0.0,0.0,0.0,0.0,0.0,0.0,0.0,0.0,0.0,0.0,0.0,0.0,0.0,0.0,0.0,0.0,0.0,2.2053,2.2114,2.2394,2.2633,2.2498,2.2205,2.1764,2.1203,2.0481,1.9613,0.0,0.0,0.0,0.0,0.0,0.0,0.0,0.0,0.0,0.0,0.0,0.0,0.0,0.0,0.0,0.0,0.0,0.0,0.0,0.0,0.0,0.0,0.0,0.0,0.0,0.0,0.0,0.0,0.0,0.0,0.0,0.0,0.0,0.0,0.0,0.0,0.0,0.0,0.0,0.0,0.0,0.0,0.0,0.0,0.0,0.0,0.0,0.0,0.0,0.0,0.0,0.0,0.0,0.0,0.0,0.0,0.0,0.0,0.0,0.0,0.0,0.0,0.0,0.0,0.0,0.0,0.0,0.0,0.0,0.0,0.0,0.0,0.0,0.0,0.0,0.0,0.0,0.0,0.0,0.0,0.0,0.0,0.0,0.0,0.0,0.0,0.0,0.0,0.0,0.0,0.0,0.0,0.0,0.0,0.0,0.0,0.0,0.0,0.0,0.0,0.0,0.0,2.1709,2.2143,2.2223,2.2338,2.2271,2.1911,2.1403,2.0828,2.0174,1.9372,0.0,0.0,0.0,0.0,0.0,0.0,0.0,0.0,0.0,0.0,0.0,0.0,0.0,0.0,0.0,0.0,0.0,0.0,0.0,0.0,0.0,0.0,0.0,0.0,0.0,0.0,0.0,0.0,0.0,0.0,0.0,0.0,0.0,0.0,0.0,0.0,0.0,0.0,0.0,0.0,0.0,0.0,0.0,0.0,0.0,0.0,0.0,0.0,0.0,0.0,0.0,0.0,0.0,0.0,0.0,0.0,0.0,0.0,0.0,0.0,0.0,0.0,0.0,0.0,0.0,0.0,0.0,0.0,0.0,0.0,0.0,0.0,0.0,0.0,0.0,0.0,0.0,0.0,0.0,0.0,0.0,0.0,0.0,0.0,0.0,0.0,0.0,0.0,0.0,0.0,0.0,0.0,0.0,0.0,0.0,0.0,0.0,0.0,0.0,0.0,0.0,0.0,2.1424,2.1923,2.1706,2.2084,2.2191,2.163,2.1296,2.0748,1.988,1.9265,0.0,0.0,0.0,0.0,0.0,0.0,0.0,0.0,0.0,0.0,0.0,0.0,0.0,0.0,0.0,0.0,0.0,0.0,0.0,0.0,0.0,0.0,0.0,0.0,0.0,0.0,0.0,0.0,0.0,0.0,0.0,0.0,0.0,0.0,0.0,0.0,0.0,0.0,0.0,0.0,0.0,0.0,0.0,0.0,0.0,0.0,0.0,0.0,0.0,0.0,0.0,0.0,0.0,0.0,0.0,0.0,0.0,0.0,0.0,0.0,0.0,0.0,0.0,0.0,0.0,0.0,0.0,0.0,0.0,0.0,0.0,0.0,0.0,0.0,0.0,0.0,0.0,0.0,0.0,0.0,0.0,0.0,0.0,0.0,0.0,0.0,0.0,0.0,0.0,0.0,0.0,0.0,0.0,0.0,0.0,0.0,0.0,0.0,0.0,0.0,0.0,0.0,2.1186,2.1746,2.1804,2.2017,2.1991,2.159,2.0949,2.0347,1.9826,0.0,0.0,0.0,0.0,0.0,0.0,0.0,0.0,0.0,0.0,0.0,0.0,0.0,0.0,0.0,0.0,0.0,0.0,0.0,0.0,0.0,0.0,0.0,0.0,0.0,0.0,0.0,0.0,0.0,0.0,0.0,0.0,0.0,0.0,0.0,0.0,0.0,0.0,0.0,0.0,0.0,0.0,0.0,0.0,0.0,0.0,0.0,0.0,0.0,0.0,0.0,0.0,0.0,0.0,0.0,0.0,0.0,0.0,0.0,0.0,0.0,0.0,0.0,0.0,0.0,0.0,0.0,0.0,0.0,0.0,0.0,0.0,0.0,0.0,0.0,0.0,0.0,0.0,0.0,0.0,0.0,0.0,0.0,0.0,0.0,0.0,0.0,0.0,0.0,0.0,0.0,0.0,0.0,0.0,0.0,0.0,0.0,0.0,0.0,0.0,0.0,0.0,1.9987,2.0949,2.167,2.1951,2.1991,2.1871,2.1577,2.0624,1.9947,1.9561,0.0,0.0,0.0,0.0,0.0,0.0,0.0,0.0,0.0,0.0,0.0,0.0,0.0,0.0,0.0,0.0,0.0,0.0,0.0,0.0,0.0,0.0,0.0,0.0,0.0,0.0,0.0,0.0,0.0,0.0,0.0,0.0,0.0,0.0,0.0,0.0,0.0,0.0,0.0,0.0,0.0,0.0,0.0,0.0,0.0,0.0,0.0,0.0,0.0,0.0,0.0,0.0,0.0,0.0,0.0,0.0,0.0,0.0,0.0,0.0,0.0,0.0,0.0,0.0,0.0,0.0,0.0,0.0,0.0,0.0,0.0,0.0,0.0,0.0,0.0,0.0,0.0,0.0,0.0,0.0,0.0,0.0,0.0,0.0,0.0,0.0,0.0,0.0,0.0,0.0,0.0,0.0,0.0,0.0,0.0,0.0,0.0,0.0,0.0,0.0,0.0,0.0,1.9733,2.0828,2.167,2.1964,2.1991,2.1871,2.1577,2.0513,1.952,0.0,0.0,0.0,0.0,0.0,0.0,0.0,0.0,0.0,0.0,0.0,0.0,0.0,0.0,0.0,0.0,0.0,0.0,0.0,0.0,0.0,0.0,0.0,0.0,0.0,0.0,0.0,0.0,0.0,0.0,0.0,0.0,0.0,0.0,0.0,0.0,0.0,0.0,0.0,0.0,0.0,0.0,0.0,0.0,0.0,0.0,0.0,0.0,0.0,0.0,0.0,0.0,0.0,0.0,0.0,0.0,0.0,0.0,0.0,0.0,0.0,0.0,0.0,0.0,0.0,0.0,0.0,0.0,0.0,0.0,0.0,0.0,0.0,0.0,0.0,0.0,0.0,0.0,0.0,0.0,0.0,0.0,0.0,0.0,0.0,0.0,0.0,0.0,0.0,0.0,0.0,0.0,0.0,0.0,0.0,0.0,0.0,0.0,0.0,0.0,0.0,0.0,0.0,2.0294,2.1256,2.1964,2.2258,2.2298,2.1952,2.1201,2.0307,1.9216,1.8102,0.0,0.0,0.0,0.0,0.0,0.0,0.0,0.0,0.0,0.0,0.0,0.0,0.0,0.0,0.0,0.0,0.0,0.0,0.0,0.0,0.0,0.0,0.0,0.0,0.0,0.0,0.0,0.0,0.0,0.0,0.0,0.0,0.0,0.0,0.0,0.0,0.0,0.0,0.0,0.0,0.0,0.0,0.0,0.0,0.0,0.0,0.0,0.0,0.0,0.0,0.0,0.0,0.0,0.0,0.0,0.0,0.0,0.0,0.0,0.0,0.0,0.0,0.0,0.0,0.0,0.0,0.0,0.0,0.0,0.0,0.0,0.0,0.0,0.0,0.0,0.0,0.0,0.0,0.0,0.0,0.0,0.0,0.0,0.0,0.0,0.0,0.0,0.0,0.0,0.0,0.0,0.0,0.0,0.0,0.0,0.0,0.0,0.0,0.0,0.0,0.0,0.0,1.9762,2.0721,2.1486,2.1739,2.1539,2.1347,2.0737,1.9708,1.8481,1.7197,0.0,0.0,0.0,0.0,0.0,0.0,0.0,0.0,0.0,0.0,0.0,0.0,0.0,0.0,0.0,0.0,0.0,0.0,0.0,0.0,0.0,0.0,0.0,0.0,0.0,0.0,0.0,0.0,0.0,0.0,0.0,0.0,0.0,0.0,0.0,0.0,0.0,0.0,0.0,0.0,0.0,0.0,0.0,0.0,0.0,0.0,0.0,0.0,0.0,0.0,0.0,0.0,0.0,0.0,0.0,0.0,0.0,0.0,0.0,0.0,0.0,0.0,0.0,0.0,0.0,0.0,0.0,0.0,0.0,0.0,0.0,0.0,0.0,0.0,0.0,0.0,0.0,0.0,0.0,0.0,0.0,0.0,0.0,0.0,0.0,0.0,0.0,0.0,0.0,0.0,0.0,0.0,0.0,0.0,0.0,0.0,0.0,0.0,0.0,0.0,0.0,0.0,1.8606,1.9616,2.0343,2.0605,2.0311,2.0155,1.9995,1.8754,1.7494,1.6376,0.0,0.0,0.0,0.0,0.0,0.0,0.0,0.0,0.0,0.0,0.0,0.0,0.0,0.0,0.0,0.0,0.0,0.0,0.0,0.0,0.0,0.0,0.0,0.0,0.0,0.0,0.0,0.0,0.0,0.0,0.0,0.0,0.0,0.0,0.0,0.0,0.0,0.0,0.0,0.0,0.0,0.0,0.0,0.0,0.0,0.0,0.0,0.0,0.0,0.0,0.0,0.0,0.0,0.0,0.0,0.0,0.0,0.0,0.0,0.0,3.0547,0.0,0.0,0.0,0.0,0.0,0.0,0.0,0.0,0.0,0.0,0.0,0.0,0.0,0.0,0.0,0.0,0.0,0.0,0.0,0.0,0.0,0.0,0.0,0.0,0.0,0.0,0.0,0.0,0.0,0.0,0.0,0.0,0.0,0.0,0.0,0.0,0.0,0.0,0.0,0.0,0.0,1.8084,1.8806,1.924,1.9762,1.9623,1.9381,1.849,1.7705,1.6312,1.45,1.2858,0.0,0.0,0.0,0.0,0.0,0.0,0.0,0.0,0.0,0.0,0.0,0.0,0.0,0.0,0.0,0.0,0.0,0.0,0.0,0.0,0.0,0.0,0.0,0.0,0.0,0.0,0.0,0.0,0.0,0.0,0.0,0.0,0.0,0.0,0.0,0.0,0.0,0.0,0.0,0.0,0.0,0.0,0.0,0.0,0.0,0.0,0.0,0.0,0.0,0.0,0.0,0.0,0.0,0.0,0.0,0.0,0.0,0.0,0.0,0.0,3.1077,0.0,0.0,0.0,0.0,0.0,0.0,0.0,0.0,0.0,0.0,0.0,0.0,0.0,0.0,0.0,0.0,0.0,0.0,0.0,0.0,0.0,0.0,0.0,0.0,0.0,0.0,0.0,0.0,0.0,0.0,0.0,0.0,0.0,0.0,0.0,0.0,0.0,0.0,0.0,0.0,1.6265,1.6855,1.7192,1.7378,1.7278,1.7097,1.6568,1.5981,1.4985,1.3474,1.22,0.0,0.0,0.0,0.0,0.0,0.0,0.0,0.0,0.0,0.0,0.0,0.0,0.0,0.0,0.0,0.0,0.0,0.0,0.0,0.0,0.0,0.0,0.0,0.0,0.0,0.0,0.0,0.0,0.0,0.0,0.0,0.0,0.0,0.0,0.0,0.0,0.0,0.0,0.0,0.0,0.0,0.0,0.0,0.0,0.0,0.0,0.0,0.0,0.0,0.0,0.0,0.0,0.0,3.5278,3.4793,3.4439,3.367,3.3013,3.2385,3.123,3.0728,3.092,3.0847,0.0,0.0,0.0,0.0,0.0,0.0,0.0,0.0,0.0,0.0,0.0,0.0,0.0,0.0,0.0,0.0,0.0,0.0,0.0,0.0,0.0,0.0,2.1888,2.171,2.1136,2.0296,1.9299,0.0,0.0,0.0,0.0,0.0,0.0,0.0,0.0,0.0,0.0,0.0,1.4317,1.4769,1.5018,1.4893,1.4794,1.4802,1.4837,1.4215,1.3612,1.2728,1.1667,1.0674,0.0,0.0,0.0,0.0,0.0,0.0,0.0,0.0,0.0,0.0,0.0,0.0,0.0,0.0,0.0,0.0,0.0,0.0,0.0,0.0,0.0,0.0,0.0,0.0,0.0,0.0,0.0,0.0,0.0,0.0,0.0,0.0,3.7783,3.8205,0.0,0.0,0.0,0.0,0.0,0.0,0.0,0.0,0.0,0.0,0.0,0.0,0.0,3.543,3.584,3.584,3.6074,3.6504,3.6176,3.5972,3.588,3.4752,3.3724,3.2993,3.1726,0.0,3.1726,3.1255,0.0,0.0,0.0,0.0,0.0,0.0,0.0,0.0,0.0,0.0,0.0,0.0,0.0,0.0,0.0,0.0,0.0,0.0,0.0,0.0,0.0,0.0,2.0504,2.0684,2.0062,1.9125,1.837,1.7929,1.715,1.5803,1.5052,1.4414,0.0,0.0,0.0,0.0,0.0,0.0,1.3362,1.3528,1.3841,1.4211,1.426,1.418,1.3901,1.3617,1.3059,1.2153,1.1416,1.0672,1.0101,0.953,0.0,0.0,0.0,0.0,0.0,0.0,0.0,0.0,0.0,0.0,0.0,0.0,0.0,0.0,0.0,0.0,0.0,0.0,0.0,0.0,0.0,0.0,0.0,0.0,0.0,0.0,0.0,0.0,0.0,3.6937,3.7371,3.7667,3.7332,3.7154,0.0,0.0,0.0,0.0,0.0,0.0,0.0,0.0,0.0,3.6445,3.6699,3.7031,3.7461,3.7461,3.7676,3.8086,3.772,3.744,3.7241,3.6264,3.5227,3.3982,3.2726,3.1852,3.1313,3.0341,2.9288,2.8251,0.0,0.0,0.0,0.0,2.6118,2.6005,2.5513,2.5206,2.4855,2.4466,0.0,0.0,0.0,0.0,0.0,0.0,0.0,1.9475,1.9723,1.984,1.9889,1.9724,1.9215,1.8343,1.7248,1.6609,1.5903,1.4824,1.3984,1.3306,1.2495,1.2156,0.0,0.0,0.0,1.213,1.2381,1.2612,1.2701,1.2949,1.2986,1.2875,1.2791,1.2676,1.2379,1.1935,1.1511,1.1035,1.0683,1.0168,0.9741,0.0,0.0,0.0,0.0,0.0,0.0,0.0,0.0,0.0,0.0,0.0,0.0,0.0,0.0,0.0,0.0,0.0,0.0,0.0,0.0,0.0,0.0,0.0,0.0,0.0,0.0,0.0,0.0,3.709,3.7363,3.7891,3.748,3.7324,0.0,0.0,0.0,0.0,0.0,0.0,3.7148,3.7266,3.7519,3.7949,3.8379,3.8809,3.9238,3.9238,3.9394,3.9707,3.9372,3.9128,3.8663,3.7819,3.6727,3.5443,3.3839,3.2492,3.1103,2.9759,2.8311,2.7184,2.7184,2.6638,2.607,2.5933,2.5795,2.5658,2.5397,2.5259,2.4829,2.4316,2.3175,2.1844,2.0622,0.0,0.0,0.0,0.0,1.7992,1.8302,1.8432,1.8549,1.8279,1.793,1.7369,1.599,1.5276,1.4542,1.3901,1.3105,1.2442,1.1837,1.1657,0.0,1.121,1.1501,1.1725,1.1586,1.191,1.2081,1.2088,1.2121,1.2135,1.2169,1.2142,1.2074,1.1959,1.1633,1.1396,1.1287,1.0744,1.0304,0.9998,0.0,0.0,0.0,0.0,0.0,0.0,0.0,0.0,0.0,0.0,0.0,0.0,0.0,0.0,0.0,0.0,0.0,0.0,0.0,0.0,0.0,0.0,0.0,0.0,0.0,0.0,0.0,0.0,0.0,3.9668,3.9004,0.0,0.0,0.0,0.0,3.8476,3.8496,3.8476,3.8476,3.8867,3.9297,3.9746,4.0176,4.0605,4.1035,4.1035,4.1055,4.1074,4.1151,4.087,4.0273,3.9538,3.8412,3.6924,3.4735,3.2861,3.1292,3.0319,2.9035,2.7682,2.7682,2.7289,2.6721,2.643,2.6285,2.6139,2.5423,2.5144,2.4943,2.3931,2.1988,1.9464,1.7205,1.624,0.0,0.0,1.4964,1.5272,1.5281,1.5718,1.6002,1.6011,1.5859,1.5489,1.4859,1.4223,1.3416,1.3154,1.2873,1.2384,1.1387,0.0,1.1073,1.0816,1.1077,1.1331,1.1362,1.164,1.1938,1.2244,1.2277,1.2332,1.2467,1.2352,1.2277,1.2271,1.185,1.1606,1.1599,1.1158,1.0772,1.0466,1.0161,0.0,0.0,0.0,0.0,0.0,0.0,0.0,0.0,0.0,0.0,0.0,0.0,0.0,0.0,0.0,0.0,0.0,0.0,0.0,0.0,0.0,0.0,0.0,0.0,0.0,0.0,0.0,0.0,4.0156,3.9785,0.0,4.041,3.9941,3.9785,4.0215,4.0254,4.0254,4.0254,4.0644,4.0957,4.1113,4.1523,4.1816,4.1973,4.1973,4.1973,4.1973,4.197,4.1728,4.1265,4.0997,3.9868,3.8373,3.6677,3.4561,3.2371,3.1183,2.9414,2.7409,2.7217,2.6887,2.6529,2.6375,2.6375,2.6348,2.5851,2.5644,2.5398,2.3242,2.0751,1.8346,1.6873,1.5585,1.4804,1.4446,1.4612,1.4811,1.4811,1.4985,1.5167,1.5007,1.4911,1.4637,1.3808,1.3494,1.3094,1.2621,1.2344,1.1959,1.1475,1.144,1.144,1.1301,1.1463,1.1647,1.1803,1.1999,1.2203,1.2406,1.2427,1.2293,1.2185,1.2146,1.1926,1.1536,1.1301,1.1123,1.1034,1.0709,1.0266,1.0111,0.9967,0.9666,0.0,0.0,0.0,0.0,0.0,0.0,0.0,0.0,0.0,0.0,0.0,0.0,0.0,0.0,0.0,0.0,0.0,0.0,0.0,0.0,0.0,0.0,0.0,0.0,0.0,0.0,3.9941,4.123,4.1016,4.1035,4.1738,4.1426,4.1289,4.1582,4.1601,4.1601,4.1601,4.1992,4.2226,4.2226,4.2637,4.2851,4.2851,4.2851,4.2851,4.2851,4.2689,4.2547,4.2241,4.1669,4.062,3.9281,3.7573,3.5333,3.3081,3.1541,2.9843,2.7829,2.7428,2.7028,2.668,2.668,2.668,2.664,2.6346,2.6029,2.5388,2.2877,2.0407,1.8192,1.6608,1.5244,1.408,1.3725,1.3793,1.4037,1.4037,1.4114,1.4045,1.3883,1.3729,1.3575,1.2965,1.2965,1.2783,1.2379,1.2155,1.1938,1.1796,1.1769,1.1769,1.1769,1.1891,1.2026,1.2128,1.2271,1.24,1.2488,1.2347,1.2192,1.1727,1.1374,1.0998,1.0456,1.0295,1.0014,0.9928,0.9579,0.9513,0.9302,0.9504,0.9311,0.876,0.0,0.0,0.0,0.0,0.0,0.0,0.0,0.0,0.0,0.0,0.0,0.0,0.0,0.0,0.0,0.0,0.0,0.0,0.0,0.0,0.0,0.0,0.0,3.9863,4.0664,4.168,4.2949,4.2734,4.2656,4.3086,4.2754,4.25,4.248,4.248,4.248,4.2461,4.2871,4.3105,4.3105,4.3496,4.3711,4.3711,4.3711,4.3711,4.3711,4.3214,4.3068,4.3068,4.1546,4.0536,3.9519,3.7275,3.5177,3.3219,3.1521,3.0175,2.8991,2.839,2.7802,2.7295,2.7295,2.7281,2.7241,2.6947,2.6174,2.492,2.2882,2.0895,1.8789,1.6094,1.4782,1.3796,1.2866,1.2515,1.2515,1.2515,1.2515,1.2508,1.2508,1.2508,1.2501,1.2501,1.2501,1.2501,1.2501,1.2393,1.225,1.2101,1.2074,1.2074,1.2074,1.2203,0.0,1.2298,1.242,1.2501,1.2501,1.2037,1.1727,1.1262,1.0366,0.9682,0.9213,0.8711,0.8298,0.8298,0.8193,0.8093,0.8414,0.866,0.8447,0.7959,0.0,0.0,0.0,0.0,0.0,0.0,0.0,0.0,0.0,0.0,0.0,0.0,0.0,0.0,0.0,0.0,0.0,0.0,0.0,0.0,0.0,3.9785,4.0566,4.0371,4.1348,4.2441,4.3418,4.373,4.4023,4.4453,4.4375,4.418,4.3887,4.3867,4.3711,4.3379,4.3457,4.3535,4.3535,4.3633,4.3711,4.3711,4.338,4.3214,4.3234,4.2383,4.1863,4.1509,4.0837,3.9653,3.8118,3.7086,3.5177,3.2896,3.2102,3.0845,2.9299,2.8711,2.8243,2.7896,2.7896,2.7762,2.7562,2.7482,2.6307,2.4765,2.3537,2.1435,1.8876,1.7075,1.5696,1.4472,1.3627,1.3296,1.3303,1.2992,1.2752,1.2664,1.2664,1.2583,1.2501,1.2501,1.2501,1.2501,1.2501,1.2467,1.2427,1.2386,1.2379,1.2379,1.2379,1.242,1.244,1.244,1.2172,1.2037,1.2037,1.1417,1.0641,1.0019,0.9136,0.8274,0.7444,0.6884,0.6643,0.6582,0.641,0.6649,0.7274,0.7172,0.736,0.0,0.0,0.0,0.0,0.0,0.0,0.0,0.0,0.0,0.0,0.0,0.0,0.0,0.0,0.0,0.0,0.0,0.0,0.0,0.0,0.0,0.0,4.1113,4.207,4.2363,4.2891,4.3633,4.4668,4.5039,4.5293,4.5527,4.5566,4.5312,4.4707,4.4668,4.4551,4.4277,4.3915,4.3651,4.3651,4.3125,4.2863,4.2863,4.2383,4.2049,4.1863,4.1024,4.0331,3.9805,3.8785,3.7586,3.6378,3.5526,3.3952,3.2026,3.1671,3.0615,0.0,0.0,0.0,0.0,0.0,2.803,2.7869,2.7749,2.6822,2.5691,2.4287,2.2542,2.033,1.8229,1.6816,1.5593,1.4244,1.3749,1.3589,1.3116,1.2895,1.2827,1.2827,1.2759,1.2691,1.2691,1.2691,1.2678,1.261,1.2596,0.0,1.2515,1.2347,1.2192,1.2192,1.1882,1.1727,1.1727,1.1417,1.1107,1.0946,1.0014,0.9236,0.8457,0.7594,0.0,0.0,0.0,0.4869,0.4808,0.4802,0.0,0.0,0.0,0.0,0.0,0.0,0.0,0.0,0.8329,0.8641,0.0,0.0,0.0,0.0,0.0,0.0,0.0,0.0,0.0,0.0,0.0,0.0,0.0,0.0,0.0,0.0,4.2539,4.3808,4.5058,4.4961,4.5156,4.625,4.6426,4.6445,4.6445,4.6445,4.6094,4.5063,4.5005,4.4946,4.4849,0.0,0.0,0.0,0.0,4.1565,4.1528,4.1024,4.0518,3.9992,3.9143,3.8289,3.7774,3.6047,3.5003,3.4478,3.3249,3.2026,3.1151,3.0794,3.0096,2.9459,2.9152,2.8858,2.8577,2.8297,2.8177,2.811,2.7843,0.0,0.0,2.5124,2.3937,2.2656,1.9644,1.8219,1.7038,1.496,1.4121,1.3639,1.3171,1.2996,1.2983,1.2983,1.2976,1.2963,1.2963,1.2963,1.2922,1.2786,1.2759,1.2712,1.2576,1.2212,1.1882,1.1882,1.1107,1.0486,1.0486,1.0019,0.9547,0.9231,0.0,0.0,0.6896,0.6052,0.5373,0.4707,0.375,0.3261,0.3225,0.322,0.3203,0.3311,0.3882,0.4261,0.4442,0.5474,0.6211,0.6489,0.7579,0.7942,0.0,0.0,0.0,0.0,0.0,0.0,0.0,0.0,0.0,0.0,0.0,0.0,0.0,0.0,0.0,4.3066,4.4316,4.5508,4.6426,4.6423,4.6381,4.6816,4.7109,4.7324,4.7324,4.7324,4.6795,4.5589,4.5532,4.4875,4.3326,4.3214,4.2493,4.1476,4.1196,4.0637,3.9974,3.9143,3.8802,3.8631,0.0,0.0,3.5526,3.4303,3.3425,3.2543,3.2189,3.1671,3.0794,3.0616,3.0096,2.9459,2.9152,2.8858,2.8604,2.8537,2.8364,2.8136,2.8083,2.7742,2.7044,2.6249,2.5071,2.3702,2.1655,2.0181,0.0,1.6416,1.5436,1.4788,1.3645,1.322,1.3132,1.3132,1.3044,1.2963,1.2963,1.2963,1.2949,1.2922,1.2915,1.2908,1.2881,1.2351,1.1727,1.1417,1.0641,1.0019,0.9698,0.8608,0.7985,0.7825,0.7365,0.6744,0.6121,0.5435,0.447,0.3076,0.2127,0.1658,0.1653,0.1653,0.1652,0.1648,0.1797,0.2539,0.3714,0.3873,0.4774,0.6117,0.659,0.6803,0.0,0.0,0.0,0.0,0.0,0.0,0.0,0.0,0.0,0.0,0.0,3.8755,3.9234,0.0,4.2256,4.3027,4.4197,4.531,4.6303,4.6239,4.6587,4.7076,4.703,4.6801,4.6801,4.6599,4.5989,4.5187,4.4763,4.4108,4.3169,4.2044,4.1036,4.0491,3.9217,3.8214,3.7855,3.6806,3.6031,3.5858,3.4638,3.3777,3.3425,3.2366,3.1671,3.1329,3.0973,3.0616,3.0272,3.0272,2.9998,2.9686,2.9539,2.9205,2.8818,2.8818,2.8631,2.8377,2.8377,2.8008,2.7574,2.6929,2.6185,2.4931,2.3138,2.1445,1.9617,1.7147,1.5766,1.4721,1.3728,1.3342,1.3288,1.3288,1.3234,1.318,1.318,1.318,1.3159,1.3085,1.3064,1.3044,1.2976,1.2357,1.1622,1.0826,0.9718,0.8767,0.8454,0.7501,0.6543,0.6228,0.6072,0.5422,0.428,0.3897,0.3086,0.1388,0.0915,0.0606,0.0606,0.0606,0.0606,0.0606,0.0606,0.0908,0.1816,0.2132,0.2759,0.3546,0.4261,0.4993,0.0,0.0,0.0,0.0,0.0,0.0,0.0,0.0,3.6833,3.7153,3.8073,3.9102,3.9511,4.0833,4.2116,4.2869,4.3888,4.4888,4.5616,4.5517,4.575,4.6633,4.615,4.5927,4.5927,4.5352,4.4815,4.4231,4.3467,4.2833,4.2379,4.0446,3.9334,3.8891,3.69,3.566,3.5519,3.4357,3.3485,3.3073,3.2543,3.2026,3.1671,3.0794,3.0437,3.0437,3.0093,2.9913,2.9913,2.9913,2.9913,2.9913,2.9913,2.9633,2.9205,2.9152,2.8938,2.8684,2.8631,2.8444,2.819,2.7561,2.6929,2.6171,2.427,2.219,2.0166,1.7802,1.602,1.4592,1.3735,1.3403,1.3403,1.3403,1.3403,1.3403,1.3403,1.3403,1.3363,1.3241,1.3214,1.318,1.3064,1.2398,1.1565,1.0539,0.8756,0.7629,0.7317,0.6181,0.5367,0.472,0.4395,0.3728,0.2088,0.205,0.1403,0.0156,-0.0,-0.0,-0.0,-0.0,-0.0,-0.0,-0.0,-0.0,-0.0,0.0621,0.1097,0.1266,0.2083,0.32,3.0426,3.0763,3.1437,3.1945,3.237,3.2875,0.0,0.0,3.4173,3.5685,3.6467,3.7371,3.9304,4.0652,4.1896,4.3227,4.4158,4.4849,4.5293,4.4567,4.4039,4.3852,4.4649,4.5209,4.5209,4.4643,4.3898,4.257,4.219,4.09,3.8723,3.8136,3.7049,3.5471,3.5212,3.4516,3.3575,3.2994,3.2477,3.2203,3.1315,3.0794,3.0794,3.0272,2.9913,2.9913,2.9913,2.9913,2.9913,2.9913,2.9913,2.9913,2.9913,2.9873,2.978,2.9526,2.9245,2.8951,2.8698,2.8591,2.8511,2.819,2.7588,2.671,2.5322,2.3435,2.1181,1.8329,1.6609,1.5226,1.3763,1.3403,1.3403,1.3403,1.3403,1.3403,1.3403,1.3403,1.3397,1.3376,1.3376,1.337,1.3356,1.2853,1.2105,1.0567,0.8917,0.7305,0.6172,0.4877,0.3905,0.3578,0.2441,0.1301,0.0325,0.0324,0.0162,-0.0,-0.0,-0.0,-0.0,-0.0,-0.0,-0.0,-0.0,-0.0,-0.0,0.0162,0.0486,0.1297,0.2133,0.2623,3.0139,3.0667,3.1495,0.0,3.2352,3.3073,3.3206,3.3782,3.4542,3.5194,3.6033,3.6819,3.7711,3.8989,3.9997,0.0,4.1342,4.1847,4.2009,4.1448,4.1072,4.1323,4.1212,4.1448,4.2426,4.1624,4.0979,4.0254,3.934,3.8418,3.7141,3.6239,3.5345,3.4289,3.3543,3.2945,3.2507,3.1775,3.1441,3.1317,3.0967,3.0785,3.0785,3.0429,3.0074,2.9913,2.9913,2.9913,2.9913,2.9913,2.9913,2.9913,2.9913,2.9913,2.99,2.978,2.9553,2.9259,2.8965,2.8751,2.8564,2.8243,2.7551,2.6618,2.5591,2.3529,2.0935,1.8657,1.6697,1.5093,1.4013,1.3593,1.3532,1.3532,1.3464,1.3403,1.3403,1.3403,1.3403,1.3403,1.3471,1.3532,1.3532,1.3263,1.2571,1.1706,0.9963,0.8107,0.6291,0.4638,0.3481,0.2986,0.2474,0.1971,0.1643,0.1633,0.1627,0.1627,0.1627,0.1627,0.1627,0.1627,0.1627,0.1627,0.1627,0.1627,0.1627,0.0976,0.0979,0.1314,0.1652,0.1823,3.065,3.1197,0.0,3.1713,3.2617,3.3486,3.3301,3.397,3.4596,3.4889,3.5652,3.621,3.6677,3.7546,3.8134,3.8334,3.88,3.9366,3.9366,3.889,3.865,3.8963,3.8049,3.787,3.894,3.8745,3.8729,3.8534,3.7447,3.658,3.5956,3.4881,3.3993,3.3492,3.2514,3.1947,3.1783,3.1208,3.0875,3.0795,3.0795,3.0795,3.0782,3.0581,3.0314,3.0034,3.0034,2.9993,2.9913,2.9913,2.9913,2.9913,2.9913,2.9913,2.9913,2.9913,2.978,2.9566,2.9259,2.8965,2.8671,2.8377,2.7709,2.6783,2.575,2.3562,2.1009,1.8894,1.691,1.5272,1.4022,1.3763,1.3688,1.3688,1.36,1.3519,1.3519,1.3519,1.3519,1.3519,1.3614,1.3688,1.3688,1.3429,1.312,1.2671,1.139,0.9622,0.7223,0.5206,0.3864,0.3532,0.3675,0.3823,0.3823,0.3795,0.3775,0.3775,0.3775,0.3775,0.3775,0.3775,0.3775,0.3775,0.3775,0.3775,0.3775,0.3119,0.2637,0.2492,0.2168,0.2181,3.2369,0.0,3.2817,3.2218,3.2586,3.3256,3.2687,3.3143,3.3654,3.4569,3.4651,3.5152,3.6447,3.6965,3.74,3.8017,3.828,3.8485,3.8485,3.7808,3.7314,3.6997,3.606,3.5533,3.5238,3.7007,3.8007,3.7401,3.7087,3.6309,3.4731,3.4241,3.3547,3.2283,3.2078,3.1797,3.1236,3.1209,3.1076,3.0795,3.0795,3.0795,3.0795,3.0782,3.0621,3.0341,3.0341,3.0181,2.9913,2.9913,2.9913,2.9913,2.9913,2.9913,2.9913,2.9913,2.9913,2.986,2.9566,2.9272,2.8978,2.8684,2.805,2.7135,2.575,2.4029,2.2073,1.9112,1.7346,1.576,1.4222,1.3838,1.3831,1.3831,1.3831,1.3824,1.3824,1.3824,1.3824,1.3824,1.3831,1.3831,1.3831,1.3838,1.3666,1.3146,1.3146,1.2015,0.9086,0.6717,0.5376,0.5379,0.6056,0.6563,0.6563,0.6563,0.656,0.656,0.656,0.656,0.656,0.656,0.656,0.656,0.656,0.656,0.656,0.656,0.6056,0.5214,0.442,0.4101,3.4517,0.0,3.4647,3.4434,3.4351,3.4363,3.3973,3.3923,3.4042,3.4353,3.438,3.4612,3.5116,3.5212,3.5349,3.5762,3.5872,3.6218,3.6202,3.5803,3.5459,3.5554,3.5083,3.4723,3.5025,3.5607,0.0,3.5805,3.5705,3.5168,3.417,3.3863,3.3475,3.2398,3.2211,3.2011,3.181,3.161,3.1476,3.137,3.137,3.1276,3.1076,3.1076,3.0929,3.0635,3.0448,3.0301,3.0194,2.9993,2.9913,2.9913,2.9913,2.9913,2.9913,2.9913,2.9913,2.9873,2.9579,2.9419,2.9259,2.8406,2.7839,2.7025,2.5127,2.3181,2.1262,1.8766,1.7015,1.5608,1.4507,1.4068,1.3994,1.3994,1.3912,1.3838,1.3838,1.3838,1.3838,1.3838,1.3926,1.3994,1.3994,1.4075,1.4109,1.3834,1.2872,1.1744,1.0465,0.9371,0.8484,0.8146,0.8433,0.8566,0.8566,0.8566,0.8566,0.8566,0.8566,0.8566,0.8566,0.8566,0.8566,0.8566,0.8566,0.8566,0.8566,0.7893,0.7417,0.73,0.6306,0.5998,3.7498,3.7439,3.7585,3.7115,3.6809,3.6364,3.5753,3.524,3.481,3.4703,3.4595,3.4322,3.4322,3.4242,3.4295,3.4696,3.4857,3.5017,3.5311,3.4937,3.4837,3.5044,3.4626,3.4177,3.4578,0.0,0.0,3.521,3.5408,3.5125,3.4336,3.4322,3.3789,3.2706,3.2519,3.2318,3.2104,3.1917,3.177,3.1664,3.1664,3.157,3.1383,3.1383,3.1223,3.0929,3.0635,3.0461,3.0341,3.0034,2.9913,2.9913,2.9913,2.9913,2.9913,2.9913,2.9913,2.9887,2.97,2.9566,2.9419,2.8509,2.7715,2.682,2.4753,2.2902,2.1098,1.8497,1.6928,1.5704,1.4653,1.4224,1.415,1.415,1.4075,1.4007,1.4007,1.4007,1.4007,1.4007,1.4082,1.415,1.415,1.4238,1.4265,1.417,1.3371,1.2576,1.1962,1.1362,1.08,1.046,1.0228,1.0013,1.0013,1.0013,1.0013,1.0013,1.0013,1.0013,1.0013,1.0013,1.0013,1.0013,1.0013,1.0013,1.0013,0.9502,0.9196,0.9265,0.8612,0.8313,4.1388,4.1493,4.129,4.0282,3.9381,3.8866,3.7664,3.6857,3.5924,3.5636,3.4909,3.4269,0.0,0.0,3.4028,3.4629,3.4977,3.5284,3.5591,3.5391,3.5217,0.0,0.0,0.0,0.0,0.0,0.0,3.5635,0.0,3.6004,3.5011,3.5011,3.4276,3.3013,3.2986,3.2706,3.2131,3.2091,3.1944,3.1664,3.1664,3.1664,3.1664,3.1664,3.1517,3.1236,3.0929,3.0635,3.0354,3.0047,2.9913,2.9913,2.9913,2.9913,2.9913,2.9913,2.9913,2.9913,2.9913,2.974,2.9499,2.8942,2.8024,2.687,2.4951,2.3195,2.1272,1.8497,1.7104,1.6049,1.4653,1.4299,1.4299,1.4299,1.4299,1.4299,1.4299,1.4299,1.4299,1.4299,1.4299,1.4299,1.4299,1.4299,1.4299,1.4299,1.4299,1.4021,1.3382,1.2478,1.1956,1.1956,1.1612,1.1262,1.1262,1.1262,1.1262,1.1262,1.1262,1.1262,1.1262,1.1262,1.1262,1.1262,1.1262,1.1262,1.1262,1.1262,1.1268,1.1274,1.0862,1.0739,4.4068,4.4008,4.3678,4.3726,4.2524,4.1138,4.0164,3.8663,3.7237,3.6117,3.5019,3.3976,0.0,0.0,0.0,3.4015,3.4536,0.0,3.5551,3.5565,0.0,3.5217,0.0,3.4456,3.4229,3.4341,0.0,0.0,3.535,3.521,3.4413,3.4413,3.3973,3.3307,3.3093,3.2799,3.2438,3.1998,3.1744,3.1664,3.1664,3.1664,3.1664,3.1664,3.1623,3.153,3.1009,3.0755,3.0648,3.0127,2.9913,2.9913,2.9913,2.9913,2.9913,2.9913,2.9913,2.9913,2.9913,2.9873,2.9588,2.8665,2.7637,2.6598,2.3775,2.1803,1.9873,1.7447,1.6049,1.5168,1.4476,1.4299,1.4299,1.4299,1.4299,1.4299,1.4299,1.4299,1.4299,1.4299,1.4299,1.4299,1.4299,1.4299,1.4299,1.4299,1.4299,1.4272,1.4015,1.3733,1.3493,1.3493,1.3217,1.3152,1.3152,1.3152,1.3152,1.3152,1.3152,1.3152,1.3152,1.3152,1.3152,1.3152,1.3152,1.3152,1.3152,1.2809,1.2693,1.2792,1.2301,1.2196,4.6633,4.6592,4.6452,4.6521,4.5127,4.3523,4.236,4.0279,3.8087,3.6623,3.4927,3.3415,3.2982,3.2679,0.0,0.0,0.0,0.0,3.5738,3.5939,3.5952,0.0,3.5284,0.0,3.4723,3.4528,3.449,0.0,3.4875,3.4812,3.4214,3.4214,3.4014,3.3414,3.3253,3.2973,3.2545,3.2091,3.1797,3.1664,3.1664,3.1664,3.1664,3.1664,3.1664,3.1637,0.0,3.0915,3.0755,3.0301,3.0034,2.9913,2.9913,2.9913,2.9913,2.9913,2.9913,2.9913,2.9913,2.9913,2.9707,2.8834,2.7864,2.6717,2.4086,2.2029,1.984,1.7563,1.6103,1.5175,1.4476,1.4299,1.4299,1.4299,1.4299,1.4299,1.4299,1.4299,1.4319,1.438,1.4448,1.4496,1.4496,1.4496,1.4496,1.4496,1.4434,1.4394,1.4394,1.4265,1.417,1.417,1.4095,1.4041,1.4041,1.4041,1.4041,1.4041,1.4041,1.4041,1.4041,1.4041,1.4041,1.4041,1.4041,1.4041,1.4041,1.3867,1.374,1.3819,1.3468,1.3507,4.893,4.9148,4.9214,4.8861,4.731,4.5735,4.4306,4.1496,3.8814,3.6918,3.4531,3.2859,3.2471,3.2171,3.2412,3.3521,0.0,3.5297,3.5925,3.6299,3.65,3.65,3.5805,3.5297,3.5257,3.4723,3.4376,3.4376,3.4665,3.4737,3.4337,3.4095,3.3854,3.3414,3.3374,3.3106,3.2612,3.2278,3.1971,3.173,3.169,3.1664,3.1664,3.1664,3.1664,3.165,3.1356,3.1076,3.0822,3.0501,3.0207,2.9967,2.9927,2.9913,2.9913,2.9913,2.9913,2.9913,2.9913,2.9913,2.9734,2.9362,2.845,2.6986,2.5171,2.2873,2.0596,1.811,1.6766,1.5594,1.4708,1.4537,1.436,1.436,1.436,1.436,1.436,1.436,1.4394,1.4516,1.4652,1.474,1.474,1.474,1.474,1.474,1.4624,1.4543,1.4543,1.4401,1.4299,1.4299,1.4299,1.4299,1.4299,1.4299,1.4299,1.4299,1.4299,1.4299,1.4299,1.4299,1.4299,1.4299,1.4299,1.4299,1.4299,1.4299,1.4299,1.4299,1.4299,1.4299,5.0472,5.0629,5.0451,5.0694,4.9319,4.7491,4.5575,4.2698,0.0,3.6722,3.4478,3.273,3.1356,3.145,3.1971,3.2666,0.0,0.0,0.0,0.0,3.65,0.0,3.6153,3.5819,3.5578,0.0,0.0,0.0,0.0,3.4367,3.4367,3.4138,3.3681,3.3414,3.3173,3.3,3.2906,3.2372,3.2078,3.2024,3.1784,3.1664,3.1664,3.1664,3.1664,3.165,3.1356,0.0,3.1116,3.0581,3.0327,3.0261,3.0007,2.9913,2.9913,2.9913,2.9913,2.9913,2.9913,2.9913,2.9734,2.9362,2.845,2.6986,2.5171,2.2989,2.0817,1.8844,1.7567,1.6461,1.5564,1.5383,1.5202,1.4665,1.4665,1.4665,1.4665,1.4665,1.4672,1.4699,1.4719,1.474,1.474,1.474,1.474,1.474,1.4719,1.4699,1.4699,1.4468,1.4299,1.4299,1.4299,1.4299,1.4299,1.4299,1.4299,1.4299,1.4299,1.4299,1.4299,1.4299,1.4299,1.4299,1.4299,1.4299,1.4299,1.4299,1.4299,1.4299,1.4299,1.4299,5.1152,5.1562,5.1696,5.1696,5.0383,4.8619,4.6211,0.0,0.0,3.6351,3.3987,3.2038,3.0993,0.0,0.0,0.0,0.0,0.0,0.0,0.0,0.0,3.65,3.638,3.6179,0.0,0.0,0.0,0.0,0.0,3.4643,3.4336,3.4042,3.3814,3.3668,3.336,3.3133,3.2973,3.2692,3.2398,3.2104,3.1957,3.1824,3.1664,3.1664,3.1664,3.1664,3.1517,3.137,3.1196,3.0768,3.0501,3.0327,3.0034,2.9913,2.9913,2.9913,2.9913,2.9913,2.9913,2.9913,2.9913,2.9554,2.9091,2.8079,2.6269,2.4643,2.284,2.0667,1.9328,1.8166,1.6907,1.6181,1.5825,1.5279,1.4922,1.474,1.474,1.4801,1.4862,1.4862,1.4916,1.497,1.497,1.497,1.497,1.497,1.4909,1.4862,1.4862,1.4665,1.4529,1.4529,1.4462,1.4407,1.4407,1.434,1.4299,1.4299,1.4299,1.4299,1.4299,1.4299,1.4299,1.4299,1.4299,1.434,1.4407,1.4407,1.4448,1.4529,1.4529,1.4529,5.1523,5.2207,5.2637,5.2305,5.105,4.9132,4.6234,4.2726,3.9056,3.5881,3.3422,3.1485,3.0751,0.0,3.1396,0.0,3.2969,0.0,0.0,0.0,0.0,0.0,3.638,0.0,0.0,0.0,0.0,0.0,0.0,0.0,3.4442,3.4135,3.3948,3.3895,3.3574,3.3307,3.3066,3.3013,3.2746,3.2291,3.2158,3.1984,3.1757,3.1704,3.1664,3.1664,3.1664,3.153,3.1289,3.0942,3.0662,3.0421,3.006,2.9913,2.9913,2.9913,2.9913,2.9913,2.9913,2.9913,2.9913,2.9913,2.9554,2.9002,2.7727,2.6497,2.5251,2.2889,2.1488,2.0278,1.8647,1.7563,1.6659,1.5744,1.5202,1.4835,1.4835,1.493,1.5018,1.5018,1.5106,1.5181,1.5181,1.5181,1.5181,1.5181,1.5086,1.5018,1.5018,1.4909,1.4835,1.4835,1.4672,1.4563,1.4563,1.4462,1.4394,1.4394,1.4394,1.4394,1.4394,1.4394,1.4394,1.4394,1.4394,1.4448,1.4563,1.4563,1.4624,1.474,1.474,1.474,5.2168,5.2656,5.2695,5.2656,5.0847,4.8648,4.587,0.0,3.7676,3.5046,3.2756,3.0999,3.0214,3.0596,3.1259,3.1587,0.0,3.3949,0.0,0.0,0.0,0.0,0.0,0.0,0.0,0.0,0.0,0.0,0.0,0.0,3.4736,3.4442,3.4162,3.3895,3.3574,3.34,3.3374,3.3106,3.2946,3.2893,3.2358,3.2091,3.2051,3.1784,3.1664,3.1664,3.1664,3.165,0.0,3.1022,3.0782,3.0702,3.014,2.9913,2.9913,2.9913,2.9913,2.9913,2.9913,2.9913,2.9913,2.9913,2.9554,2.9182,2.8474,2.7715,2.6604,2.4945,2.3838,2.2546,2.0695,1.941,1.8119,1.6263,1.5521,1.514,1.514,1.5153,1.516,1.516,1.5174,1.5181,1.5181,1.5181,1.5181,1.5181,1.5174,1.516,1.516,1.5153,1.514,1.514,1.4889,1.4719,1.4719,1.4706,1.4699,1.4699,1.4699,1.4699,1.4699,1.4699,1.4699,1.4699,1.4699,1.4706,1.4719,1.4719,1.4726,1.474,1.474,1.474,5.1933,5.2715,5.3047,5.2773,5.0866,4.8434,4.5626,4.134,3.7207,3.4576,3.2389,3.0587,2.994,3.0515,3.129,3.1582,3.2943,3.4126,3.4875,0.0,0.0,0.0,0.0,0.0,0.0,0.0,0.0,0.0,0.0,0.0,3.503,3.4576,3.4269,3.4148,3.3668,3.3414,3.3414,3.3293,3.3146,3.2973,3.2559,3.2278,3.2091,3.1797,3.1664,3.1664,3.1664,3.1664,0.0,3.1036,3.0795,3.0728,3.014,2.9913,2.9913,2.9913,2.9913,2.9913,2.9913,2.9913,2.9913,2.9913,2.9734,2.9554,2.9002,2.8642,2.8088,2.6809,2.5901,2.4807,2.2974,2.076,1.8541,1.6868,1.5931,1.5563,1.5181,1.5181,1.5181,1.5181,1.5181,1.5181,1.5181,1.5181,1.5181,1.5181,1.5181,1.5181,1.5181,1.5181,1.5181,1.5181,1.4997,1.4875,1.4875,1.4794,1.474,1.474,1.474,1.474,1.474,1.474,1.474,1.474,1.474,1.4787,1.4875,1.4875,1.4923,1.5004,1.5004,1.5004,5.1172,5.2051,5.2519,5.2226,5.0313,4.7969,4.5201,4.1069,3.7305,3.491,3.2649,3.0973,3.0616,3.0973,3.1665,3.2176,3.3437,3.4676,3.5548,3.6162,0.0,0.0,0.0,0.0,0.0,0.0,0.0,0.0,0.0,0.0,3.5401,3.4723,3.4416,3.4322,3.3814,3.3507,3.3414,3.3414,3.3307,3.3106,3.2732,3.2438,3.2225,3.1837,3.1664,3.1664,3.1664,3.1664,0.0,3.1129,3.0862,3.0742,3.0247,2.9993,2.9913,2.9913,2.9913,2.9913,2.9913,2.9913,2.9913,2.9913,2.9913,2.9913,2.9541,2.9362,2.9182,2.8462,2.7184,2.5901,2.4452,2.1869,1.9285,1.7981,1.7055,1.6494,1.5931,1.5931,1.5744,1.5368,1.5368,1.5368,1.5181,1.5181,1.5181,1.5181,1.5181,1.5181,1.5181,1.5181,1.5181,1.5181,1.5092,1.5031,1.5031,1.493,1.4869,1.4869,1.4869,1.4869,1.4869,1.4869,1.4869,1.4869,1.4869,1.4923,1.5031,1.5031,1.5086,1.5181,1.5181,1.5181,4.9844,5.0508,5.082,5.082,4.9034,4.6856,4.5052,4.1046,3.753,3.613,3.371,3.2026,3.2026,3.204,3.2232,3.3264,3.4351,3.565,3.6901,3.7396,0.0,0.0,0.0,0.0,0.0,0.0,0.0,0.0,0.0,0.0,3.6033,3.5133,3.4629,3.4336,3.4042,3.3734,3.3414,3.3414,3.3414,3.34,3.2826,3.2545,3.2519,3.1931,3.1664,3.1664,3.1664,3.1664,0.0,3.1343,3.1049,3.0768,3.0474,3.0181,2.9913,2.9913,2.9913,2.9913,2.9913,2.9913,2.9913,2.9913,2.9913,2.9913,2.9913,2.9913,2.9734,2.9362,2.7727,2.5901,2.4452,2.2616,2.077,1.9834,1.8913,1.7989,1.7437,1.7437,1.7063,1.6126,1.5938,1.5751,1.5368,1.5181,1.5181,1.5181,1.5181,1.5181,1.5181,1.5181,1.5181,1.5181,1.5181,1.5181,1.5181,1.5181,1.5174,1.5174,1.5174,1.5174,1.5174,1.5174,1.5174,1.5174,1.5174,1.5181,1.5181,1.5181,1.5181,1.5181,1.5181,1.5181,4.8476,4.9375,4.9941,4.9941,4.8366,4.6523,4.4673,4.1214,3.799,3.6676,3.4586,3.3081,3.2732,3.2922,3.3285,3.3966,3.5253,3.6708,3.8151,0.0,0.0,0.0,0.0,0.0,0.0,0.0,0.0,0.0,0.0,0.0,3.6649,3.5746,3.5044,3.4322,3.4042,3.3734,3.3414,3.3414,3.3414,3.34,3.2826,3.2545,3.2532,3.1931,3.1664,3.1664,3.1664,3.1664,3.165,3.1343,3.1049,3.0768,3.0474,3.0181,2.9913,2.9913,2.9913,2.9913,2.9913,2.9913,2.9913,2.9913,2.9913,2.9913,2.9913,2.9913,2.9734,2.9362,2.8462,2.7377,2.5913,2.4613,2.3148,2.15,2.076,2.0019,1.9091,1.8727,1.8168,1.7616,1.7242,1.6688,1.5751,1.5751,1.5563,1.5181,1.5181,1.5181,1.5181,1.5181,1.5181,1.5181,1.5181,1.5181,1.5181,1.5181,1.5181,1.5181,1.5181,1.5181,1.5181,1.5181,1.5181,1.5181,1.5181,1.5181,1.5181,1.5181,1.5181,1.5181,1.5181,1.5181,4.6562,4.7539,4.8105,4.8262,4.7242,4.58,4.4473,4.187,3.9368,3.8214,3.6576,3.4938,3.4454,3.4283,3.4517,3.5515,3.6362,3.7791,3.9544,0.0,0.0,0.0,0.0,0.0,0.0,0.0,0.0,0.0,0.0,0.0,3.7717,3.6603,3.5486,3.4571,3.4178,3.3734,3.3414,3.3414,3.3414,3.34,3.2826,3.2545,3.2532,3.1931,3.1664,3.1664,3.1664,3.1664,0.0,3.1463,3.1156,3.0768,3.0595,3.0274,2.9913,2.9913,2.9913,2.9913,2.9913,2.9913,2.9913,2.9913,2.9913,2.9913,2.9913,2.9913,2.9913,2.9554,2.9195,2.8462,2.7365,2.6446,2.5343,2.3892,2.3148,2.2402,2.1481,2.1121,2.0566,1.9462,1.8913,1.8168,1.7242,1.6681,1.6314,1.6119,1.5744,1.5368,1.5368,1.5368,1.5181,1.5181,1.5181,1.5181,1.5181,1.5181,1.5181,1.5181,1.5181,1.5181,1.5181,1.5181,1.5181,1.5181,1.5181,1.5181,1.5181,1.5181,1.5181,1.5181,1.5181,1.5181,0.0,4.5156,4.5683,4.6074,4.5532,4.4703,4.428,4.2795,0.0,4.05,3.8909,3.7686,3.7159,3.6108,3.5922,3.747,3.7845,3.8718,0.0,0.0,0.0,0.0,0.0,0.0,0.0,0.0,0.0,0.0,0.0,0.0,3.923,3.7695,3.6376,3.4908,3.4247,3.3896,3.3414,3.3387,3.3374,3.3374,3.2786,3.2519,3.2492,3.1931,3.1664,0.0,3.1664,3.1664,3.1664,3.1664,3.1316,3.0795,3.0795,3.0434,2.9913,2.9913,2.9913,2.9913,2.9913,2.9913,2.9913,2.9913,2.9913,2.9913,2.9913,2.9913,2.9913,2.9913,2.9554,2.9182,2.8655,2.792,2.7003,2.6446,2.6083,2.5343,2.443,2.4247,2.3687,2.1665,2.0936,2.0381,1.9276,1.8354,1.7616,1.7437,1.6688,1.6126,1.5938,1.5563,1.5181,1.5181,1.5181,1.5181,1.5181,1.5181,1.5181,1.5181,1.5181,1.5181,1.5181,1.5181,1.5181,1.5181,1.5181,1.5181,1.5181,1.5181,1.5181,1.5181,1.5181,1.5181,4.166,0.0,4.4726,4.4824,4.4407,4.3914,0.0,4.2254,4.0916,0.0,0.0,3.8653,3.822,3.7876,3.8,3.8736,3.9295,4.0445,0.0,0.0,0.0,0.0,0.0,0.0,0.0,0.0,0.0,0.0,0.0,4.246,4.0864,3.9535,3.8324,3.7065,3.5805,3.4446,3.3414,3.3187,3.308,3.3066,3.2492,3.2211,3.2198,3.1837,3.1664,3.1664,3.1664,3.1664,3.1664,3.1664,3.1316,3.0795,3.0795,3.0434,2.9913,2.9913,2.9913,2.9913,2.9913,2.9913,2.9913,2.9913,2.9913,2.9913,2.9913,2.9913,2.9913,2.9913,2.9734,2.9554,2.9182,2.8822,2.8462,2.7546,2.7184,2.7003,2.6446,2.6083,2.5343,2.4237,2.3504,2.2596,2.0936,2.0381,1.9834,1.8727,1.7981,1.7429,1.7063,1.6314,1.5751,1.5751,1.5368,1.5181,1.5181,1.5181,1.5181,1.5181,1.5181,1.5181,1.5181,1.5181,1.5181,1.5181,1.5181,1.5181,1.5181,1.5181,1.5181,1.5181,1.5181,1.5181,4.0332,4.1738,4.3008,4.3398,4.3312,4.3089,4.2857,0.0,0.0,0.0,0.0,0.0,4.0029,0.0,0.0,4.0815,4.1096,0.0,0.0,0.0,0.0,0.0,0.0,0.0,0.0,0.0,0.0,0.0,0.0,4.4251,4.267,4.1538,4.009,3.8369,3.7432,3.6173,3.4193,3.3511,3.3165,3.3165,3.2512,3.2104,3.2091,3.1797,3.1664,3.1664,3.1664,3.1664,3.1664,3.1664,3.1396,3.0982,3.0849,3.0515,3.01,2.9967,3.0007,3.0114,3.0114,3.0114,3.01,2.9967,2.9913,2.9913,2.9913,2.9913,2.9913,2.9913,2.9913,2.9913,2.9554,2.9554,2.9362,2.8822,2.8642,2.8642,2.8088,2.7727,2.7365,2.6265,2.5707,2.4978,2.3687,2.2954,2.2218,2.149,2.0196,1.9276,1.8913,1.7981,1.7242,1.7055,1.6494,1.6119,1.6119,1.5744,1.5375,1.5181,1.5181,1.5181,1.5181,1.5181,1.5181,1.5181,1.5181,1.5181,1.5181,1.5181,1.5181,1.5181,1.5181,1.5181,3.9746,4.043,4.1211,4.2187,4.2422,4.2422,4.2422,0.0,0.0,0.0,0.0,0.0,0.0,0.0,0.0,0.0,0.0,0.0,0.0,0.0,0.0,0.0,0.0,0.0,0.0,0.0,0.0,0.0,0.0,4.6152,4.4533,4.3626,4.2138,3.9866,3.961,3.8431,3.6147,3.4531,3.363,3.3436,3.2557,3.223,3.2216,3.1784,3.1664,3.1664,0.0,0.0,3.1664,3.1664,3.1463,3.1129,3.0889,3.0581,3.0261,3.0007,3.01,3.0368,3.0408,3.0421,3.0381,3.0127,3.0047,3.0047,3.0047,3.0047,3.0047,3.0047,2.998,2.9913,2.9913,2.9913,2.9913,2.9913,2.9913,2.9734,2.9362,2.9401,2.9067,2.8164,2.7645,2.7305,2.6759,2.564,2.4723,2.454,2.3056,2.1586,2.1215,2.0109,1.9176,1.8777,1.8217,1.7835,1.7624,1.6868,1.6119,1.5556,1.5368,1.5181,1.5181,1.5181,1.5181,1.5181,1.5181,1.5181,1.5181,1.5181,1.5181,1.5181,1.5181,1.5181,3.9668,4.0,4.0469,4.2031,4.2422,4.2422,4.2422,4.2191,0.0,0.0,0.0,0.0,0.0,0.0,0.0,0.0,0.0,0.0,0.0,0.0,0.0,0.0,0.0,0.0,0.0,0.0,0.0,0.0,0.0,4.7307,4.5816,4.5165,4.4203,4.3068,4.1625,4.0528,4.0157,3.6549,3.465,3.4269,3.3007,3.23,3.2287,3.188,3.1664,3.1664,0.0,3.1664,3.1664,3.1664,3.1343,3.0849,3.0808,3.0461,2.998,2.994,3.01,3.0394,3.0635,3.0728,3.0715,3.0675,3.0662,3.0662,3.0662,3.0662,3.0662,3.0662,3.0301,2.9913,2.9913,2.9913,2.9913,2.9913,2.9913,2.9913,2.9734,2.9933,3.0106,2.9365,2.9546,2.9346,2.8421,2.8038,2.7667,2.6911,2.5604,2.4667,2.4292,2.2596,2.1404,2.1039,2.0082,1.9261,1.8735,1.8541,1.7981,1.7063,1.5931,1.5181,1.5181,1.5181,1.5181,1.5181,1.5181,1.5181,1.5181,1.5181,1.5181,1.5181,1.5181,1.5181,3.9648,4.0059,4.0527,4.1777,4.209,4.2148,4.2383,0.0,0.0,0.0,0.0,0.0,0.0,0.0,0.0,0.0,0.0,0.0,0.0,0.0,0.0,0.0,0.0,0.0,0.0,0.0,0.0,0.0,0.0,0.0,4.6398,4.6196,4.546,4.4343,4.3597,4.2672,4.1915,3.9691,3.7474,3.581,3.4363,3.354,3.3163,3.2421,3.2043,3.2043,0.0,3.1664,3.1664,3.1664,3.141,3.1009,3.0849,3.0528,3.0181,3.0327,3.0474,3.0635,3.0929,3.1022,3.0996,3.0849,3.0795,3.0795,3.0795,3.0795,3.0795,3.0795,3.0595,3.0394,3.0394,3.0394,3.0394,3.0394,3.0394,3.0394,3.0394,3.0501,3.0595,3.0214,3.032,3.0412,2.9857,2.9672,2.9288,2.8917,2.7787,2.704,2.6666,2.5528,2.449,2.4069,2.3106,2.227,2.1685,2.0751,1.9276,1.7429,1.6314,1.5563,1.5563,1.5368,1.5181,1.5181,1.5181,1.5181,1.5181,1.5181,1.5181,1.5181,1.5181,1.5181,3.9551,4.0039,4.0586,4.1445,4.1797,4.2031,4.2344,0.0,0.0,0.0,0.0,0.0,0.0,0.0,0.0,0.0,0.0,0.0,0.0,0.0,0.0,0.0,0.0,0.0,0.0,0.0,0.0,0.0,0.0,0.0,4.6883,4.6864,4.6331,4.5196,4.4999,4.4491,4.3444,4.2371,4.0532,3.7791,3.6143,3.504,3.4464,3.354,3.2786,3.2597,3.2043,3.1853,3.1664,3.1597,3.1383,3.1089,3.0808,3.0515,3.0301,3.0662,3.0795,3.0849,3.1209,3.133,3.1289,3.1076,3.0996,3.0996,3.0996,3.0996,3.0996,3.0996,3.0996,3.0969,3.0835,3.0795,3.0795,3.0795,3.0795,3.0795,3.0795,3.0849,3.0889,3.0889,3.0955,3.0996,3.0996,3.0624,3.0424,3.0424,2.9679,2.8931,2.8731,2.8168,2.7497,2.6852,2.5842,2.5118,2.4635,2.2954,2.0936,1.9091,1.7429,1.6314,1.6314,1.5744,1.5368,1.5368,1.5181,1.5181,1.5181,1.5181,1.5181,1.5181,1.5181,1.5181,3.9238,3.959,4.0137,4.0996,4.1797,0.0,4.2422,0.0,0.0,0.0,0.0,0.0,0.0,0.0,0.0,0.0,0.0,0.0,0.0,0.0,0.0,0.0,0.0,0.0,0.0,0.0,0.0,0.0,0.0,0.0,4.6992,4.6973,4.66,4.6192,4.5821,4.545,4.5431,4.451,4.2712,4.0152,3.8343,3.7069,3.6699,3.5226,3.4103,3.3163,3.2597,3.2043,3.165,3.137,3.1089,3.0795,3.0501,3.0207,3.002,3.0581,3.0795,3.0875,3.1436,3.1637,3.1637,3.161,3.161,3.161,3.161,3.161,3.161,3.161,3.161,3.1476,3.0942,3.0795,3.0795,3.0795,3.0795,3.0795,3.0795,3.1009,3.1196,3.1196,3.1423,3.161,3.161,3.161,3.161,3.161,3.1041,3.0661,3.0661,2.9886,2.9202,2.8728,2.8108,2.72,2.6312,2.4796,2.3881,2.3698,2.0019,1.7803,1.725,1.6314,1.5938,1.5938,1.5368,1.5181,1.5181,1.5181,1.5181,1.5181,1.5181,1.5181,3.9141,3.9551,4.0039,4.0625,0.0,0.0,0.0,0.0,0.0,0.0,0.0,0.0,0.0,0.0,0.0,0.0,0.0,0.0,0.0,0.0,0.0,0.0,0.0,0.0,0.0,0.0,0.0,0.0,0.0,0.0,4.6543,4.6543,4.6465,4.6308,4.6133,4.5958,4.5958,4.5412,4.451,4.3604,4.1075,3.9458,3.871,3.6884,3.5479,3.4173,3.3056,3.2212,3.1475,3.1181,3.0782,3.0488,3.0194,3.002,2.998,3.0581,3.0795,3.0875,3.1463,3.1664,3.1664,3.1664,3.1664,3.1664,3.1664,3.1664,3.1664,3.1664,3.1664,3.1623,3.1396,3.1343,3.1343,3.1343,3.1343,3.1343,3.1343,3.1423,3.1503,3.1503,3.1597,3.1664,3.1664,3.1664,3.1664,3.1664,3.1474,3.1474,3.1474,3.1093,3.0786,3.0311,2.9487,2.8503,2.722,2.6628,2.6083,2.5537,2.1675,1.9276,1.8727,1.7234,1.6306,1.5938,1.5375,1.5181,1.5181,1.5181,1.5181,1.5181,1.5181,1.5181,3.8965,3.9582,4.0112,0.0,0.0,0.0,0.0,0.0,0.0,0.0,0.0,0.0,0.0,0.0,0.0,0.0,0.0,0.0,0.0,0.0,0.0,0.0,0.0,0.0,0.0,0.0,0.0,0.0,0.0,0.0,0.0,4.6308,4.6308,4.6308,4.6308,4.6308,4.6308,4.5822,4.5589,4.557,4.3309,4.1763,4.0731,3.8778,3.6955,3.5456,3.3882,3.2803,3.1886,3.1239,3.067,3.0207,2.9993,2.9913,2.998,3.0581,3.0795,3.0875,3.1463,3.1664,3.1664,3.1664,3.1664,3.1664,3.1664,3.1664,3.1664,3.1664,3.1664,3.1664,3.1664,3.1664,3.1664,3.1664,3.1664,3.1664,3.1664,3.1664,3.1664,3.1664,3.1664,3.1664,3.1664,3.1664,3.1664,3.1664,3.1664,3.1664,3.1664,3.1664,3.1557,3.1263,3.0412,2.9625,2.8614,2.8332,2.7908,2.7172,2.4054,2.1675,2.0575,1.8719,1.7234,1.6314,1.5744,1.5368,1.5181,1.5181,1.5181,1.5181,1.5181,1.5181,3.8691,3.9515,0.0,0.0,0.0,0.0,0.0,0.0,0.0,0.0,0.0,0.0,0.0,0.0,0.0,0.0,0.0,0.0,0.0,0.0,0.0,0.0,0.0,0.0,0.0,0.0,0.0,0.0,0.0,0.0,0.0,4.6289,4.6289,4.6289,4.6289,4.6289,4.6289,4.5879,4.5664,4.5664,4.4721,4.3721,4.2712,4.0872,3.8908,3.7051,3.5273,3.3882,3.2774,3.1554,3.0709,2.9913,2.9913,2.9913,2.998,3.0568,3.0795,3.0875,3.1463,3.1664,3.1664,3.1664,3.1664,3.1664,3.1664,3.1664,3.1664,3.1664,3.1664,3.1664,3.1664,3.1664,3.1664,3.1664,3.1664,3.1664,3.1664,3.1664,3.1664,3.1664,3.1664,3.1664,3.1664,3.1664,3.1664,3.1664,3.1664,3.1664,3.1664,3.1664,3.1557,3.1263,3.0969,3.0675,3.0381,2.9713,2.9182,2.9182,2.7365,2.5172,2.28,2.076,1.8913,1.7437,1.6501,1.5751,1.5181,1.5181,1.5181,1.5181,1.5181,1.5181,3.8613,0.0,0.0,0.0,0.0,0.0,0.0,0.0,0.0,0.0,0.0,0.0,0.0,0.0,0.0,0.0,0.0,0.0,0.0,0.0,0.0,0.0,0.0,0.0,0.0,0.0,0.0,0.0,0.0,0.0,0.0,4.5566,4.541,4.541,4.541,4.541,4.541,4.5273,4.5215,4.5215,4.4927,4.4281,4.328,4.1756,4.0316,3.8636,3.6757,3.5342,3.4064,3.2376,3.1235,3.0437,3.0437,3.0272,2.9967,3.0341,3.0621,3.0849,3.1223,3.149,3.1664,3.1664,3.1664,3.1664,3.1664,3.1664,3.1664,3.1664,3.1664,3.1664,3.1664,3.1664,3.1664,3.1664,3.1664,3.1664,3.1664,3.1664,3.1664,3.1664,3.1664,3.1664,3.1664,3.1664,3.1664,3.1664,3.1664,3.1664,3.1664,3.1664,3.1557,3.1263,3.1156,3.0902,3.0408,3.0093,2.9946,2.9747,2.8822,2.6991,2.4247,2.1869,2.0028,1.8541,1.7429,1.6501,1.5751,1.5751,1.5556,1.5181,1.5181,1.5181,3.8574,0.0,0.0,0.0,0.0,0.0,0.0,0.0,0.0,0.0,0.0,0.0,0.0,0.0,0.0,0.0,0.0,0.0,0.0,0.0,0.0,0.0,0.0,0.0,0.0,0.0,0.0,0.0,0.0,0.0,0.0,4.5176,4.5019,4.5019,4.5019,4.5019,4.5019,4.4863,4.4766,4.4766,4.459,4.4155,4.363,4.2609,4.1505,4.0221,3.8146,3.6399,3.5003,3.3601,3.2366,3.1315,3.0973,3.0616,3.0133,3.0429,3.0474,3.0675,3.1089,3.1343,3.1517,3.1637,3.1664,3.1664,3.1664,3.1664,3.1664,3.1664,3.1664,3.1664,3.1664,3.1664,3.1664,3.1664,3.1664,3.1664,3.1664,3.1664,3.1664,3.1664,3.1664,3.1664,3.1664,3.1664,3.1664,3.1664,3.1664,3.1664,3.1664,3.1664,3.1597,3.1423,3.1289,3.1089,3.0742,3.0488,3.0287,3.01,2.9607,2.8269,2.6265,2.4064,2.2054,2.0205,1.9099,1.7981,1.6868,1.6494,1.5931,1.5556,1.5368,1.5181,0.0,0.0,0.0,0.0,0.0,0.0,0.0,0.0,0.0,0.0,0.0,0.0,0.0,0.0,0.0,0.0,0.0,0.0,0.0,0.0,0.0,0.0,0.0,0.0,0.0,0.0,0.0,0.0,0.0,0.0,0.0,4.4922,4.4902,4.4902,4.4902,4.4902,4.4902,4.4531,4.4336,4.4336,4.3906,4.3711,4.3711,4.3285,4.2443,4.1555,3.9471,3.7602,3.57,3.5352,3.4128,3.2719,3.1848,3.1137,3.0657,3.0402,3.0341,3.0434,3.0969,3.1183,3.1276,3.1543,3.165,3.1664,3.1664,3.1664,3.1664,3.1664,3.1664,3.1664,3.1664,3.1664,3.1664,3.1664,3.1664,3.1664,3.1664,3.1664,3.1664,3.1664,3.1664,3.1664,3.1664,3.1664,3.1664,3.1664,3.1664,3.1664,3.1664,3.1664,3.1664,3.1664,3.1423,3.1249,3.1223,3.0715,3.0394,3.0354,2.9713,2.9002,2.8655,2.6628,2.4613,2.2248,2.113,1.9834,1.8363,1.7421,1.6681,1.5938,1.5563,1.5368,0.0,0.0,0.0,0.0,0.0,0.0,0.0,0.0,0.0,0.0,0.0,0.0,0.0,0.0,0.0,0.0,0.0,0.0,0.0,0.0,0.0,0.0,0.0,0.0,0.0,0.0,0.0,0.0,0.0,0.0,4.4531,4.418,4.3984,4.3984,4.3984,4.3984,4.3984,4.3906,4.3848,0.0,4.375,4.3711,4.3711,4.3311,4.2515,4.1658,4.0873,3.9653,3.8118,3.7414,3.6031,3.4303,3.3249,3.2203,3.1151,3.0684,3.0515,3.0381,3.0501,3.0849,3.1236,3.1303,3.1476,3.1664,3.1664,3.1664,3.1664,3.1664,3.1664,3.1664,3.1664,3.1664,3.1664,3.1664,3.1664,3.1664,3.1664,3.1664,3.1664,3.1664,3.1664,3.1664,3.1664,3.1664,3.1664,3.1664,3.1664,3.1664,3.1664,3.1664,3.1664,3.1664,3.161,3.1476,3.1249,3.0902,3.0595,3.0381,3.0074,2.9554,2.9002,2.7546,2.5901,2.4247,2.3158,2.1685,2.0019,1.9276,1.8354,1.7063,1.7063,1.6494,0.0,0.0,0.0,0.0,0.0,0.0,0.0,0.0,0.0,0.0,0.0,0.0,0.0,0.0,0.0,0.0,0.0,0.0,0.0,0.0,0.0,0.0,0.0,0.0,0.0,0.0,0.0,0.0,0.0,4.4707,4.4062,4.3828,4.3711,4.3711,4.3711,4.3711,4.3711,4.3711,4.3711,4.3711,4.3711,4.3711,4.3711,4.3546,4.3048,4.2383,4.203,4.136,4.018,3.9313,3.7929,3.6378,3.4638,3.3249,3.1848,3.0973,3.0366,3.0167,3.0314,3.0648,3.1036,3.1183,3.1423,3.1664,3.1664,3.1664,3.1664,3.1664,3.1664,3.1664,3.1664,3.1664,3.1664,3.1664,3.1664,3.1664,3.1664,3.1664,3.1664,3.1664,3.1664,3.1664,3.1664,3.1664,3.1664,3.1664,3.1664,3.1664,3.1664,3.1664,3.1664,3.1664,3.1664,3.161,3.145,3.1169,3.0875,3.0581,3.0287,2.988,2.9554,2.8822,2.7727,2.6265,2.5172,2.4064,2.2586,2.1315,2.0205,1.9091,1.8541,1.7795,0.0,0.0,0.0,0.0,0.0,0.0,0.0,0.0,0.0,0.0,0.0,0.0,0.0,0.0,0.0,0.0,0.0,0.0,0.0,0.0,0.0,0.0,0.0,0.0,0.0,0.0,0.0,0.0,0.0,4.4205,4.3711,4.3711,4.3711,4.3711,4.3711,4.3711,4.3711,4.3711,4.3711,4.3711,4.3711,4.3711,4.3711,4.3711,4.3546,4.3234,4.3234,4.2716,4.1863,4.1042,3.9841,3.846,3.6205,3.4463,3.2896,3.1493,3.0616,3.0133,3.0375,3.0501,3.0835,3.1076,3.1383,3.1664,3.1664,3.1664,3.1664,3.1664,3.1664,3.1664,3.1664,3.1664,3.1664,3.1664,3.1664,3.1664,3.1664,3.1664,3.1664,3.1664,3.1664,3.1664,3.1664,3.1664,3.1664,3.1664,3.1664,3.1664,3.1664,3.1664,3.1664,3.1664,3.1664,3.1664,3.1664,3.1396,3.1129,3.0889,3.0595,3.0301,3.0007,2.9993,2.9414,2.8101,2.7184,2.6265,2.5161,2.3525,2.2238,2.1665,2.0381,1.9648,0.0,0.0,0.0,0.0,0.0,0.0,0.0,0.0,0.0,0.0,0.0,0.0,0.0,0.0,0.0,0.0,0.0,0.0,0.0,0.0,0.0,0.0,0.0,0.0,0.0,0.0,0.0,0.0,4.437,4.4205,4.3711,4.3711,4.3711,4.3711,4.3711,4.3711,4.3711,4.3711,4.3711,4.3711,4.3711,4.3711,4.3711,4.3711,4.3711,4.3546,4.3546,4.338,4.2902,4.2402,4.1378,4.001,3.846,3.6551,3.4478,3.3425,3.2026,3.0451,3.0491,3.0691,3.0795,3.0835,3.1223,3.1664,3.1664,3.1664,3.1664,3.1664,3.1664,3.1664,3.1664,3.1664,3.1664,3.1664,3.1664,3.1664,3.1664,3.1664,3.1664,3.1664,3.1664,3.1664,3.1664,3.1664,3.1664,3.1664,3.1664,3.1664,3.1664,3.1664,3.1664,3.1664,3.1664,3.1664,3.1664,3.1396,3.1209,3.1169,3.0889,3.0608,3.0314,3.0301,3.0181,2.9554,2.8655,2.7739,2.6628,2.6083,2.4978,2.3698,2.3504,2.2402,0.0,0.0,0.0,0.0,0.0,0.0,0.0,0.0,0.0,0.0,0.0,0.0,0.0,0.0,0.0,0.0,0.0,0.0,0.0,0.0,0.0,0.0,0.0,0.0,0.0,0.0,0.0,0.0,4.4041,4.3876,4.3711,4.3711,4.3711,4.3711,4.3711,4.3711,4.3711,4.3711,4.3711,4.3711,4.3711,4.3711,4.3711,4.3711,4.3711,4.3711,4.3711,4.3546,4.338,4.2902,4.2049,4.1024,3.9653,3.7774,3.5874,3.4653,3.3249,3.1699,3.1346,3.1149,3.1178,3.0982,3.133,3.1664,3.1664,3.1664,3.1664,3.1664,3.1664,3.1664,3.1664,3.1664,3.1664,3.1664,3.1664,3.1664,3.1664,3.1664,3.1664,3.1664,3.1664,3.1664,3.1664,3.1664,3.1664,3.1664,3.1664,3.1664,3.1664,3.1664,3.1664,3.1664,3.1664,3.1664,3.1664,3.1557,3.1396,3.1236,3.1102,3.0902,3.0621,3.0595,3.0541,3.0408,2.9351,2.8642,2.8269,2.7546,2.6821,2.6083,2.5525,2.4796,0.0,0.0,0.0,0.0,0.0,0.0,0.0,0.0,0.0,0.0,0.0,0.0,0.0,0.0,0.0,0.0,0.0,0.0,0.0,0.0,0.0,0.0,0.0,0.0,0.0,0.0,0.0,0.0,4.3711,4.3711,4.3711,4.3711,4.3711,4.3711,4.3711,4.3711,4.3711,4.3711,4.3711,4.3711,4.3711,4.3711,4.3711,4.3711,4.3711,4.3711,4.3711,4.3711,4.3711,4.338,4.2716,4.1863,4.0855,3.9313,3.743,3.6205,3.4638,3.3117,3.2742,3.2169,3.1928,3.1874,3.1799,3.1853,3.1853,3.1853,3.1664,3.1664,3.1664,3.1664,3.1664,3.1664,3.1664,3.1664,3.1664,3.1664,3.1664,3.1664,3.1664,3.1664,3.1664,3.1664,3.1664,3.1664,3.1664,3.1664,3.1664,3.1664,3.1664,3.1664,3.1664,3.1664,3.1664,3.1664,3.1664,3.1664,3.157,3.1356,3.1343,3.1209,3.0915,3.0902,3.0862,3.0795,2.999,2.9585,2.9585,2.886,2.8446,2.8201,2.7463,2.7063,0.0,0.0,0.0,0.0,0.0,0.0,0.0,0.0,0.0,0.0,0.0,0.0,0.0,0.0,0.0,0.0,0.0,0.0,0.0,0.0,0.0,0.0,0.0,0.0,0.0,0.0,4.4205,4.3711,4.3711,4.3711,4.3711,4.3711,4.3711,4.3711,4.3711,4.3711,4.3711,4.3711,4.3711,4.3711,4.3711,4.3711,4.3711,4.3711,4.3711,4.3711,4.3711,4.3711,4.3711,4.3711,4.338,4.2902,4.2402,4.1192,3.9483,3.846,3.6724,3.47,3.4525,3.3782,3.3028,3.3343,3.2911,3.2421,3.2421,3.2043,3.1664,3.1664,3.1664,3.1664,3.1664,3.1664,3.1664,3.1664,3.1664,3.1664,3.1664,3.1664,3.1664,3.1664,3.1664,3.1664,3.1664,3.1664,3.1664,3.1664,3.1664,3.1664,3.1664,3.1664,3.1664,3.1664,3.1664,3.1664,3.1664,3.1664,3.1664,3.165,3.165,3.1517,3.1209,3.1209,3.1076,3.0795,3.0755,3.0742,3.0742,3.0742,3.0228,2.9586,2.9404,2.8703,3.5976,0.0,0.0,0.0,0.0,0.0,0.0,0.0,0.0,0.0,0.0,0.0,0.0,0.0,0.0,0.0,0.0,0.0,0.0,0.0,0.0,0.0,0.0,0.0,4.6467,4.5657,4.4862,4.4205,4.4205,4.4041,4.3711,4.3711,4.3711,4.3711,4.3711,4.3711,4.3711,4.3711,4.3711,4.3711,4.3711,4.3711,4.3711,4.3711,4.3711,4.3711,4.3711,4.3711,4.3711,4.3711,4.338,4.3068,4.2902,4.2049,4.0855,4.001,3.8802,3.7308,3.6291,3.5739,3.5181,3.4617,3.4216,3.3728,3.354,3.2786,3.2232,3.2232,3.1853,3.1664,3.1664,3.1664,3.1664,3.1664,3.1664,3.1664,3.1664,3.1664,3.1664,3.1664,3.1664,3.1664,3.1664,3.1664,3.1664,3.1664,3.1664,3.1664,3.1664,3.1664,3.1664,3.1664,3.1664,3.1664,3.1664,3.1664,3.1664,3.1664,3.1664,3.1623,3.1517,3.1517,3.1463,3.1356,3.1356,3.1169,3.0795,3.0795,3.0742,3.0438,3.0252,2.9924,3.5137,3.5898,0.0,0.0,0.0,0.0,0.0,0.0,0.0,0.0,0.0,0.0,0.0,0.0,0.0,0.0,0.0,0.0,0.0,0.0,0.0,0.0,5.0698,4.9315,4.7911,4.709,4.6144,4.5169,4.4842,0.0,4.4041,4.3876,4.3876,4.3711,4.3711,4.3711,4.3711,4.3711,4.3711,4.3711,4.3711,4.3711,4.3711,4.3711,4.3711,4.3711,4.3711,4.3711,4.3711,4.3711,4.3546,4.3234,4.3234,4.2882,4.2049,4.1378,4.0518,3.9536,3.8544,3.7865,3.7322,3.6775,3.6052,3.5398,3.4838,3.3728,3.2597,3.2408,3.2043,3.1664,3.1664,3.1664,3.1664,3.1664,3.1664,3.1664,3.1664,3.1664,3.1664,3.1664,3.1664,3.1664,3.1664,3.1664,3.1664,3.1664,3.1664,3.1664,3.1664,3.1664,3.1664,3.1664,3.1664,3.1664,3.1664,3.1664,3.1664,3.1664,3.1664,3.1664,3.1664,3.1664,3.1664,3.1664,3.1664,3.1476,3.1089,3.1089,3.1036,3.0929,3.0635,3.0394,0.0,0.0,0.0,0.0,0.0,0.0,0.0,0.0,0.0,0.0,0.0,0.0,0.0,0.0,0.0,0.0,0.0,0.0,0.0,0.0,0.0,5.3346,5.2588,5.1339,4.9808,4.8842,4.7709,4.6467,4.5982,4.5332,4.4534,4.437,4.4205,4.3711,4.3711,4.3711,4.3711,4.3711,4.3711,4.3711,4.3711,4.3711,4.3711,4.3711,4.3711,4.3711,4.3711,4.3711,4.3711,4.3711,4.3711,4.3711,4.3711,4.338,4.3068,4.2569,4.1882,4.106,4.0971,4.0313,3.947,3.9847,3.858,3.6869,3.6313,3.4838,3.3177,3.2597,3.2043,3.1664,3.1664,3.1664,3.1664,3.1664,3.1664,3.1664,3.1664,3.1664,3.1664,3.1664,3.1664,3.1664,3.1664,3.1664,3.1664,3.1664,3.1664,3.1664,3.1664,3.1664,3.1664,3.1664,3.1664,3.1664,3.1664,3.1664,3.1664,3.1664,3.1664,3.1664,3.1664,3.1664,3.1664,3.1664,3.1664,3.1664,3.1664,3.1664,3.1517,3.1236,3.0942,3.0488,3.3984,0.0,0.0,0.0,0.0,0.0,0.0,0.0,0.0,0.0,0.0,0.0,0.0,0.0,0.0,0.0,0.0,0.0,0.0,5.3972,5.3948,5.4098,5.3346,5.2412,5.1339,5.0853,4.9741,0.0,4.773,4.693,4.582,4.4842,4.4205,4.3711,4.3711,4.3711,4.3711,4.3711,4.3711,4.3711,4.3711,4.3711,4.3711,4.3711,4.3711,4.3711,4.3711,4.3711,4.3711,4.3711,4.3711,4.3711,4.3711,4.3711,4.3546,4.3068,4.2716,4.2402,4.1658,4.1647,4.1713,4.079,4.0018,3.9242,3.7607,3.5771,3.4103,3.3177,3.2421,3.1664,3.1664,3.1664,3.1664,3.1664,3.1664,3.1664,3.1664,3.1664,3.1664,3.1664,3.1664,3.1664,3.1664,3.1664,3.1664,3.1664,3.1664,3.1664,3.1664,3.1664,3.1664,3.1664,3.1664,3.1664,3.1664,3.1664,3.1664,3.1664,3.1664,3.1664,3.1664,3.1664,3.1664,3.1664,3.1664,3.1664,3.1664,3.1664,3.1623,3.1543,3.1249,3.0795,3.4477,3.4466,3.4453,3.498,0.0,0.0,3.6973,3.832,0.0,0.0,0.0,0.0,0.0,0.0,0.0,0.0,0.0,0.0,5.2389,5.2892,5.3195,5.3798,5.3648,5.3195,5.274,5.2412,5.1624,5.0232,4.9607,4.8345,4.6467,4.5005,4.4205,4.3711,4.3711,4.3711,4.3711,4.3711,4.3711,4.3711,4.3711,4.3711,4.3711,4.3711,4.3711,4.3711,4.3711,4.3711,4.3711,4.3711,4.3711,4.3711,4.3711,4.3711,4.3711,4.338,4.338,4.3253,4.2926,4.3084,4.3326,4.2436,4.1675,4.0532,3.871,3.6514,3.4478,3.354,3.2421,3.1664,3.1664,3.1664,3.1664,3.1664,3.1664,3.1664,3.1664,3.1664,3.1664,3.1664,3.1664,3.1664,3.1664,3.177,3.1851,3.1851,3.1957,3.1984,3.1864,3.1851,3.1797,3.1677,3.1664,3.1664,3.1664,3.1664,3.1664,3.1664,3.1664,3.1664,3.1664,3.1664,3.1664,3.1664,3.1664,3.1664,3.1664,3.1664,3.161,3.1476,3.1303,3.0915,3.5131,3.4969,3.4707,3.4707,3.5039,0.0,3.5859,3.6934,3.8066,0.0,0.0,0.0,0.0,0.0,0.0,0.0,4.4872,4.6574,5.0362,5.1293,5.1954,5.2869,5.3346,5.3672,5.3672,5.3346,5.2892,5.213,5.1185,4.945,4.6629,4.5169,4.437,4.3876,4.3711,4.3711,4.3711,4.3711,4.3711,4.3711,4.3711,4.3711,4.3711,4.3711,4.3711,4.3711,4.3711,4.3711,4.3711,4.3711,4.3711,4.3711,4.3711,4.3711,4.3711,4.3711,4.3711,4.3769,4.4238,4.433,4.4414,4.4299,4.2937,4.1273,3.9623,3.7238,3.4666,3.354,3.2421,3.1664,3.1664,3.1664,3.1664,3.1664,3.1664,3.1664,3.1664,3.1664,3.1677,3.1717,3.169,3.1677,3.1717,3.1931,3.2118,3.2144,3.2372,3.2438,3.2144,3.2104,3.1984,3.1704,3.1664,3.1664,3.1664,3.1664,3.1664,3.1664,3.1664,3.1664,3.1664,3.1664,3.1664,3.1664,3.1664,3.1664,3.1664,3.1664,3.153,3.1276,3.1276,3.0982,3.5361,3.4969,3.4707,3.4707,3.5039,0.0,3.5488,3.6504,3.7461,0.0,0.0,0.0,0.0,0.0,0.0,4.2126,4.2701,4.4345,4.7809,4.8894,4.992,5.1447,5.2107,5.2436,5.274,5.3346,5.3346,5.2588,5.1053,4.9337,4.7432,4.6144,4.5025,4.437,4.3876,4.3711,4.3711,4.3711,4.3711,4.3711,4.3711,4.3711,4.3711,4.3711,4.3711,4.3711,4.3711,4.3711,4.3711,4.3711,4.3711,4.3711,4.3711,4.3711,4.3711,4.3711,4.3711,4.3769,4.4238,4.4668,4.4756,4.4299,4.3644,4.2533,3.9805,3.7791,3.5957,3.3351,3.2232,3.1664,3.1664,3.1664,3.1664,3.1664,3.1664,3.1664,3.1664,3.1664,3.1744,3.1971,3.1824,3.1744,3.1971,3.2064,3.2185,3.2425,3.2505,3.2438,3.2144,3.2104,3.1984,3.1704,3.1664,3.1664,3.1664,3.1664,3.1664,3.1664,3.1664,3.1664,3.1664,3.1664,3.1664,3.1664,3.1664,3.1664,3.1664,3.1664,3.1637,3.1583,3.1583,3.1396,3.6282,3.5593,3.5039,3.5039,0.0,0.0,0.0,3.5547,3.6074,3.6289,3.7187,3.7949,3.7949,0.0,3.9355,4.0105,4.0735,4.2062,4.4308,4.5953,4.7669,4.954,5.0007,5.058,5.1754,5.2565,5.274,5.2612,5.0898,4.9179,4.7911,4.6326,4.5025,4.437,4.3876,4.3711,4.3711,4.3711,4.3711,4.3711,4.3711,4.3711,4.3711,4.3711,4.3711,4.3711,4.3711,4.3711,4.3711,4.3711,4.3711,4.3711,4.3711,4.3711,4.3711,4.3711,4.3711,4.3808,4.4473,4.4844,4.4966,4.472,4.4007,4.2891,4.0549,3.8359,3.6158,3.3728,3.2974,3.2611,3.2232,3.2043,3.2043,3.1664,3.1664,3.1664,3.1664,3.1784,3.1931,3.2078,3.1984,3.1984,3.2278,3.2438,3.2585,3.2746,3.2759,3.2652,3.2358,3.2198,3.1984,3.1704,3.1664,3.1664,3.1664,3.1664,3.1664,3.1664,3.1664,3.1664,3.1664,3.1664,3.1664,3.1664,3.1664,3.1664,3.1664,3.1664,3.1664,3.1664,3.1664,3.1517,3.7746,3.6809,3.5992,0.0,0.0,3.4642,0.0,0.0,0.0,3.5176,3.5801,0.0,0.0,0.0,0.0,0.0,0.0,0.0,0.0,4.2685,0.0,4.7145,4.7518,4.8189,5.0027,5.0734,5.137,5.1827,5.023,4.8868,4.81,4.6264,4.4882,4.4534,4.4041,4.3711,4.3711,4.3711,4.3711,4.3711,4.3711,4.3711,4.3711,4.3711,4.3711,4.3711,4.3711,4.3711,4.3711,4.3711,4.3711,4.3711,4.3711,4.3711,4.3711,4.3711,4.3711,4.3828,4.4726,4.5019,4.4985,4.4987,4.4174,4.2891,4.1291,3.8742,3.6158,3.5025,3.4464,3.3916,3.3163,3.2786,3.2408,3.2043,3.1853,3.1664,3.1664,3.1851,3.2038,3.2091,3.2104,3.2211,3.2572,3.2732,3.2853,3.2959,3.2933,3.2786,3.2492,3.2251,3.1984,3.1704,3.1664,3.1664,3.1664,3.1664,3.1664,3.1664,3.1664,3.1664,3.1664,3.1664,3.1664,3.1664,3.1664,3.1664,3.1664,3.1664,3.1664,3.1664,3.1664,3.1543,0.0,0.0,0.0,0.0,3.6677,0.0,0.0,0.0,3.4726,3.4766,0.0,0.0,0.0,0.0,0.0,0.0,0.0,0.0,3.9258,3.9328,4.0634,4.4324,4.4868,4.523,4.6315,4.7421,4.8319,4.9102,4.8587,4.8052,4.7604,4.6399,4.5352,4.4882,4.4205,4.3711,4.3711,4.3711,4.3711,4.3711,4.3711,4.3711,4.3711,4.3711,4.3711,4.3711,4.3711,4.3711,4.3711,4.3711,4.3711,4.3711,4.3711,4.3711,4.3711,4.3711,4.3711,4.3828,4.4726,4.5019,4.4985,4.5318,4.3978,4.1994,4.1471,3.9458,3.7439,3.7254,3.6328,3.504,3.4666,3.3728,3.2974,3.2421,3.2043,3.1664,3.1664,3.169,3.1797,3.2051,3.2104,3.2278,3.2839,3.2532,3.2385,3.2906,3.2759,3.2492,3.2185,3.2118,3.1984,3.1704,3.1664,3.1664,3.1664,3.1664,3.1664,3.1664,3.1664,3.1664,3.1664,3.1664,3.1664,3.1664,3.1664,3.1664,3.1664,3.1664,3.1664,3.1664,3.1664,3.165,4.0541,0.0,0.0,0.0,0.0,0.0,3.5152,0.0,3.4336,0.0,0.0,0.0,0.0,0.0,0.0,0.0,3.666,0.0,0.0,0.0,3.9275,4.2402,0.0,0.0,4.5316,4.6702,4.7525,4.7835,4.7506,4.716,4.6699,4.6016,4.529,4.4663,4.4251,4.4041,4.3711,4.3711,4.3711,4.3711,4.3711,4.3711,4.3711,4.3711,4.3711,4.3711,4.3711,4.3711,4.3711,4.3711,4.3711,4.3711,4.3711,4.3711,4.3711,4.3711,4.3711,4.3789,4.4433,4.4824,4.5005,4.5493,4.451,4.3248,4.2712,4.1634,4.0351,3.9441,3.871,3.7623,3.6328,3.5226,3.4291,3.3163,3.2421,3.2043,3.1664,3.1797,3.1957,3.2078,3.2104,3.2238,3.2652,3.2519,3.2452,3.2692,3.2478,3.2238,3.2118,3.1957,3.1797,3.1677,3.1664,3.1664,3.1664,3.1664,3.1664,3.1664,3.1664,3.1664,3.1664,3.1664,3.1664,3.1664,3.1664,3.1664,3.1664,3.1664,3.1664,3.1664,3.1664,3.1664,4.2333,0.0,0.0,0.0,0.0,0.0,0.0,0.0,0.0,0.0,0.0,0.0,0.0,0.0,3.5351,3.5781,0.0,3.6543,0.0,3.7252,0.0,0.0,0.0,0.0,0.0,4.5701,4.647,4.6681,4.6365,4.6245,4.6225,4.5771,4.5333,4.4681,4.4341,4.4013,4.3523,4.3476,4.3535,4.3535,4.3652,4.3711,4.3711,4.3711,4.3711,4.3711,4.3711,4.3711,4.3711,4.3711,4.3711,4.3711,4.3711,4.3711,4.3711,4.3711,4.3711,4.3769,4.4238,4.4746,4.5332,4.5706,4.5236,4.451,4.4156,4.3623,4.2909,4.1796,4.0894,3.9987,3.8343,3.6884,3.5584,3.4103,3.3351,3.2597,3.2043,3.2028,3.2176,3.1984,3.1984,3.2051,3.2265,3.2305,3.2332,3.2412,3.2171,3.1984,3.1984,3.1797,3.1664,3.1664,3.1664,3.1664,3.1664,3.1664,3.1664,3.1664,3.1664,3.1664,3.1664,3.1664,3.1664,3.1664,3.1664,3.1664,3.1664,3.1664,3.1664,3.1664,3.1664,3.1664,0.0,0.0,0.0,4.092,0.0,0.0,0.0,0.0,3.4316,0.0,3.5,3.4844,3.5293,3.5019,3.4883,3.5332,3.543,0.0,0.0,3.5736,0.0,0.0,0.0,0.0,0.0,4.3601,4.4337,0.0,4.5209,4.5544,4.647,4.5728,4.5433,4.543,4.4351,4.3579,4.3101,4.3052,4.3105,4.3105,4.3516,4.3711,4.3711,4.3711,4.3711,4.3711,4.3711,4.3711,4.3711,4.3711,4.3711,4.3711,4.3711,4.3711,4.3711,4.3711,4.3711,4.3769,4.4238,4.4941,4.5723,4.6152,4.5958,4.5607,4.5588,4.4883,4.4156,4.4156,4.3069,4.1616,4.0713,3.8893,3.7254,3.56,3.4666,3.354,3.2597,3.2421,3.2246,3.1867,3.1677,3.169,3.169,3.1704,3.1797,3.2078,3.1864,3.1677,3.1677,3.1677,3.1664,3.1664,3.1664,3.1664,3.1664,3.1664,3.1664,3.1664,3.1664,3.1664,3.1664,3.1664,3.1664,3.1664,3.1664,3.1664,3.1664,3.1664,3.1664,3.1664,3.1664,3.1664,0.0,0.0,4.4425,4.1848,0.0,0.0,0.0,0.0,0.0,0.0,3.6523,3.6543,3.6992,3.6719,3.6387,3.625,3.625,3.6035,0.0,3.6173,0.0,0.0,0.0,0.0,0.0,0.0,4.4868,4.4841,4.5439,0.0,4.559,4.6435,4.6264,4.4926,4.4608,4.3994,4.3061,4.3033,4.3086,4.3086,4.3496,4.3711,4.3711,4.3711,4.3711,4.3711,4.3711,4.3711,4.3711,4.3711,4.3711,4.3711,4.3711,4.3711,4.3711,4.3711,4.3711,4.3808,4.4551,4.5,4.5351,4.6074,4.6133,4.6133,4.6133,4.5763,4.5588,4.5236,4.4529,4.3623,4.2353,4.1093,3.964,3.7791,3.6684,3.5584,3.4291,3.3351,3.28,3.2232,3.1853,3.1664,3.1664,3.1664,3.1704,3.1797,3.173,3.1664,3.1664,3.1664,3.1664,3.1664,3.1664,3.1664,3.1664,3.1664,3.1664,3.1664,3.1664,3.1664,3.1664,3.1664,3.1664,3.1664,3.1664,3.1664,3.1664,3.1664,3.1664,3.1664,3.1664,3.1664,4.9388,4.81,0.0,4.3664,4.1221,0.0,3.7946,0.0,3.6934,0.0,3.7851,3.7832,3.8105,3.7676,3.7168,3.6738,3.6543,3.6269,0.0,3.6439,3.772,0.0,0.0,0.0,4.3947,4.4888,4.5444,4.5113,4.5728,4.6115,0.0,4.6841,4.6803,4.5675,4.5404,4.4753,4.3685,4.336,4.3339,4.3498,4.3608,4.3739,4.3876,4.3711,4.3711,4.3711,4.3711,4.3711,4.3711,4.3711,4.3711,4.3711,4.3711,4.3711,4.3711,4.3711,4.3711,4.3828,4.4726,4.5019,4.5156,4.6016,4.6308,4.6308,4.6308,4.6308,4.6308,4.5958,4.5431,4.4902,4.3819,4.273,4.1634,3.9805,3.871,3.7423,3.5771,3.4666,3.3728,3.2786,3.2232,3.1853,3.1664,3.1664,3.1664,3.1664,3.1664,3.1664,3.1664,3.1664,3.1664,3.1664,3.1664,3.1664,3.1664,3.1664,3.1664,3.1664,3.1664,3.1664,3.1664,3.1664,3.1664,3.1664,3.1664,3.1664,3.1664,3.1664,3.1664,3.1664,3.1664,3.1664]},{"header":{"parameterUnit":"m.s-1","parameterCategory":1,"la1":30.6,"la2":29.2853,"lo1":-89.7004,"lo2":-87.6739,"dy":0.0162,"dx":0.0183,"nx":112,"ny":82,"refTime":"2025-03-16T06:00:00:Z","depth":0,"parameterNumber":3,"parameterNumberName":"V-component_of_WINDS"},"data":[0.0,0.0,0.0,0.0,0.0,0.0,0.0,0.0,0.0,0.0,0.0,0.0,0.0,0.0,0.0,0.0,0.0,0.0,0.0,0.0,0.0,0.0,0.0,0.0,0.0,0.0,0.0,0.0,0.0,0.0,0.0,0.0,0.0,0.0,0.0,0.0,0.0,0.0,0.0,0.0,0.0,0.0,0.0,0.0,0.0,0.0,0.0,0.0,0.0,0.0,0.0,0.0,0.0,0.0,0.0,0.0,0.0,0.0,0.0,0.0,0.0,0.0,0.0,0.0,0.0,0.0,0.0,0.0,0.0,0.0,0.0,0.0,0.0,0.0,0.0,0.0,0.0,0.0,0.0,0.0,0.0,0.0,0.0,0.0,0.0,0.0,0.0,0.0,0.0,0.0,-5.4107,-5.6503,-6.0358,-6.2475,-6.1667,-6.086,-5.9098,-5.5978,0.0,0.0,0.0,0.0,0.0,0.0,0.0,0.0,0.0,0.0,0.0,0.0,0.0,0.0,0.0,0.0,0.0,0.0,0.0,0.0,0.0,0.0,0.0,0.0,0.0,0.0,0.0,0.0,0.0,0.0,0.0,0.0,0.0,0.0,0.0,0.0,0.0,0.0,0.0,0.0,0.0,0.0,0.0,0.0,0.0,0.0,0.0,0.0,0.0,0.0,0.0,0.0,0.0,0.0,0.0,0.0,0.0,0.0,0.0,0.0,0.0,0.0,0.0,0.0,0.0,0.0,0.0,0.0,0.0,0.0,0.0,0.0,0.0,0.0,0.0,0.0,0.0,0.0,0.0,0.0,0.0,0.0,0.0,0.0,0.0,0.0,0.0,0.0,0.0,0.0,0.0,0.0,0.0,0.0,0.0,0.0,0.0,0.0,0.0,0.0,0.0,0.0,0.0,0.0,-5.5015,-5.914,-6.1532,-6.2475,-6.1667,-6.086,-5.9318,-5.6785,0.0,0.0,0.0,0.0,0.0,0.0,0.0,0.0,0.0,0.0,0.0,0.0,0.0,0.0,0.0,0.0,0.0,0.0,0.0,0.0,0.0,0.0,0.0,0.0,0.0,0.0,0.0,0.0,0.0,0.0,0.0,0.0,0.0,0.0,0.0,0.0,0.0,0.0,0.0,0.0,0.0,0.0,0.0,0.0,0.0,0.0,0.0,0.0,0.0,0.0,0.0,0.0,0.0,0.0,0.0,0.0,0.0,0.0,0.0,0.0,0.0,0.0,0.0,0.0,0.0,0.0,0.0,0.0,0.0,0.0,0.0,0.0,0.0,0.0,0.0,0.0,0.0,0.0,0.0,0.0,0.0,0.0,0.0,0.0,0.0,0.0,0.0,0.0,0.0,0.0,0.0,0.0,0.0,0.0,0.0,0.0,0.0,0.0,0.0,0.0,0.0,0.0,0.0,-5.4243,-5.6867,-5.9896,-6.1349,-6.1814,-6.1006,-5.9795,-5.8253,-5.6271,-5.3885,0.0,0.0,0.0,0.0,0.0,0.0,0.0,0.0,0.0,0.0,0.0,0.0,0.0,0.0,0.0,0.0,0.0,0.0,0.0,0.0,0.0,0.0,0.0,0.0,0.0,0.0,0.0,0.0,0.0,0.0,0.0,0.0,0.0,0.0,0.0,0.0,0.0,0.0,0.0,0.0,0.0,0.0,0.0,0.0,0.0,0.0,0.0,0.0,0.0,0.0,0.0,0.0,0.0,0.0,0.0,0.0,0.0,0.0,0.0,0.0,0.0,0.0,0.0,0.0,0.0,0.0,0.0,0.0,0.0,0.0,0.0,0.0,0.0,0.0,0.0,0.0,0.0,0.0,0.0,0.0,0.0,0.0,0.0,0.0,0.0,0.0,0.0,0.0,0.0,0.0,0.0,0.0,0.0,0.0,0.0,0.0,0.0,0.0,0.0,0.0,0.0,0.0,-5.6186,-5.8446,-5.9835,-6.0958,-6.119,-6.0199,-5.8804,-5.7226,-5.5427,-5.3225,0.0,0.0,0.0,0.0,0.0,0.0,0.0,0.0,0.0,0.0,0.0,0.0,0.0,0.0,0.0,0.0,0.0,0.0,0.0,0.0,0.0,0.0,0.0,0.0,0.0,0.0,0.0,0.0,0.0,0.0,0.0,0.0,0.0,0.0,0.0,0.0,0.0,0.0,0.0,0.0,0.0,0.0,0.0,0.0,0.0,0.0,0.0,0.0,0.0,0.0,0.0,0.0,0.0,0.0,0.0,0.0,0.0,0.0,0.0,0.0,0.0,0.0,0.0,0.0,0.0,0.0,0.0,0.0,0.0,0.0,0.0,0.0,0.0,0.0,0.0,0.0,0.0,0.0,0.0,0.0,0.0,0.0,0.0,0.0,0.0,0.0,0.0,0.0,0.0,0.0,0.0,0.0,0.0,0.0,0.0,0.0,0.0,0.0,0.0,0.0,0.0,0.0,-5.6922,-5.9029,-5.9234,-6.0676,-6.097,-5.9428,-5.851,-5.7005,-5.462,-5.2931,0.0,0.0,0.0,0.0,0.0,0.0,0.0,0.0,0.0,0.0,0.0,0.0,0.0,0.0,0.0,0.0,0.0,0.0,0.0,0.0,0.0,0.0,0.0,0.0,0.0,0.0,0.0,0.0,0.0,0.0,0.0,0.0,0.0,0.0,0.0,0.0,0.0,0.0,0.0,0.0,0.0,0.0,0.0,0.0,0.0,0.0,0.0,0.0,0.0,0.0,0.0,0.0,0.0,0.0,0.0,0.0,0.0,0.0,0.0,0.0,0.0,0.0,0.0,0.0,0.0,0.0,0.0,0.0,0.0,0.0,0.0,0.0,0.0,0.0,0.0,0.0,0.0,0.0,0.0,0.0,0.0,0.0,0.0,0.0,0.0,0.0,0.0,0.0,0.0,0.0,0.0,0.0,0.0,0.0,0.0,0.0,0.0,0.0,0.0,0.0,0.0,0.0,-5.7427,-5.9344,-5.9905,-6.0493,-6.0419,-5.9318,-5.7556,-5.5904,-5.4473,0.0,0.0,0.0,0.0,0.0,0.0,0.0,0.0,0.0,0.0,0.0,0.0,0.0,0.0,0.0,0.0,0.0,0.0,0.0,0.0,0.0,0.0,0.0,0.0,0.0,0.0,0.0,0.0,0.0,0.0,0.0,0.0,0.0,0.0,0.0,0.0,0.0,0.0,0.0,0.0,0.0,0.0,0.0,0.0,0.0,0.0,0.0,0.0,0.0,0.0,0.0,0.0,0.0,0.0,0.0,0.0,0.0,0.0,0.0,0.0,0.0,0.0,0.0,0.0,0.0,0.0,0.0,0.0,0.0,0.0,0.0,0.0,0.0,0.0,0.0,0.0,0.0,0.0,0.0,0.0,0.0,0.0,0.0,0.0,0.0,0.0,0.0,0.0,0.0,0.0,0.0,0.0,0.0,0.0,0.0,0.0,0.0,0.0,0.0,0.0,0.0,0.0,-5.4913,-5.7556,-5.9538,-6.0309,-6.0419,-6.0089,-5.9281,-5.7051,-5.5177,-5.4112,0.0,0.0,0.0,0.0,0.0,0.0,0.0,0.0,0.0,0.0,0.0,0.0,0.0,0.0,0.0,0.0,0.0,0.0,0.0,0.0,0.0,0.0,0.0,0.0,0.0,0.0,0.0,0.0,0.0,0.0,0.0,0.0,0.0,0.0,0.0,0.0,0.0,0.0,0.0,0.0,0.0,0.0,0.0,0.0,0.0,0.0,0.0,0.0,0.0,0.0,0.0,0.0,0.0,0.0,0.0,0.0,0.0,0.0,0.0,0.0,0.0,0.0,0.0,0.0,0.0,0.0,0.0,0.0,0.0,0.0,0.0,0.0,0.0,0.0,0.0,0.0,0.0,0.0,0.0,0.0,0.0,0.0,0.0,0.0,0.0,0.0,0.0,0.0,0.0,0.0,0.0,0.0,0.0,0.0,0.0,0.0,0.0,0.0,0.0,0.0,0.0,0.0,-5.4216,-5.7226,-5.9538,-6.0346,-6.0419,-6.0089,-5.9281,-5.7132,-5.5122,0.0,0.0,0.0,0.0,0.0,0.0,0.0,0.0,0.0,0.0,0.0,0.0,0.0,0.0,0.0,0.0,0.0,0.0,0.0,0.0,0.0,0.0,0.0,0.0,0.0,0.0,0.0,0.0,0.0,0.0,0.0,0.0,0.0,0.0,0.0,0.0,0.0,0.0,0.0,0.0,0.0,0.0,0.0,0.0,0.0,0.0,0.0,0.0,0.0,0.0,0.0,0.0,0.0,0.0,0.0,0.0,0.0,0.0,0.0,0.0,0.0,0.0,0.0,0.0,0.0,0.0,0.0,0.0,0.0,0.0,0.0,0.0,0.0,0.0,0.0,0.0,0.0,0.0,0.0,0.0,0.0,0.0,0.0,0.0,0.0,0.0,0.0,0.0,0.0,0.0,0.0,0.0,0.0,0.0,0.0,0.0,0.0,0.0,0.0,0.0,0.0,0.0,0.0,-5.5757,-5.84,-6.0346,-6.1153,-6.1263,-6.0724,-5.9458,-5.7744,-5.5808,-5.3711,0.0,0.0,0.0,0.0,0.0,0.0,0.0,0.0,0.0,0.0,0.0,0.0,0.0,0.0,0.0,0.0,0.0,0.0,0.0,0.0,0.0,0.0,0.0,0.0,0.0,0.0,0.0,0.0,0.0,0.0,0.0,0.0,0.0,0.0,0.0,0.0,0.0,0.0,0.0,0.0,0.0,0.0,0.0,0.0,0.0,0.0,0.0,0.0,0.0,0.0,0.0,0.0,0.0,0.0,0.0,0.0,0.0,0.0,0.0,0.0,0.0,0.0,0.0,0.0,0.0,0.0,0.0,0.0,0.0,0.0,0.0,0.0,0.0,0.0,0.0,0.0,0.0,0.0,0.0,0.0,0.0,0.0,0.0,0.0,0.0,0.0,0.0,0.0,0.0,0.0,0.0,0.0,0.0,0.0,0.0,0.0,0.0,0.0,0.0,0.0,0.0,0.0,-5.6197,-5.8923,-6.1098,-6.2251,-6.2113,-6.156,-6.0654,-5.89,-5.6878,-5.4541,0.0,0.0,0.0,0.0,0.0,0.0,0.0,0.0,0.0,0.0,0.0,0.0,0.0,0.0,0.0,0.0,0.0,0.0,0.0,0.0,0.0,0.0,0.0,0.0,0.0,0.0,0.0,0.0,0.0,0.0,0.0,0.0,0.0,0.0,0.0,0.0,0.0,0.0,0.0,0.0,0.0,0.0,0.0,0.0,0.0,0.0,0.0,0.0,0.0,0.0,0.0,0.0,0.0,0.0,0.0,0.0,0.0,0.0,0.0,0.0,0.0,0.0,0.0,0.0,0.0,0.0,0.0,0.0,0.0,0.0,0.0,0.0,0.0,0.0,0.0,0.0,0.0,0.0,0.0,0.0,0.0,0.0,0.0,0.0,0.0,0.0,0.0,0.0,0.0,0.0,0.0,0.0,0.0,0.0,0.0,0.0,0.0,0.0,0.0,0.0,0.0,0.0,-5.6014,-5.9054,-6.1693,-6.3416,-6.2978,-6.2494,-6.2464,-6.0397,-5.8127,-5.573,0.0,0.0,0.0,0.0,0.0,0.0,0.0,0.0,0.0,0.0,0.0,0.0,0.0,0.0,0.0,0.0,0.0,0.0,0.0,0.0,0.0,0.0,0.0,0.0,0.0,0.0,0.0,0.0,0.0,0.0,0.0,0.0,0.0,0.0,0.0,0.0,0.0,0.0,0.0,0.0,0.0,0.0,0.0,0.0,0.0,0.0,0.0,0.0,0.0,0.0,0.0,0.0,0.0,0.0,0.0,0.0,0.0,0.0,0.0,0.0,-5.3719,0.0,0.0,0.0,0.0,0.0,0.0,0.0,0.0,0.0,0.0,0.0,0.0,0.0,0.0,0.0,0.0,0.0,0.0,0.0,0.0,0.0,0.0,0.0,0.0,0.0,0.0,0.0,0.0,0.0,0.0,0.0,0.0,0.0,0.0,0.0,0.0,0.0,0.0,0.0,0.0,0.0,-5.6923,-5.9644,-6.1964,-6.3643,-6.3686,-6.3392,-6.2925,-6.1242,-5.9321,-5.7094,-5.4078,0.0,0.0,0.0,0.0,0.0,0.0,0.0,0.0,0.0,0.0,0.0,0.0,0.0,0.0,0.0,0.0,0.0,0.0,0.0,0.0,0.0,0.0,0.0,0.0,0.0,0.0,0.0,0.0,0.0,0.0,0.0,0.0,0.0,0.0,0.0,0.0,0.0,0.0,0.0,0.0,0.0,0.0,0.0,0.0,0.0,0.0,0.0,0.0,0.0,0.0,0.0,0.0,0.0,0.0,0.0,0.0,0.0,0.0,0.0,0.0,-5.6064,0.0,0.0,0.0,0.0,0.0,0.0,0.0,0.0,0.0,0.0,0.0,0.0,0.0,0.0,0.0,0.0,0.0,0.0,0.0,0.0,0.0,0.0,0.0,0.0,0.0,0.0,0.0,0.0,0.0,0.0,0.0,0.0,0.0,0.0,0.0,0.0,0.0,0.0,0.0,0.0,-5.7672,-6.0265,-6.2523,-6.4294,-6.4483,-6.4369,-6.4064,-6.2924,-6.124,-5.8948,-5.6191,0.0,0.0,0.0,0.0,0.0,0.0,0.0,0.0,0.0,0.0,0.0,0.0,0.0,0.0,0.0,0.0,0.0,0.0,0.0,0.0,0.0,0.0,0.0,0.0,0.0,0.0,0.0,0.0,0.0,0.0,0.0,0.0,0.0,0.0,0.0,0.0,0.0,0.0,0.0,0.0,0.0,0.0,0.0,0.0,0.0,0.0,0.0,0.0,0.0,0.0,0.0,0.0,0.0,-6.2038,-6.2446,-6.2775,-6.3324,-6.3757,-6.3903,-6.1291,-5.9661,-5.8769,-5.863,0.0,0.0,0.0,0.0,0.0,0.0,0.0,0.0,0.0,0.0,0.0,0.0,0.0,0.0,0.0,0.0,0.0,0.0,0.0,0.0,0.0,0.0,-5.6284,-5.8066,-5.807,-5.6919,-5.4123,0.0,0.0,0.0,0.0,0.0,0.0,0.0,0.0,0.0,0.0,0.0,-5.8508,-6.0931,-6.3161,-6.5155,-6.5378,-6.5416,-6.5569,-6.4787,-6.3359,-6.119,-5.8655,-5.6222,0.0,0.0,0.0,0.0,0.0,0.0,0.0,0.0,0.0,0.0,0.0,0.0,0.0,0.0,0.0,0.0,0.0,0.0,0.0,0.0,0.0,0.0,0.0,0.0,0.0,0.0,0.0,0.0,0.0,0.0,0.0,0.0,-6.2881,-6.3584,0.0,0.0,0.0,0.0,0.0,0.0,0.0,0.0,0.0,0.0,0.0,0.0,0.0,-6.1366,-6.2076,-6.2076,-6.2482,-6.3226,-6.4268,-6.5231,-6.6083,-6.7475,-6.8386,-6.8785,-6.882,0.0,-6.2266,-6.1673,0.0,0.0,0.0,0.0,0.0,0.0,0.0,0.0,0.0,0.0,0.0,0.0,0.0,0.0,0.0,0.0,0.0,0.0,0.0,0.0,0.0,0.0,-6.0404,-6.1374,-6.1744,-6.1591,-6.0556,-5.7299,-5.4392,-5.3781,-5.2494,-5.1538,0.0,0.0,0.0,0.0,0.0,0.0,-5.9655,-6.1658,-6.3749,-6.6147,-6.6376,-6.6713,-6.7569,-6.6192,-6.491,-6.4013,-6.0852,-5.8289,-5.6566,-5.4049,0.0,0.0,0.0,0.0,0.0,0.0,0.0,0.0,0.0,0.0,0.0,0.0,0.0,0.0,0.0,0.0,0.0,0.0,0.0,0.0,0.0,0.0,0.0,0.0,0.0,0.0,0.0,0.0,0.0,-6.302,-6.3444,-6.4267,-6.3694,-6.3391,0.0,0.0,0.0,0.0,0.0,0.0,0.0,0.0,0.0,-6.3125,-6.3565,-6.414,-6.4884,-6.4884,-6.5256,-6.5967,-6.667,-6.7544,-6.8589,-7.0035,-7.1042,-7.1646,-7.2228,-7.1123,-6.8709,-6.6576,-6.4266,-6.1991,0.0,0.0,0.0,0.0,-5.9009,-5.9102,-5.9741,-5.9744,-5.9637,-6.0177,0.0,0.0,0.0,0.0,0.0,0.0,0.0,-5.9059,-6.0252,-6.198,-6.3562,-6.4513,-6.487,-6.5041,-6.4936,-6.3084,-6.0402,-5.6809,-5.5572,-5.4895,-5.4123,-5.372,0.0,0.0,0.0,-5.896,-6.154,-6.3406,-6.5339,-6.74,-6.7592,-6.7812,-6.8185,-6.7571,-6.6792,-6.6,-6.3655,-6.1796,-6.0589,-5.7665,-5.5241,0.0,0.0,0.0,0.0,0.0,0.0,0.0,0.0,0.0,0.0,0.0,0.0,0.0,0.0,0.0,0.0,0.0,0.0,0.0,0.0,0.0,0.0,0.0,0.0,0.0,0.0,0.0,0.0,-6.4241,-6.4715,-6.5628,-6.4918,-6.4647,0.0,0.0,0.0,0.0,0.0,0.0,-6.4343,-6.4546,-6.4986,-6.573,-6.6474,-6.7218,-6.7963,-6.7963,-6.8233,-6.8774,-6.9237,-6.9868,-7.0839,-7.2264,-7.3263,-7.3892,-7.4684,-7.4726,-7.4172,-7.0966,-6.793,-6.5226,-6.5226,-6.4311,-6.2939,-6.2996,-6.3052,-6.3108,-6.3256,-6.3311,-6.3439,-6.3345,-6.2398,-6.1261,-6.1189,0.0,0.0,0.0,0.0,-6.2745,-6.3306,-6.4813,-6.6322,-6.7045,-6.7503,-6.777,-6.7908,-6.7512,-6.5595,-6.0213,-5.9112,-5.8536,-5.6907,-5.6665,0.0,-5.767,-5.9166,-6.1032,-6.3284,-6.5051,-6.6807,-6.8552,-6.8744,-6.8821,-6.9013,-6.8859,-6.8475,-6.7821,-6.5974,-6.4628,-6.4012,-6.0935,-5.8434,-5.6703,0.0,0.0,0.0,0.0,0.0,0.0,0.0,0.0,0.0,0.0,0.0,0.0,0.0,0.0,0.0,0.0,0.0,0.0,0.0,0.0,0.0,0.0,0.0,0.0,0.0,0.0,0.0,0.0,0.0,-6.8707,-6.7557,0.0,0.0,0.0,0.0,-6.6643,-6.6677,-6.6643,-6.6643,-6.732,-6.8064,-6.8842,-6.9586,-7.0331,-7.1075,-7.1075,-7.1109,-7.1142,-7.1999,-7.2607,-7.303,-7.4361,-7.5387,-7.6127,-7.7108,-7.7416,-7.6968,-7.3652,-7.097,-6.8947,-6.8947,-6.7969,-6.6555,-6.6671,-6.6728,-6.6785,-6.7103,-6.725,-6.7158,-6.6654,-6.5716,-6.4673,-6.3653,-6.3946,0.0,0.0,-6.4818,-6.615,-6.6188,-6.741,-6.8628,-6.8666,-6.9382,-6.9866,-6.9164,-6.9138,-6.8224,-6.4652,-6.3274,-6.2257,-6.0699,0.0,-6.0479,-6.0565,-6.2026,-6.3449,-6.4436,-6.6013,-6.7705,-6.9436,-6.9629,-6.9937,-7.0706,-7.0052,-6.9629,-6.959,-6.7205,-6.582,-6.5782,-6.3281,-6.1089,-5.9358,-5.7627,0.0,0.0,0.0,0.0,0.0,0.0,0.0,0.0,0.0,0.0,0.0,0.0,0.0,0.0,0.0,0.0,0.0,0.0,0.0,0.0,0.0,0.0,0.0,0.0,0.0,0.0,0.0,0.0,-6.9553,-6.891,0.0,-6.9992,-6.918,-6.891,-6.9654,-6.9722,-6.9722,-6.9722,-7.0398,-7.0939,-7.121,-7.1921,-7.2428,-7.2699,-7.2699,-7.2699,-7.2699,-7.3061,-7.3379,-7.3685,-7.4727,-7.5777,-7.6545,-7.7329,-7.8084,-7.8636,-7.7181,-7.5152,-7.2825,-7.2313,-7.1436,-7.0485,-7.0543,-7.0543,-7.047,-7.0071,-6.9981,-6.9779,-6.8962,-6.8406,-6.7877,-6.705,-6.684,-6.6777,-6.6536,-6.7299,-6.8215,-6.8215,-6.9017,-6.9857,-6.9851,-7.0151,-7.0369,-7.0218,-7.0239,-6.9798,-6.8098,-6.66,-6.532,-6.4257,-6.4064,-6.4064,-6.4089,-6.5013,-6.6051,-6.6936,-6.8052,-6.9206,-7.036,-7.0475,-7.0618,-7.0914,-7.0683,-7.0324,-6.9874,-6.8448,-6.7369,-6.683,-6.4864,-6.3037,-6.1241,-5.9562,-5.6999,0.0,0.0,0.0,0.0,0.0,0.0,0.0,0.0,0.0,0.0,0.0,0.0,0.0,0.0,0.0,0.0,0.0,0.0,0.0,0.0,0.0,0.0,0.0,0.0,0.0,0.0,-6.918,-7.1413,-7.1041,-7.1075,-7.2293,-7.1751,-7.1515,-7.2022,-7.2056,-7.2056,-7.2056,-7.2732,-7.3138,-7.3138,-7.3849,-7.4221,-7.4221,-7.4221,-7.4221,-7.4221,-7.4314,-7.4441,-7.466,-7.5561,-7.6395,-7.7093,-7.7896,-7.8895,-7.9865,-7.9562,-7.8252,-7.646,-7.5359,-7.4258,-7.3303,-7.3303,-7.3303,-7.3193,-7.2386,-7.2002,-7.1692,-7.0933,-7.0586,-7.0342,-6.9849,-6.948,-6.9207,-6.9,-6.9344,-6.9774,-6.9774,-7.0157,-7.0609,-7.0601,-7.0631,-7.0661,-7.0815,-7.0815,-7.0689,-7.0206,-6.8936,-6.7705,-6.6898,-6.6744,-6.6744,-6.6744,-6.7436,-6.8205,-6.8783,-6.959,-7.0321,-7.0821,-7.0925,-7.0952,-7.103,-7.0811,-7.0435,-6.9965,-6.8883,-6.8017,-6.7437,-6.6067,-6.4616,-6.3186,-6.0864,-5.7968,-5.4535,0.0,0.0,0.0,0.0,0.0,0.0,0.0,0.0,0.0,0.0,0.0,0.0,0.0,0.0,0.0,0.0,0.0,0.0,0.0,0.0,0.0,0.0,0.0,-6.9045,-7.0432,-7.2191,-7.439,-7.4018,-7.3883,-7.4627,-7.4052,-7.3612,-7.3578,-7.3578,-7.3578,-7.3544,-7.4255,-7.4661,-7.4661,-7.5337,-7.5709,-7.5709,-7.5709,-7.5709,-7.5709,-7.5994,-7.6122,-7.6122,-7.6918,-7.7456,-7.798,-7.9034,-7.9947,-8.0695,-8.0535,-8.0173,-7.9653,-7.8002,-7.6387,-7.4992,-7.4992,-7.4955,-7.4845,-7.4037,-7.3403,-7.2889,-7.2572,-7.2274,-7.2003,-7.1852,-7.1854,-7.1812,-7.1151,-7.0975,-7.0975,-7.0975,-7.0975,-7.0937,-7.0937,-7.0937,-7.0898,-7.0898,-7.0898,-7.0898,-7.0898,-7.0283,-6.9475,-6.8629,-6.8475,-6.8475,-6.8475,-6.9206,0.0,-6.9744,-7.0437,-7.0898,-7.0898,-7.0979,-7.103,-7.1106,-7.0413,-6.9997,-6.9982,-6.8471,-6.7578,-6.7578,-6.6725,-6.5911,-6.5004,-6.1621,-5.8258,-5.4895,0.0,0.0,0.0,0.0,0.0,0.0,0.0,0.0,0.0,0.0,0.0,0.0,0.0,0.0,0.0,0.0,0.0,0.0,0.0,0.0,0.0,-6.891,-7.0263,-6.9925,-7.1616,-7.351,-7.5202,-7.5743,-7.6251,-7.6995,-7.686,-7.6521,-7.6014,-7.598,-7.5709,-7.5134,-7.527,-7.5405,-7.5405,-7.5574,-7.5709,-7.5709,-7.5899,-7.5994,-7.6028,-7.6461,-7.6702,-7.685,-7.7209,-7.7824,-7.8587,-7.9079,-7.9947,-8.0912,-8.0978,-8.088,-8.0498,-7.8883,-7.7598,-7.6644,-7.6644,-7.6276,-7.5726,-7.5506,-7.4806,-7.4014,-7.4085,-7.3541,-7.2989,-7.3231,-7.3059,-7.2754,-7.2639,-7.2621,-7.2659,-7.2755,-7.2322,-7.1822,-7.1822,-7.136,-7.0898,-7.0898,-7.0898,-7.0898,-7.0898,-7.0706,-7.0475,-7.0244,-7.0206,-7.0206,-7.0206,-7.0437,-7.0552,-7.0552,-7.0837,-7.0979,-7.0979,-7.1081,-7.1201,-7.1291,-7.0583,-6.9903,-6.9367,-6.8365,-6.7447,-6.6825,-6.6567,-6.6033,-6.5103,-6.2952,-6.1042,0.0,0.0,0.0,0.0,0.0,0.0,0.0,0.0,0.0,0.0,0.0,0.0,0.0,0.0,0.0,0.0,0.0,0.0,0.0,0.0,0.0,0.0,-7.121,-7.2868,-7.3375,-7.4289,-7.5574,-7.7367,-7.801,-7.845,-7.8855,-7.8923,-7.8483,-7.7435,-7.7367,-7.7164,-7.669,-7.6448,-7.6374,-7.6374,-7.6224,-7.6148,-7.6148,-7.6461,-7.6645,-7.6702,-7.7154,-7.7475,-7.7702,-7.8217,-7.88,-7.9365,-7.9792,-8.0474,-8.1302,-8.1441,-8.1343,0.0,0.0,0.0,0.0,0.0,-7.7011,-7.657,-7.624,-7.5743,-7.5144,-7.4747,-7.4312,-7.3935,-7.3797,-7.3571,-7.3361,-7.3277,-7.3292,-7.3321,-7.3447,-7.3129,-7.2745,-7.2745,-7.236,-7.1975,-7.1975,-7.1975,-7.1898,-7.1514,-7.1437,0.0,-7.0975,-7.0925,-7.0952,-7.0952,-7.1005,-7.103,-7.103,-7.1081,-7.113,-7.1116,-7.1253,-7.1358,-7.1454,-7.0765,0.0,0.0,0.0,-6.752,-6.6663,-6.6585,0.0,0.0,0.0,0.0,0.0,0.0,0.0,0.0,-5.6578,-5.6965,0.0,0.0,0.0,0.0,0.0,0.0,0.0,0.0,0.0,0.0,0.0,0.0,0.0,0.0,0.0,0.0,-7.368,-7.5879,-7.8044,-7.7874,-7.8213,-8.0107,-8.0412,-8.0445,-8.0445,-8.0445,-7.9837,-7.8447,-7.8345,-7.8243,-7.8074,0.0,0.0,0.0,0.0,-7.6953,-7.6884,-7.7154,-7.7421,-7.765,-7.8082,-7.8504,-7.8753,-7.9558,-8.0023,-8.025,-8.0768,-8.1302,-8.1683,-8.1818,-8.1578,-8.0938,-8.0094,-7.9286,-7.8516,-7.7745,-7.7414,-7.7231,-7.6497,0.0,0.0,-7.5088,-7.4778,-7.4686,-7.3959,-7.3759,-7.3801,-7.3532,-7.3499,-7.359,-7.3755,-7.3707,-7.363,-7.363,-7.3591,-7.3514,-7.3514,-7.3514,-7.3283,-7.2514,-7.236,-7.2091,-7.1321,-7.1068,-7.1005,-7.1005,-7.113,-7.1224,-7.1224,-7.1291,-7.1317,-7.1319,0.0,0.0,-7.1622,-7.0953,-7.0224,-6.9489,-6.8687,-6.789,-6.7149,-6.7032,-6.6681,-6.5932,-6.5823,-6.5017,-6.3517,-6.4181,-6.4506,-6.444,-6.1724,-6.1363,0.0,0.0,0.0,0.0,0.0,0.0,0.0,0.0,0.0,0.0,0.0,0.0,0.0,0.0,0.0,-7.4593,-7.6758,-7.8822,-8.0412,-8.1224,-8.1563,-8.1088,-8.1596,-8.1968,-8.1968,-8.1968,-8.1461,-8.017,-8.0069,-7.9722,-7.8974,-7.8768,-7.8671,-7.8418,-7.83,-7.8064,-7.7615,-7.8082,-7.8252,-7.8336,0.0,0.0,-7.9792,-8.0326,-8.0695,-8.1055,-8.1196,-8.1441,-8.1818,-8.1885,-8.1578,-8.0938,-8.0094,-7.9286,-7.8589,-7.8405,-7.7928,-7.7304,-7.7157,-7.6741,-7.6369,-7.6232,-7.5476,-7.4606,-7.4901,-7.4664,0.0,-7.4822,-7.503,-7.52,-7.5456,-7.4976,-7.4476,-7.4476,-7.3976,-7.3514,-7.3514,-7.3514,-7.3437,-7.3283,-7.3245,-7.3206,-7.3053,-7.1876,-7.103,-7.1081,-7.1201,-7.1291,-7.1257,-7.1397,-7.1469,-7.1448,-7.1575,-7.1675,-7.1771,-7.1042,-7.0562,-7.0441,-6.9616,-6.9082,-6.8886,-6.8886,-6.8808,-6.8652,-6.8609,-6.8429,-6.8024,-6.821,-6.8271,-6.8203,-6.545,-6.4721,0.0,0.0,0.0,0.0,0.0,0.0,0.0,0.0,0.0,0.0,0.0,-7.3273,-7.3017,0.0,-7.7022,-7.8024,-8.0145,-8.2163,-8.3533,-8.4282,-8.4045,-8.2785,-8.3126,-8.3569,-8.3569,-8.3636,-8.3394,-8.2364,-8.2017,-8.1661,-8.119,-8.0766,-8.0538,-8.0333,-7.9963,-7.9669,-7.9364,-7.9382,-7.9522,-7.9601,-8.0139,-8.0548,-8.0695,-8.1126,-8.1441,-8.1615,-8.1751,-8.1885,-8.2055,-8.2055,-8.1864,-8.1562,-8.1158,-8.0241,-7.9176,-7.9176,-7.8662,-7.7965,-7.7965,-7.7476,-7.6801,-7.6575,-7.6048,-7.5605,-7.5682,-7.5408,-7.5178,-7.5779,-7.5799,-7.5731,-7.5917,-7.5668,-7.5361,-7.5361,-7.5053,-7.4745,-7.4745,-7.4745,-7.463,-7.4207,-7.4091,-7.3976,-7.3591,-7.2866,-7.2354,-7.2438,-7.2594,-7.2715,-7.2792,-7.2896,-7.2949,-7.3016,-7.3068,-7.2963,-7.2569,-7.1378,-7.0675,-7.0689,-6.9916,-6.9411,-6.9411,-6.9411,-6.945,-6.945,-6.9411,-6.9369,-6.9351,-6.9772,-7.0219,-7.0614,-6.9674,-6.9234,0.0,0.0,0.0,0.0,0.0,0.0,0.0,0.0,-7.552,-7.5755,-7.6782,-7.7577,-7.7545,-7.9282,-8.0905,-8.1481,-8.3417,-8.5318,-8.6701,-8.6973,-8.6498,-8.5001,-8.4998,-8.503,-8.503,-8.5294,-8.518,-8.4516,-8.3945,-8.3612,-8.3624,-8.2928,-8.2466,-8.2461,-8.1916,-8.1526,-8.1204,-8.094,-8.0839,-8.084,-8.1055,-8.1302,-8.1441,-8.1818,-8.1952,-8.1952,-8.2121,-8.2186,-8.2186,-8.2186,-8.2186,-8.2186,-8.2186,-8.1415,-8.0241,-8.0094,-7.9507,-7.8809,-7.8662,-7.8148,-7.7451,-7.6764,-7.6575,-7.6548,-7.6393,-7.6129,-7.5922,-7.635,-7.6185,-7.5955,-7.5955,-7.6015,-7.6015,-7.6015,-7.6015,-7.6015,-7.6015,-7.6015,-7.5784,-7.5091,-7.4938,-7.4745,-7.4091,-7.4087,-7.4063,-7.3822,-7.3976,-7.414,-7.4289,-7.4392,-7.4416,-7.4499,-7.4519,-7.4242,-7.3603,-7.2275,-7.147,-7.1445,-7.0859,-7.0469,-7.039,-7.0469,-7.0508,-7.0508,-7.043,-7.039,-7.039,-7.113,-7.1827,-7.2528,-7.3408,-7.3289,-7.6264,-7.5665,-7.543,-7.5258,-7.5799,-7.6518,0.0,0.0,-7.9064,-8.0149,-8.0954,-8.1531,-8.1485,-8.3349,-8.4957,-8.5297,-8.6664,-8.8021,-8.8892,-8.9388,-8.9302,-8.8435,-8.7159,-8.6385,-8.6385,-8.6679,-8.6621,-8.6324,-8.5553,-8.5269,-8.5464,-8.4658,-8.4201,-8.4073,-8.3971,-8.3329,-8.2069,-8.2178,-8.1922,-8.1232,-8.1579,-8.1818,-8.1818,-8.2055,-8.2186,-8.2186,-8.2186,-8.2186,-8.2186,-8.2186,-8.2186,-8.2186,-8.2186,-8.2076,-8.1819,-8.1122,-8.0351,-7.9543,-7.8846,-7.8552,-7.8332,-7.7451,-7.6838,-7.6486,-7.6792,-7.6654,-7.6375,-7.6346,-7.6499,-7.6547,-7.6109,-7.6015,-7.6015,-7.6015,-7.6015,-7.6015,-7.6015,-7.6015,-7.5976,-7.5861,-7.5861,-7.5822,-7.5745,-7.5793,-7.5362,-7.4015,-7.3956,-7.4172,-7.4275,-7.441,-7.4507,-7.4484,-7.4569,-7.4559,-7.4452,-7.4296,-7.4179,-7.414,-7.4062,-7.4023,-7.4023,-7.4023,-7.4023,-7.4023,-7.4023,-7.4023,-7.4023,-7.4101,-7.4217,-7.4324,-7.5204,-7.511,-7.8515,-7.8353,-7.8445,0.0,-7.9573,-8.084,-8.1165,-8.2575,-8.391,-8.4444,-8.5405,-8.6217,-8.6215,-8.7572,-8.879,0.0,-9.0195,-9.1296,-9.1651,-9.1478,-9.1176,-9.0676,-8.9395,-8.8381,-8.7959,-8.8255,-8.8384,-8.833,-8.7843,-8.7312,-8.6971,-8.642,-8.5861,-8.5405,-8.5155,-8.4718,-8.4134,-8.387,-8.3537,-8.3208,-8.338,-8.3448,-8.3448,-8.3038,-8.2627,-8.2186,-8.2186,-8.2186,-8.2186,-8.2186,-8.2186,-8.2186,-8.2186,-8.2186,-8.215,-8.1819,-8.1195,-8.0388,-7.958,-7.8993,-7.8479,-7.7598,-7.7266,-7.7303,-7.7608,-7.7564,-7.7455,-7.7713,-7.7719,-7.7648,-7.7493,-7.7092,-7.6746,-7.6746,-7.6361,-7.6015,-7.6015,-7.6015,-7.6015,-7.6015,-7.6399,-7.6746,-7.6746,-7.7189,-7.7186,-7.6057,-7.5675,-7.5543,-7.5715,-7.5835,-7.5936,-7.5996,-7.5584,-7.5287,-7.5294,-7.4826,-7.4552,-7.4552,-7.4552,-7.4552,-7.4552,-7.4552,-7.4552,-7.4552,-7.4552,-7.4552,-7.4552,-7.4525,-7.4798,-7.5301,-7.5724,-7.5955,-8.0369,-8.0745,0.0,-8.155,-8.3336,-8.5009,-8.5082,-8.6792,-8.8392,-8.8571,-8.9361,-9.019,-9.0212,-9.1207,-9.2063,-9.198,-9.3097,-9.3877,-9.3877,-9.3314,-9.2737,-9.2351,-9.1294,-9.0311,-8.9556,-8.9641,-8.9605,-8.969,-8.9302,-8.8859,-8.8439,-8.7986,-8.7412,-8.6684,-8.6388,-8.6017,-8.5577,-8.5165,-8.4829,-8.4609,-8.4609,-8.4609,-8.4572,-8.4022,-8.3287,-8.2517,-8.2517,-8.2406,-8.2186,-8.2186,-8.2186,-8.2186,-8.2186,-8.2186,-8.2186,-8.2186,-8.1819,-8.1232,-8.0388,-7.958,-7.8772,-7.7965,-7.7707,-7.7783,-7.809,-7.8289,-7.8406,-7.8701,-7.8712,-7.8568,-7.8523,-7.8054,-7.763,-7.763,-7.713,-7.6669,-7.6669,-7.6669,-7.6669,-7.6669,-7.7207,-7.763,-7.763,-7.8151,-7.8402,-7.7803,-7.7369,-7.6979,-7.677,-7.6855,-7.6934,-7.7028,-7.6513,-7.6115,-7.6115,-7.5569,-7.5179,-7.5179,-7.5179,-7.5179,-7.5179,-7.5179,-7.5179,-7.5179,-7.5179,-7.5179,-7.5179,-7.5209,-7.5501,-7.6131,-7.6414,-7.6883,-8.2175,0.0,-8.3846,-8.5039,-8.7154,-8.8947,-8.9199,-9.0447,-9.184,-9.246,-9.2679,-9.2783,-9.3121,-9.3841,-9.4341,-9.4094,-9.4746,-9.5253,-9.5253,-9.4767,-9.4123,-9.3324,-9.2727,-9.1968,-9.1202,-9.0457,-9.0084,-9.0295,-8.9537,-8.9307,-8.9891,-8.92,-8.8545,-8.8099,-8.8133,-8.7362,-8.582,-8.5747,-8.538,-8.4609,-8.4609,-8.4609,-8.4609,-8.4572,-8.4132,-8.3361,-8.3361,-8.292,-8.2186,-8.2186,-8.2186,-8.2186,-8.2186,-8.2186,-8.2186,-8.2186,-8.2186,-8.2039,-8.1232,-8.0424,-7.9617,-7.8809,-7.8125,-7.7703,-7.809,-7.8596,-7.8924,-7.8849,-7.9057,-7.9229,-7.8646,-7.8477,-7.8438,-7.8438,-7.8438,-7.84,-7.84,-7.84,-7.84,-7.84,-7.8438,-7.8438,-7.8438,-7.8477,-7.8507,-7.8556,-7.8556,-7.8065,-7.6769,-7.6777,-7.6882,-7.6921,-7.6949,-7.6947,-7.6947,-7.6947,-7.6908,-7.6908,-7.6908,-7.6908,-7.6908,-7.6908,-7.6908,-7.6908,-7.6908,-7.6908,-7.6908,-7.6908,-7.6949,-7.6972,-7.7843,-7.8252,-8.2313,0.0,-8.5218,-8.6861,-8.8907,-9.0701,-9.1473,-9.2574,-9.3529,-9.3747,-9.3821,-9.3819,-9.3923,-9.4179,-9.4545,-9.5016,-9.5309,-9.5595,-9.6186,-9.5126,-9.4212,-9.3842,-9.26,-9.165,-9.1243,-9.0975,0.0,-9.0897,-9.0643,-9.0434,-9.0189,-8.9971,-8.9532,-8.9014,-8.85,-8.7949,-8.7399,-8.6848,-8.6481,-8.6187,-8.6187,-8.593,-8.538,-8.538,-8.4976,-8.4168,-8.3654,-8.3251,-8.2957,-8.2406,-8.2186,-8.2186,-8.2186,-8.2186,-8.2186,-8.2186,-8.2186,-8.2076,-8.1269,-8.0828,-8.0388,-7.9117,-7.8615,-7.8485,-7.8498,-7.8891,-7.9349,-7.9695,-8.0047,-8.0294,-8.0222,-7.9785,-7.9361,-7.9361,-7.89,-7.8477,-7.8477,-7.8477,-7.8477,-7.8477,-7.8977,-7.9361,-7.9361,-7.9823,-8.0015,-7.9469,-7.9037,-7.858,-7.817,-7.7718,-7.7466,-7.7503,-7.7,-7.6671,-7.6671,-7.6671,-7.6671,-7.6671,-7.6671,-7.6671,-7.6671,-7.6671,-7.6671,-7.6671,-7.6671,-7.6671,-7.6671,-7.6704,-7.7026,-7.7587,-7.7948,-7.8404,-8.276,-8.4585,-8.644,-8.8509,-9.0537,-9.2315,-9.3139,-9.4252,-9.4995,-9.4701,-9.4408,-9.4299,-9.4299,-9.4079,-9.4226,-9.5327,-9.5768,-9.6208,-9.7016,-9.5988,-9.5068,-9.4992,-9.3231,-9.2022,-9.1872,0.0,0.0,-9.113,-9.1053,-9.0911,-9.0628,-9.0591,-9.0374,-8.9858,-8.9344,-8.8793,-8.8206,-8.7692,-8.7288,-8.6995,-8.6995,-8.6738,-8.6224,-8.6224,-8.5783,-8.4976,-8.4168,-8.3691,-8.3361,-8.2517,-8.2186,-8.2186,-8.2186,-8.2186,-8.2186,-8.2186,-8.2186,-8.2113,-8.1599,-8.1232,-8.0828,-7.9952,-7.9362,-7.9009,-7.9108,-7.9217,-7.9433,-8.0119,-8.0505,-8.0792,-8.1029,-8.0669,-8.0246,-8.0246,-7.9823,-7.9438,-7.9438,-7.9438,-7.9438,-7.9438,-7.9862,-8.0246,-8.0246,-8.0746,-8.09,-8.0362,-7.9904,-7.9401,-7.8863,-7.836,-7.8085,-7.8131,-7.7689,-7.7362,-7.7362,-7.7362,-7.7362,-7.7362,-7.7362,-7.7362,-7.7362,-7.7362,-7.7362,-7.7362,-7.7362,-7.7362,-7.7362,-7.7387,-7.77,-7.8282,-7.8631,-7.9095,-8.3466,-8.5546,-8.7548,-8.9946,-9.2216,-9.3831,-9.4405,-9.5393,-9.6082,-9.5313,-9.4625,-9.4153,0.0,0.0,-9.3492,-9.5144,-9.6098,-9.6942,-9.7787,-9.7236,-9.6759,0.0,0.0,0.0,0.0,0.0,0.0,-9.1048,0.0,-9.0819,-9.1206,-9.1206,-9.1068,-9.0702,-9.0629,-8.9858,-8.828,-8.8169,-8.7766,-8.6995,-8.6995,-8.6995,-8.6995,-8.6995,-8.6591,-8.582,-8.4976,-8.4168,-8.3398,-8.2553,-8.2186,-8.2186,-8.2186,-8.2186,-8.2186,-8.2186,-8.2186,-8.2186,-8.2186,-8.1709,-8.1048,-8.1166,-8.0247,-7.9157,-7.9742,-7.9579,-7.9387,-8.0119,-8.0468,-8.0685,-8.1029,-8.1093,-8.1093,-8.1093,-8.1093,-8.1093,-8.1093,-8.1093,-8.1093,-8.1093,-8.1093,-8.1093,-8.1093,-8.1093,-8.1093,-8.1093,-8.1093,-8.0546,-7.8912,-7.8783,-7.8825,-7.8825,-7.8876,-7.8887,-7.8887,-7.8887,-7.8887,-7.8887,-7.8887,-7.8887,-7.8887,-7.8887,-7.8887,-7.8887,-7.8887,-7.8887,-7.8887,-7.8887,-7.8926,-7.8965,-7.9811,-8.0222,-8.4205,-8.5907,-8.7605,-9.015,-9.1715,-9.2943,-9.4048,-9.4506,-9.4532,-9.4087,-9.3042,-9.2096,0.0,0.0,0.0,-9.3455,-9.4887,0.0,-9.7676,-9.7713,0.0,-9.6759,0.0,-9.4666,-9.4042,-9.3086,0.0,0.0,-9.1494,-9.113,-9.1433,-9.1433,-9.1473,-9.151,-9.0922,-9.0115,-8.9124,-8.7912,-8.7215,-8.6995,-8.6995,-8.6995,-8.6995,-8.6995,-8.6885,-8.6628,-8.5196,-8.4499,-8.4205,-8.2774,-8.2186,-8.2186,-8.2186,-8.2186,-8.2186,-8.2186,-8.2186,-8.2186,-8.2186,-8.2076,-8.1847,-8.1513,-8.0836,-8.0073,-8.0264,-7.9972,-7.9708,-8.0354,-8.0685,-8.0855,-8.1061,-8.1093,-8.1093,-8.1093,-8.1093,-8.1093,-8.1093,-8.1093,-8.1093,-8.1093,-8.1093,-8.1093,-8.1093,-8.1093,-8.1093,-8.1093,-8.1093,-8.0939,-8.0508,-7.9922,-7.9567,-7.9567,-7.898,-7.8594,-7.8594,-7.8594,-7.8594,-7.8594,-7.8594,-7.8594,-7.8594,-7.8594,-7.8594,-7.8594,-7.8594,-7.8594,-7.8594,-7.8651,-7.9026,-7.9643,-7.9918,-8.0408,-8.5001,-8.6712,-8.8291,-9.0325,-9.1509,-9.2282,-9.2951,-9.3191,-9.3096,-9.238,-9.0987,-8.9971,-9.0006,-8.9784,0.0,0.0,0.0,0.0,-9.819,-9.8741,-9.8778,0.0,-9.6942,0.0,-9.5401,-9.4224,-9.3489,0.0,-9.2052,-9.1282,-9.1508,-9.1508,-9.1583,-9.1803,-9.1363,-9.0592,-8.9417,-8.8169,-8.7362,-8.6995,-8.6995,-8.6995,-8.6995,-8.6995,-8.6995,-8.6921,0.0,-8.4939,-8.4499,-8.3251,-8.2517,-8.2186,-8.2186,-8.2186,-8.2186,-8.2186,-8.2186,-8.2186,-8.2186,-8.2186,-8.2178,-8.1992,-8.1501,-8.1021,-8.1312,-8.0801,-8.032,-8.0889,-8.0953,-8.0893,-8.1061,-8.1093,-8.1093,-8.1093,-8.1093,-8.1093,-8.1093,-8.1093,-8.1208,-8.1554,-8.1939,-8.2208,-8.2208,-8.2208,-8.2208,-8.2208,-8.1862,-8.1631,-8.1631,-8.09,-8.0362,-8.0362,-7.9939,-7.9631,-7.9631,-7.9631,-7.9631,-7.9631,-7.9631,-7.9631,-7.9631,-7.9631,-7.9631,-7.9631,-7.9631,-7.9631,-7.9631,-7.9661,-7.9961,-8.0423,-8.0482,-8.0713,-8.6045,-8.7761,-8.9243,-9.046,-9.1368,-9.1731,-9.1345,-9.1584,-9.1439,-9.024,-8.8795,-8.7886,-8.8613,-8.839,-8.905,-9.2097,0.0,-9.6979,-9.8704,-9.9732,-10.0283,-10.0283,-9.8374,-9.6979,-9.6869,-9.5401,-9.4446,-9.4446,-9.2716,-9.1687,-9.1838,-9.1802,-9.1767,-9.1803,-9.1693,-9.0959,-8.9601,-8.8683,-8.7839,-8.7178,-8.7068,-8.6995,-8.6995,-8.6995,-8.6995,-8.6958,-8.6151,-8.538,-8.4682,-8.3801,-8.2994,-8.2333,-8.2223,-8.2186,-8.2186,-8.2186,-8.2186,-8.2186,-8.2186,-8.2186,-8.2251,-8.2343,-8.2043,-8.1837,-8.2332,-8.1783,-8.1097,-8.1688,-8.1496,-8.1172,-8.1337,-8.1407,-8.1439,-8.1439,-8.1439,-8.1439,-8.1439,-8.1439,-8.1631,-8.2324,-8.3093,-8.3593,-8.3593,-8.3593,-8.3593,-8.3593,-8.2939,-8.2477,-8.2477,-8.167,-8.1093,-8.1093,-8.1093,-8.1093,-8.1093,-8.1093,-8.1093,-8.1093,-8.1093,-8.1093,-8.1093,-8.1093,-8.1093,-8.1093,-8.1093,-8.1093,-8.1093,-8.1093,-8.1093,-8.1093,-8.1093,-8.1093,-8.7863,-8.9033,-8.9628,-9.0521,-9.0834,-9.0746,-8.9931,-8.9518,0.0,-8.7573,-8.697,-8.639,-8.5568,-8.6407,-8.7839,-8.9748,0.0,0.0,0.0,0.0,-10.0283,0.0,-9.9328,-9.8411,-9.775,0.0,0.0,0.0,0.0,-9.3784,-9.3784,-9.3161,-9.2537,-9.1803,-9.1143,-9.0665,-9.0408,-8.894,-8.8133,-8.7986,-8.7325,-8.6995,-8.6995,-8.6995,-8.6995,-8.6958,-8.6151,0.0,-8.549,-8.4022,-8.3324,-8.3141,-8.2443,-8.2186,-8.2186,-8.2186,-8.2186,-8.2186,-8.2186,-8.2186,-8.2251,-8.2343,-8.2043,-8.1837,-8.2332,-8.2197,-8.1968,-8.2444,-8.2646,-8.2754,-8.2967,-8.3,-8.3034,-8.317,-8.317,-8.317,-8.317,-8.317,-8.3208,-8.3362,-8.3478,-8.3593,-8.3593,-8.3593,-8.3593,-8.3593,-8.3478,-8.3362,-8.3362,-8.2054,-8.1093,-8.1093,-8.1093,-8.1093,-8.1093,-8.1093,-8.1093,-8.1093,-8.1093,-8.1093,-8.1093,-8.1093,-8.1093,-8.1093,-8.1093,-8.1093,-8.1093,-8.1093,-8.1093,-8.1093,-8.1093,-8.1093,-8.8598,-8.976,-9.0448,-9.0448,-9.0427,-9.0013,-8.877,0.0,0.0,-8.6161,-8.5189,-8.4564,-8.4578,0.0,0.0,0.0,0.0,0.0,0.0,0.0,0.0,-10.0283,-9.9952,-9.9402,0.0,0.0,0.0,0.0,0.0,-9.518,-9.4336,-9.3529,-9.2905,-9.2501,-9.1657,-9.1033,-9.0592,-8.9821,-8.9014,-8.8206,-8.7802,-8.7435,-8.6995,-8.6995,-8.6995,-8.6995,-8.6591,-8.6187,-8.571,-8.4535,-8.3801,-8.3324,-8.2517,-8.2186,-8.2186,-8.2186,-8.2186,-8.2186,-8.2186,-8.2186,-8.2186,-8.2316,-8.215,-8.2129,-8.2685,-8.2532,-8.236,-8.2892,-8.2893,-8.2796,-8.3102,-8.3246,-8.3355,-8.3456,-8.3561,-8.3593,-8.3593,-8.3939,-8.4286,-8.4286,-8.4593,-8.4901,-8.4901,-8.4901,-8.4901,-8.4901,-8.4555,-8.4286,-8.4286,-8.317,-8.2401,-8.2401,-8.2016,-8.1708,-8.1708,-8.1323,-8.1093,-8.1093,-8.1093,-8.1093,-8.1093,-8.1093,-8.1093,-8.1093,-8.1093,-8.1323,-8.1708,-8.1708,-8.1939,-8.2401,-8.2401,-8.2401,-8.9241,-9.0425,-9.1169,-9.0594,-9.0231,-8.9556,-8.7876,-8.6639,-8.57,-8.5045,-8.3774,-8.3103,-8.3918,0.0,-8.5678,0.0,-8.997,0.0,0.0,0.0,0.0,0.0,-9.9952,0.0,0.0,0.0,0.0,0.0,0.0,0.0,-9.463,-9.3786,-9.3272,-9.3125,-9.2244,-9.151,-9.0849,-9.0702,-8.9968,-8.872,-8.8353,-8.7876,-8.7252,-8.7105,-8.6995,-8.6995,-8.6995,-8.6628,-8.5967,-8.5013,-8.4242,-8.3581,-8.259,-8.2186,-8.2186,-8.2186,-8.2186,-8.2186,-8.2186,-8.2186,-8.2186,-8.2186,-8.2316,-8.2471,-8.2867,-8.2776,-8.2593,-8.3238,-8.3087,-8.2867,-8.325,-8.3525,-8.375,-8.3926,-8.4066,-8.4132,-8.4132,-8.467,-8.517,-8.517,-8.567,-8.6094,-8.6094,-8.6094,-8.6094,-8.6094,-8.5555,-8.517,-8.517,-8.4555,-8.4132,-8.4132,-8.3208,-8.2593,-8.2593,-8.2016,-8.1631,-8.1631,-8.1631,-8.1631,-8.1631,-8.1631,-8.1631,-8.1631,-8.1631,-8.1939,-8.2593,-8.2593,-8.2939,-8.3593,-8.3593,-8.3593,-9.0357,-9.1203,-9.1271,-9.1203,-9.0794,-8.9598,-8.7185,0.0,-8.512,-8.3574,-8.3156,-8.291,-8.2451,-8.2934,-8.3605,-8.4483,0.0,-8.9019,0.0,0.0,0.0,0.0,0.0,0.0,0.0,0.0,0.0,0.0,0.0,0.0,-9.5437,-9.463,-9.3859,-9.3125,-9.2244,-9.1767,-9.1693,-9.0959,-9.0519,-9.0372,-8.8904,-8.8169,-8.8059,-8.7325,-8.6995,-8.6995,-8.6995,-8.6958,0.0,-8.5233,-8.4572,-8.4352,-8.281,-8.2186,-8.2186,-8.2186,-8.2186,-8.2186,-8.2186,-8.2186,-8.2186,-8.2186,-8.2316,-8.2407,-8.2696,-8.283,-8.3111,-8.3543,-8.3824,-8.4141,-8.4575,-8.4919,-8.5244,-8.5657,-8.5834,-8.5863,-8.5863,-8.594,-8.5978,-8.5978,-8.6055,-8.6094,-8.6094,-8.6094,-8.6094,-8.6094,-8.6055,-8.5978,-8.5978,-8.594,-8.5863,-8.5863,-8.4439,-8.3478,-8.3478,-8.3401,-8.3362,-8.3362,-8.3362,-8.3362,-8.3362,-8.3362,-8.3362,-8.3362,-8.3362,-8.3401,-8.3478,-8.3478,-8.3516,-8.3593,-8.3593,-8.3593,-8.9951,-9.1305,-9.188,-9.1406,-9.0828,-8.9669,-8.7181,-8.5707,-8.4559,-8.3474,-8.2754,-8.2355,-8.226,-8.2715,-8.3135,-8.3358,-8.5263,-8.7192,-8.8535,0.0,0.0,0.0,0.0,0.0,0.0,0.0,0.0,0.0,0.0,0.0,-9.6245,-9.4997,-9.4153,-9.3822,-9.2501,-9.1803,-9.1803,-9.1473,-9.1069,-9.0592,-8.9454,-8.8683,-8.8169,-8.7362,-8.6995,-8.6995,-8.6995,-8.6995,0.0,-8.527,-8.4609,-8.4425,-8.281,-8.2186,-8.2186,-8.2186,-8.2186,-8.2186,-8.2186,-8.2186,-8.2186,-8.2186,-8.2251,-8.2316,-8.2471,-8.2597,-8.2745,-8.3127,-8.3415,-8.3747,-8.4268,-8.484,-8.5393,-8.5779,-8.5958,-8.6065,-8.6094,-8.6094,-8.6094,-8.6094,-8.6094,-8.6094,-8.6094,-8.6094,-8.6094,-8.6094,-8.6094,-8.6094,-8.6094,-8.6094,-8.6094,-8.6094,-8.5055,-8.4362,-8.4362,-8.3901,-8.3593,-8.3593,-8.3593,-8.3593,-8.3593,-8.3593,-8.3593,-8.3593,-8.3593,-8.3862,-8.4362,-8.4362,-8.4632,-8.5093,-8.5093,-8.5093,-8.8632,-9.0154,-9.0966,-9.0459,-8.984,-8.881,-8.683,-8.5144,-8.3789,-8.325,-8.2358,-8.1751,-8.1885,-8.2294,-8.249,-8.2209,-8.381,-8.529,-8.582,-8.8945,0.0,0.0,0.0,0.0,0.0,0.0,0.0,0.0,0.0,0.0,-9.6608,-9.5401,-9.4556,-9.4299,-9.2905,-9.206,-9.1803,-9.1803,-9.151,-9.0959,-8.9931,-8.9124,-8.8536,-8.7472,-8.6995,-8.6995,-8.6995,-8.6995,0.0,-8.5527,-8.4792,-8.4462,-8.3104,-8.2406,-8.2186,-8.2186,-8.2186,-8.2186,-8.2186,-8.2186,-8.2186,-8.2186,-8.2186,-8.2186,-8.2279,-8.2343,-8.2407,-8.2659,-8.3047,-8.3415,-8.3892,-8.4561,-8.5228,-8.5513,-8.5742,-8.5852,-8.5958,-8.5958,-8.5992,-8.606,-8.606,-8.606,-8.6094,-8.6094,-8.6094,-8.6094,-8.6094,-8.6094,-8.6094,-8.6094,-8.6094,-8.6094,-8.5593,-8.5247,-8.5247,-8.467,-8.4324,-8.4324,-8.4324,-8.4324,-8.4324,-8.4324,-8.4324,-8.4324,-8.4324,-8.4632,-8.5247,-8.5247,-8.5555,-8.6094,-8.6094,-8.6094,-8.6332,-8.7482,-8.8023,-8.8023,-8.7556,-8.6748,-8.5629,-8.4156,-8.2831,-8.26,-8.1887,-8.1302,-8.1302,-8.1339,-8.1305,-8.0804,-8.1917,-8.2978,-8.337,-8.6522,0.0,0.0,0.0,0.0,0.0,0.0,0.0,0.0,0.0,0.0,-9.6375,-9.5875,-9.5144,-9.4336,-9.3529,-9.2684,-9.1803,-9.1803,-9.1803,-9.1767,-9.0188,-8.9417,-8.9344,-8.7729,-8.6995,-8.6995,-8.6995,-8.6995,0.0,-8.6114,-8.5306,-8.4535,-8.3728,-8.292,-8.2186,-8.2186,-8.2186,-8.2186,-8.2186,-8.2186,-8.2186,-8.2186,-8.2186,-8.2186,-8.2186,-8.2186,-8.2251,-8.2343,-8.2867,-8.3415,-8.3892,-8.4405,-8.4878,-8.5062,-8.5311,-8.5551,-8.5705,-8.5705,-8.578,-8.5961,-8.5996,-8.6031,-8.606,-8.6094,-8.6094,-8.6094,-8.6094,-8.6094,-8.6094,-8.6094,-8.6094,-8.6094,-8.6094,-8.6094,-8.6094,-8.6094,-8.6055,-8.6055,-8.6055,-8.6055,-8.6055,-8.6055,-8.6055,-8.6055,-8.6055,-8.6094,-8.6094,-8.6094,-8.6094,-8.6094,-8.6094,-8.6094,-8.3964,-8.552,-8.6501,-8.6501,-8.6363,-8.5684,-8.4018,-8.3116,-8.2407,-8.1417,-8.0502,-7.9865,-8.0008,-7.9973,-7.9865,-7.9535,-8.0596,-8.1489,-8.1815,0.0,0.0,0.0,0.0,0.0,0.0,0.0,0.0,0.0,0.0,0.0,-9.61,-9.5606,-9.4992,-9.4299,-9.3529,-9.2684,-9.1803,-9.1803,-9.1803,-9.1767,-9.0188,-8.9417,-8.9381,-8.7729,-8.6995,-8.6995,-8.6995,-8.6995,-8.6958,-8.6114,-8.5306,-8.4535,-8.3728,-8.292,-8.2186,-8.2186,-8.2186,-8.2186,-8.2186,-8.2186,-8.2186,-8.2186,-8.2186,-8.2186,-8.2186,-8.2186,-8.2251,-8.2343,-8.2659,-8.3024,-8.3452,-8.3763,-8.418,-8.4656,-8.484,-8.5018,-8.5232,-8.5352,-8.5473,-8.5628,-8.5704,-8.5854,-8.6031,-8.6031,-8.6065,-8.6094,-8.6094,-8.6094,-8.6094,-8.6094,-8.6094,-8.6094,-8.6094,-8.6094,-8.6094,-8.6094,-8.6094,-8.6094,-8.6094,-8.6094,-8.6094,-8.6094,-8.6094,-8.6094,-8.6094,-8.6094,-8.6094,-8.6094,-8.6094,-8.6094,-8.6094,-8.6094,-8.0648,-8.234,-8.3321,-8.3592,-8.35,-8.3052,-8.1908,-8.1296,-8.0716,-7.9669,-7.8886,-7.8472,-7.8302,-7.8377,-7.8445,-7.8384,-7.9329,-8.0129,-8.063,0.0,0.0,0.0,0.0,0.0,0.0,0.0,0.0,0.0,0.0,0.0,-9.514,-9.4737,-9.4285,-9.3709,-9.3271,-9.2684,-9.1803,-9.1803,-9.1803,-9.1767,-9.0188,-8.9417,-8.9381,-8.7729,-8.6995,-8.6995,-8.6995,-8.6995,0.0,-8.6444,-8.56,-8.4535,-8.4058,-8.3177,-8.2186,-8.2186,-8.2186,-8.2186,-8.2186,-8.2186,-8.2186,-8.2186,-8.2186,-8.2186,-8.2186,-8.2186,-8.2186,-8.2316,-8.2444,-8.2659,-8.2987,-8.3244,-8.3545,-8.4012,-8.418,-8.4341,-8.458,-8.4711,-8.4848,-8.5148,-8.5311,-8.5473,-8.5704,-8.5815,-8.5926,-8.5923,-8.5992,-8.606,-8.606,-8.606,-8.6094,-8.6094,-8.6094,-8.6094,-8.6094,-8.6094,-8.6094,-8.6094,-8.6094,-8.6094,-8.6094,-8.6094,-8.6094,-8.6094,-8.6094,-8.6094,-8.6094,-8.6094,-8.6094,-8.6094,-8.6094,-8.6094,0.0,-7.8213,-7.9126,-7.9803,-7.9664,-7.9415,-7.9473,-7.8819,0.0,-7.7386,-7.7194,-7.6842,-7.6187,-7.6561,-7.7036,-7.7252,-7.8025,-7.8946,0.0,0.0,0.0,0.0,0.0,0.0,0.0,0.0,0.0,0.0,0.0,0.0,-9.3553,-9.3298,-9.2939,-9.275,-9.2829,-9.25,-9.1803,-9.173,-9.1693,-9.1693,-9.0078,-8.9344,-8.9271,-8.7729,-8.6995,0.0,-8.6995,-8.6995,-8.6995,-8.6995,-8.604,-8.4609,-8.4609,-8.3618,-8.2186,-8.2186,-8.2186,-8.2186,-8.2186,-8.2186,-8.2186,-8.2186,-8.2186,-8.2186,-8.2186,-8.2186,-8.2186,-8.2186,-8.2316,-8.2407,-8.2633,-8.2843,-8.3106,-8.3244,-8.3358,-8.3545,-8.3817,-8.387,-8.3989,-8.4533,-8.4757,-8.4892,-8.519,-8.5433,-8.5628,-8.5705,-8.5854,-8.5961,-8.5996,-8.6065,-8.6094,-8.6094,-8.6094,-8.6094,-8.6094,-8.6094,-8.6094,-8.6094,-8.6094,-8.6094,-8.6094,-8.6094,-8.6094,-8.6094,-8.6094,-8.6094,-8.6094,-8.6094,-8.6094,-8.6094,-8.6094,-8.6094,-7.2157,0.0,-7.7468,-7.7638,-7.7697,-7.7618,0.0,-7.6621,-7.6149,0.0,0.0,-7.4649,-7.4608,-7.4739,-7.4983,-7.5616,-7.6296,-7.7283,0.0,0.0,0.0,0.0,0.0,0.0,0.0,0.0,0.0,0.0,0.0,-9.1055,-9.1783,-9.147,-9.1391,-9.174,-9.0897,-9.092,-9.1803,-9.1179,-9.0886,-9.0849,-8.9271,-8.85,-8.8463,-8.7472,-8.6995,-8.6995,-8.6995,-8.6995,-8.6995,-8.6995,-8.604,-8.4609,-8.4609,-8.3618,-8.2186,-8.2186,-8.2186,-8.2186,-8.2186,-8.2186,-8.2186,-8.2186,-8.2186,-8.2186,-8.2186,-8.2186,-8.2186,-8.2186,-8.2251,-8.2316,-8.2407,-8.2534,-8.2659,-8.2927,-8.3047,-8.3106,-8.3244,-8.3358,-8.3545,-8.3832,-8.4041,-8.433,-8.4757,-8.4892,-8.5062,-8.5352,-8.5513,-8.5667,-8.578,-8.5926,-8.6031,-8.6031,-8.606,-8.6094,-8.6094,-8.6094,-8.6094,-8.6094,-8.6094,-8.6094,-8.6094,-8.6094,-8.6094,-8.6094,-8.6094,-8.6094,-8.6094,-8.6094,-8.6094,-8.6094,-8.6094,-8.6094,-6.9857,-7.2293,-7.4492,-7.5168,-7.5398,-7.5391,-7.4984,0.0,0.0,0.0,0.0,0.0,-7.3342,0.0,0.0,-7.4782,-7.5296,0.0,0.0,0.0,0.0,0.0,0.0,0.0,0.0,0.0,0.0,0.0,0.0,-8.924,-8.9964,-8.9589,-8.9519,-8.9845,-8.9266,-8.9531,-9.0848,-9.0228,-8.9898,-8.9898,-8.8723,-8.8206,-8.8169,-8.7362,-8.6995,-8.6995,-8.6995,-8.6995,-8.6995,-8.6995,-8.6261,-8.5123,-8.4756,-8.3838,-8.27,-8.2333,-8.2443,-8.2737,-8.2737,-8.2737,-8.27,-8.2333,-8.2186,-8.2186,-8.2186,-8.2186,-8.2186,-8.2186,-8.2186,-8.2186,-8.2316,-8.2316,-8.2343,-8.2534,-8.2597,-8.2597,-8.2745,-8.2867,-8.2987,-8.3301,-8.3434,-8.3655,-8.3989,-8.4193,-8.439,-8.4618,-8.4937,-8.519,-8.5311,-8.5513,-8.5704,-8.5742,-8.5852,-8.5923,-8.5923,-8.5992,-8.6099,-8.6094,-8.6094,-8.6094,-8.6094,-8.6094,-8.6094,-8.6094,-8.6094,-8.6094,-8.6094,-8.6094,-8.6094,-8.6094,-8.6094,-8.6094,-6.8842,-7.0026,-7.1379,-7.3071,-7.3477,-7.3477,-7.3477,0.0,0.0,0.0,0.0,0.0,0.0,0.0,0.0,0.0,0.0,0.0,0.0,0.0,0.0,0.0,0.0,0.0,0.0,0.0,0.0,0.0,0.0,-8.7257,-8.7875,-8.7501,-8.736,-8.7477,-8.7421,-8.7861,-8.8909,-8.8795,-8.8765,-8.8838,-8.8248,-8.7952,-8.7916,-8.7325,-8.6995,-8.6995,0.0,0.0,-8.6995,-8.6995,-8.6444,-8.5527,-8.4866,-8.4022,-8.3141,-8.2443,-8.27,-8.3434,-8.3544,-8.3581,-8.3471,-8.2774,-8.2553,-8.2553,-8.2553,-8.2553,-8.2553,-8.2553,-8.237,-8.2186,-8.2186,-8.2186,-8.2186,-8.2186,-8.2186,-8.2251,-8.2343,-8.2454,-8.2655,-8.2967,-8.3224,-8.3418,-8.3595,-8.3863,-8.4138,-8.4192,-8.4569,-8.4997,-8.509,-8.5399,-8.5613,-8.5581,-8.5702,-8.5743,-8.5667,-8.5779,-8.5923,-8.6026,-8.606,-8.6094,-8.6094,-8.6094,-8.6094,-8.6094,-8.6094,-8.6094,-8.6094,-8.6094,-8.6094,-8.6094,-8.6094,-8.6094,-6.8707,-6.9282,-7.0094,-7.28,-7.3477,-7.3477,-7.3477,-7.2346,0.0,0.0,0.0,0.0,0.0,0.0,0.0,0.0,0.0,0.0,0.0,0.0,0.0,0.0,0.0,0.0,0.0,0.0,0.0,0.0,0.0,-8.5344,-8.5267,-8.5393,-8.5367,-8.4983,-8.4873,-8.497,-8.5146,-8.6629,-8.7405,-8.7556,-8.7121,-8.6969,-8.6932,-8.6999,-8.6995,-8.6995,0.0,-8.6995,-8.6995,-8.6995,-8.6114,-8.4756,-8.4646,-8.3691,-8.237,-8.226,-8.27,-8.3508,-8.4168,-8.4425,-8.4389,-8.4278,-8.4242,-8.4242,-8.4242,-8.4242,-8.4242,-8.4242,-8.3251,-8.2186,-8.2186,-8.2186,-8.2186,-8.2186,-8.2186,-8.2186,-8.2251,-8.2802,-8.328,-8.3503,-8.4018,-8.4626,-8.4941,-8.5028,-8.5149,-8.535,-8.5751,-8.6025,-8.6132,-8.6592,-8.6653,-8.5979,-8.6127,-8.5994,-8.5391,-8.5393,-8.5513,-8.578,-8.5958,-8.6094,-8.6094,-8.6094,-8.6094,-8.6094,-8.6094,-8.6094,-8.6094,-8.6094,-8.6094,-8.6094,-8.6094,-8.6094,-6.8673,-6.9383,-7.0195,-7.236,-7.2902,-7.3003,-7.3409,0.0,0.0,0.0,0.0,0.0,0.0,0.0,0.0,0.0,0.0,0.0,0.0,0.0,0.0,0.0,0.0,0.0,0.0,0.0,0.0,0.0,0.0,0.0,-8.3704,-8.377,-8.3728,-8.3397,-8.3305,-8.33,-8.3158,-8.4157,-8.5167,-8.5922,-8.6132,-8.6247,-8.6392,-8.6715,-8.6856,-8.6856,0.0,-8.6995,-8.6995,-8.6995,-8.6297,-8.5196,-8.4756,-8.3875,-8.292,-8.3324,-8.3728,-8.4168,-8.4976,-8.5233,-8.5159,-8.4756,-8.4609,-8.4609,-8.4609,-8.4609,-8.4609,-8.4609,-8.4058,-8.3508,-8.3508,-8.3508,-8.3508,-8.3508,-8.3508,-8.3508,-8.3508,-8.3801,-8.4058,-8.4154,-8.4448,-8.4706,-8.4903,-8.4968,-8.506,-8.5187,-8.5521,-8.576,-8.5877,-8.6181,-8.6116,-8.5343,-8.5487,-8.5345,-8.4609,-8.4803,-8.519,-8.5667,-8.5926,-8.6065,-8.6065,-8.606,-8.6094,-8.6094,-8.6094,-8.6094,-8.6094,-8.6094,-8.6094,-8.6094,-8.6094,-8.6094,-6.8504,-6.935,-7.0297,-7.1785,-7.2394,-7.28,-7.3341,0.0,0.0,0.0,0.0,0.0,0.0,0.0,0.0,0.0,0.0,0.0,0.0,0.0,0.0,0.0,0.0,0.0,0.0,0.0,0.0,0.0,0.0,0.0,-8.2446,-8.2412,-8.2309,-8.1958,-8.2022,-8.1943,-8.1707,-8.2269,-8.3103,-8.4385,-8.5147,-8.5648,-8.584,-8.6247,-8.6536,-8.6608,-8.6856,-8.6925,-8.6995,-8.6811,-8.6224,-8.5416,-8.4646,-8.3838,-8.3251,-8.4242,-8.4609,-8.4756,-8.5747,-8.6077,-8.5967,-8.538,-8.5159,-8.5159,-8.5159,-8.5159,-8.5159,-8.5159,-8.5159,-8.5086,-8.4719,-8.4609,-8.4609,-8.4609,-8.4609,-8.4609,-8.4609,-8.4756,-8.4866,-8.4866,-8.5049,-8.5159,-8.5159,-8.5294,-8.5324,-8.5324,-8.5586,-8.5842,-8.5868,-8.6054,-8.5901,-8.5164,-8.519,-8.4795,-8.3838,-8.4193,-8.4757,-8.5232,-8.5667,-8.5926,-8.5926,-8.5992,-8.606,-8.606,-8.6094,-8.6094,-8.6094,-8.6094,-8.6094,-8.6094,-8.6094,-8.6094,-6.7963,-6.8571,-6.9519,-7.1007,-7.2394,0.0,-7.3477,0.0,0.0,0.0,0.0,0.0,0.0,0.0,0.0,0.0,0.0,0.0,0.0,0.0,0.0,0.0,0.0,0.0,0.0,0.0,0.0,0.0,0.0,0.0,-8.1393,-8.1359,-8.1122,-8.0411,-8.0578,-8.0743,-8.0709,-8.1131,-8.2048,-8.3244,-8.4136,-8.4747,-8.4908,-8.5572,-8.6026,-8.6392,-8.6608,-8.6856,-8.6958,-8.6187,-8.5416,-8.4609,-8.3801,-8.2994,-8.248,-8.4022,-8.4609,-8.4829,-8.6371,-8.6921,-8.6921,-8.6848,-8.6848,-8.6848,-8.6848,-8.6848,-8.6848,-8.6848,-8.6848,-8.6481,-8.5013,-8.4609,-8.4609,-8.4609,-8.4609,-8.4609,-8.4609,-8.5196,-8.571,-8.571,-8.6334,-8.6848,-8.6848,-8.6848,-8.6848,-8.6848,-8.7053,-8.7188,-8.7188,-8.7415,-8.7275,-8.6486,-8.5868,-8.4971,-8.345,-8.3709,-8.3975,-8.4027,-8.5018,-8.559,-8.5743,-8.5926,-8.5996,-8.5996,-8.606,-8.6094,-8.6094,-8.6094,-8.6094,-8.6094,-8.6094,-8.6094,-6.7793,-6.8504,-6.935,-7.0364,0.0,0.0,0.0,0.0,0.0,0.0,0.0,0.0,0.0,0.0,0.0,0.0,0.0,0.0,0.0,0.0,0.0,0.0,0.0,0.0,0.0,0.0,0.0,0.0,0.0,0.0,-8.0615,-8.0615,-8.0479,-8.0209,-8.0309,-8.041,-8.041,-8.0675,-8.1131,-8.1578,-8.2836,-8.3662,-8.3968,-8.4828,-8.5129,-8.5115,-8.5555,-8.5584,-8.5317,-8.5092,-8.4572,-8.3765,-8.2957,-8.248,-8.237,-8.4022,-8.4609,-8.4829,-8.6444,-8.6995,-8.6995,-8.6995,-8.6995,-8.6995,-8.6995,-8.6995,-8.6995,-8.6995,-8.6995,-8.6885,-8.6261,-8.6114,-8.6114,-8.6114,-8.6114,-8.6114,-8.6114,-8.6334,-8.6554,-8.6554,-8.6811,-8.6995,-8.6995,-8.6995,-8.6995,-8.6995,-8.7064,-8.7064,-8.7064,-8.72,-8.6936,-8.6193,-8.5032,-8.3966,-8.3158,-8.3186,-8.3358,-8.3527,-8.4571,-8.519,-8.5352,-8.5666,-8.5887,-8.5996,-8.6099,-8.6094,-8.6094,-8.6094,-8.6094,-8.6094,-8.6094,-8.6094,-6.7489,-6.8215,-6.9127,0.0,0.0,0.0,0.0,0.0,0.0,0.0,0.0,0.0,0.0,0.0,0.0,0.0,0.0,0.0,0.0,0.0,0.0,0.0,0.0,0.0,0.0,0.0,0.0,0.0,0.0,0.0,0.0,-8.0209,-8.0209,-8.0209,-8.0209,-8.0209,-8.0209,-8.0173,-8.017,-8.0137,-8.1026,-8.1965,-8.305,-8.3635,-8.3987,-8.4037,-8.439,-8.4354,-8.4162,-8.4113,-8.3698,-8.2994,-8.2406,-8.2186,-8.237,-8.4022,-8.4609,-8.4829,-8.6444,-8.6995,-8.6995,-8.6995,-8.6995,-8.6995,-8.6995,-8.6995,-8.6995,-8.6995,-8.6995,-8.6995,-8.6995,-8.6995,-8.6995,-8.6995,-8.6995,-8.6995,-8.6995,-8.6995,-8.6995,-8.6995,-8.6995,-8.6995,-8.6995,-8.6995,-8.6995,-8.6995,-8.6995,-8.6995,-8.6995,-8.6995,-8.6701,-8.5894,-8.4706,-8.3659,-8.3102,-8.2869,-8.2806,-8.301,-8.3885,-8.4571,-8.4886,-8.5314,-8.5666,-8.5926,-8.5992,-8.606,-8.6094,-8.6094,-8.6094,-8.6094,-8.6094,-8.6094,-6.7015,-6.7757,0.0,0.0,0.0,0.0,0.0,0.0,0.0,0.0,0.0,0.0,0.0,0.0,0.0,0.0,0.0,0.0,0.0,0.0,0.0,0.0,0.0,0.0,0.0,0.0,0.0,0.0,0.0,0.0,0.0,-8.0175,-8.0175,-8.0175,-8.0175,-8.0175,-8.0175,-7.9464,-7.9092,-7.9092,-7.8642,-7.9693,-8.2048,-8.1977,-8.2496,-8.3218,-8.3097,-8.3336,-8.3736,-8.3285,-8.2684,-8.2186,-8.2186,-8.2186,-8.237,-8.3985,-8.4609,-8.4829,-8.6444,-8.6995,-8.6995,-8.6995,-8.6995,-8.6995,-8.6995,-8.6995,-8.6995,-8.6995,-8.6995,-8.6995,-8.6995,-8.6995,-8.6995,-8.6995,-8.6995,-8.6995,-8.6995,-8.6995,-8.6995,-8.6995,-8.6995,-8.6995,-8.6995,-8.6995,-8.6995,-8.6995,-8.6995,-8.6995,-8.6995,-8.6995,-8.6701,-8.5894,-8.5086,-8.4278,-8.3471,-8.2757,-8.2407,-8.2407,-8.2987,-8.3638,-8.4356,-8.484,-8.5311,-8.5705,-8.589,-8.6031,-8.6094,-8.6094,-8.6094,-8.6094,-8.6094,-8.6094,-6.688,0.0,0.0,0.0,0.0,0.0,0.0,0.0,0.0,0.0,0.0,0.0,0.0,0.0,0.0,0.0,0.0,0.0,0.0,0.0,0.0,0.0,0.0,0.0,0.0,0.0,0.0,0.0,0.0,0.0,0.0,-7.8923,-7.8653,-7.8653,-7.8653,-7.8653,-7.8653,-7.8416,-7.8314,-7.8314,-7.8209,-7.8667,-7.9711,-8.0212,-8.0421,-8.0549,-8.1124,-8.1281,-8.1233,-8.1668,-8.1902,-8.1952,-8.1952,-8.2055,-8.2333,-8.3361,-8.4132,-8.4756,-8.5783,-8.6518,-8.6995,-8.6995,-8.6995,-8.6995,-8.6995,-8.6995,-8.6995,-8.6995,-8.6995,-8.6995,-8.6995,-8.6995,-8.6995,-8.6995,-8.6995,-8.6995,-8.6995,-8.6995,-8.6995,-8.6995,-8.6995,-8.6995,-8.6995,-8.6995,-8.6995,-8.6995,-8.6995,-8.6995,-8.6995,-8.6995,-8.6701,-8.5894,-8.56,-8.4903,-8.3544,-8.3243,-8.2839,-8.2288,-8.2534,-8.3069,-8.387,-8.4561,-8.5056,-8.5393,-8.5667,-8.589,-8.6031,-8.6031,-8.6026,-8.6094,-8.6094,-8.6094,-6.6812,0.0,0.0,0.0,0.0,0.0,0.0,0.0,0.0,0.0,0.0,0.0,0.0,0.0,0.0,0.0,0.0,0.0,0.0,0.0,0.0,0.0,0.0,0.0,0.0,0.0,0.0,0.0,0.0,0.0,0.0,-7.8247,-7.7976,-7.7976,-7.7976,-7.7976,-7.7976,-7.7705,-7.7536,-7.7536,-7.7232,-7.7256,-7.7509,-7.8475,-7.8888,-7.8937,-7.9528,-7.987,-8.0023,-8.0622,-8.1126,-8.1579,-8.1751,-8.1885,-8.2231,-8.3038,-8.3728,-8.4278,-8.5416,-8.6114,-8.6591,-8.6921,-8.6995,-8.6995,-8.6995,-8.6995,-8.6995,-8.6995,-8.6995,-8.6995,-8.6995,-8.6995,-8.6995,-8.6995,-8.6995,-8.6995,-8.6995,-8.6995,-8.6995,-8.6995,-8.6995,-8.6995,-8.6995,-8.6995,-8.6995,-8.6995,-8.6995,-8.6995,-8.6995,-8.6995,-8.6811,-8.6334,-8.5967,-8.5416,-8.4462,-8.3765,-8.3214,-8.27,-8.2463,-8.2684,-8.3301,-8.3922,-8.4514,-8.4975,-8.527,-8.5513,-8.5779,-8.5852,-8.5958,-8.6026,-8.606,-8.6094,0.0,0.0,0.0,0.0,0.0,0.0,0.0,0.0,0.0,0.0,0.0,0.0,0.0,0.0,0.0,0.0,0.0,0.0,0.0,0.0,0.0,0.0,0.0,0.0,0.0,0.0,0.0,0.0,0.0,0.0,0.0,-7.7807,-7.7773,-7.7773,-7.7773,-7.7773,-7.7773,-7.713,-7.6792,-7.6792,-7.6048,-7.5709,-7.5709,-7.6897,-7.7765,-7.8154,-7.831,-7.8835,-7.9715,-7.987,-8.04,-8.0984,-8.1372,-8.1647,-8.1995,-8.2964,-8.3361,-8.3618,-8.5086,-8.5673,-8.593,-8.6664,-8.6958,-8.6995,-8.6995,-8.6995,-8.6995,-8.6995,-8.6995,-8.6995,-8.6995,-8.6995,-8.6995,-8.6995,-8.6995,-8.6995,-8.6995,-8.6995,-8.6995,-8.6995,-8.6995,-8.6995,-8.6995,-8.6995,-8.6995,-8.6995,-8.6995,-8.6995,-8.6995,-8.6995,-8.6995,-8.6995,-8.6334,-8.5857,-8.5783,-8.4389,-8.3508,-8.3398,-8.2757,-8.2471,-8.2633,-8.3186,-8.3763,-8.4503,-8.4749,-8.5062,-8.5471,-8.5628,-8.5815,-8.5996,-8.6065,-8.606,0.0,0.0,0.0,0.0,0.0,0.0,0.0,0.0,0.0,0.0,0.0,0.0,0.0,0.0,0.0,0.0,0.0,0.0,0.0,0.0,0.0,0.0,0.0,0.0,0.0,0.0,0.0,0.0,0.0,0.0,-7.713,-7.6521,-7.6183,-7.6183,-7.6183,-7.6183,-7.6183,-7.6048,-7.5946,0.0,-7.5777,-7.5709,-7.5709,-7.6164,-7.67,-7.7125,-7.7278,-7.7824,-7.8587,-7.8882,-7.9522,-8.0326,-8.0768,-8.1232,-8.1683,-8.2068,-8.2715,-8.3471,-8.3801,-8.4756,-8.582,-8.6004,-8.6481,-8.6995,-8.6995,-8.6995,-8.6995,-8.6995,-8.6995,-8.6995,-8.6995,-8.6995,-8.6995,-8.6995,-8.6995,-8.6995,-8.6995,-8.6995,-8.6995,-8.6995,-8.6995,-8.6995,-8.6995,-8.6995,-8.6995,-8.6995,-8.6995,-8.6995,-8.6995,-8.6995,-8.6995,-8.6995,-8.6848,-8.6481,-8.5857,-8.4903,-8.4058,-8.3471,-8.2627,-8.2316,-8.2471,-8.2927,-8.3415,-8.387,-8.4218,-8.4609,-8.5018,-8.519,-8.5433,-8.578,-8.578,-8.5852,0.0,0.0,0.0,0.0,0.0,0.0,0.0,0.0,0.0,0.0,0.0,0.0,0.0,0.0,0.0,0.0,0.0,0.0,0.0,0.0,0.0,0.0,0.0,0.0,0.0,0.0,0.0,0.0,0.0,-7.5897,-7.6318,-7.5912,-7.5709,-7.5709,-7.5709,-7.5709,-7.5709,-7.5709,-7.5709,-7.5709,-7.5709,-7.5709,-7.5709,-7.5805,-7.6088,-7.6461,-7.6611,-7.6975,-7.7597,-7.7996,-7.8635,-7.9365,-8.0139,-8.0768,-8.1372,-8.1751,-8.2311,-8.2884,-8.3287,-8.4205,-8.527,-8.5673,-8.6334,-8.6995,-8.6995,-8.6995,-8.6995,-8.6995,-8.6995,-8.6995,-8.6995,-8.6995,-8.6995,-8.6995,-8.6995,-8.6995,-8.6995,-8.6995,-8.6995,-8.6995,-8.6995,-8.6995,-8.6995,-8.6995,-8.6995,-8.6995,-8.6995,-8.6995,-8.6995,-8.6995,-8.6995,-8.6995,-8.6995,-8.6848,-8.6407,-8.5637,-8.4829,-8.4022,-8.3214,-8.2655,-8.2316,-8.2534,-8.2867,-8.3301,-8.3638,-8.3922,-8.4292,-8.4703,-8.4975,-8.5232,-8.5393,-8.5552,0.0,0.0,0.0,0.0,0.0,0.0,0.0,0.0,0.0,0.0,0.0,0.0,0.0,0.0,0.0,0.0,0.0,0.0,0.0,0.0,0.0,0.0,0.0,0.0,0.0,0.0,0.0,0.0,0.0,-7.5422,-7.5709,-7.5709,-7.5709,-7.5709,-7.5709,-7.5709,-7.5709,-7.5709,-7.5709,-7.5709,-7.5709,-7.5709,-7.5709,-7.5709,-7.5805,-7.6028,-7.6028,-7.6275,-7.6702,-7.7189,-7.7772,-7.842,-7.9444,-8.0215,-8.0912,-8.151,-8.1885,-8.2231,-8.2891,-8.3801,-8.4719,-8.538,-8.6224,-8.6995,-8.6995,-8.6995,-8.6995,-8.6995,-8.6995,-8.6995,-8.6995,-8.6995,-8.6995,-8.6995,-8.6995,-8.6995,-8.6995,-8.6995,-8.6995,-8.6995,-8.6995,-8.6995,-8.6995,-8.6995,-8.6995,-8.6995,-8.6995,-8.6995,-8.6995,-8.6995,-8.6995,-8.6995,-8.6995,-8.6995,-8.6995,-8.6261,-8.5527,-8.4866,-8.4058,-8.3251,-8.2443,-8.2406,-8.2491,-8.2782,-8.3047,-8.3301,-8.36,-8.4116,-8.4465,-8.4533,-8.4892,-8.5105,0.0,0.0,0.0,0.0,0.0,0.0,0.0,0.0,0.0,0.0,0.0,0.0,0.0,0.0,0.0,0.0,0.0,0.0,0.0,0.0,0.0,0.0,0.0,0.0,0.0,0.0,0.0,0.0,-7.5325,-7.5422,-7.5709,-7.5709,-7.5709,-7.5709,-7.5709,-7.5709,-7.5709,-7.5709,-7.5709,-7.5709,-7.5709,-7.5709,-7.5709,-7.5709,-7.5709,-7.5805,-7.5805,-7.5899,-7.6216,-7.6495,-7.7009,-7.7685,-7.842,-7.9285,-8.025,-8.0695,-8.1302,-8.1989,-8.2099,-8.3191,-8.4609,-8.4719,-8.5783,-8.6995,-8.6995,-8.6995,-8.6995,-8.6995,-8.6995,-8.6995,-8.6995,-8.6995,-8.6995,-8.6995,-8.6995,-8.6995,-8.6995,-8.6995,-8.6995,-8.6995,-8.6995,-8.6995,-8.6995,-8.6995,-8.6995,-8.6995,-8.6995,-8.6995,-8.6995,-8.6995,-8.6995,-8.6995,-8.6995,-8.6995,-8.6995,-8.6261,-8.5747,-8.5637,-8.4866,-8.4095,-8.3287,-8.3251,-8.292,-8.2316,-8.2633,-8.2904,-8.3186,-8.3358,-8.3655,-8.4027,-8.4041,-8.4341,0.0,0.0,0.0,0.0,0.0,0.0,0.0,0.0,0.0,0.0,0.0,0.0,0.0,0.0,0.0,0.0,0.0,0.0,0.0,0.0,0.0,0.0,0.0,0.0,0.0,0.0,0.0,0.0,-7.5518,-7.5614,-7.5709,-7.5709,-7.5709,-7.5709,-7.5709,-7.5709,-7.5709,-7.5709,-7.5709,-7.5709,-7.5709,-7.5709,-7.5709,-7.5709,-7.5709,-7.5709,-7.5709,-7.5805,-7.5899,-7.6216,-7.6645,-7.7154,-7.7824,-7.8753,-7.9637,-8.0175,-8.0768,-8.1514,-8.2194,-8.3312,-8.451,-8.5123,-8.6077,-8.6995,-8.6995,-8.6995,-8.6995,-8.6995,-8.6995,-8.6995,-8.6995,-8.6995,-8.6995,-8.6995,-8.6995,-8.6995,-8.6995,-8.6995,-8.6995,-8.6995,-8.6995,-8.6995,-8.6995,-8.6995,-8.6995,-8.6995,-8.6995,-8.6995,-8.6995,-8.6995,-8.6995,-8.6995,-8.6995,-8.6995,-8.6995,-8.6701,-8.6261,-8.582,-8.5453,-8.4903,-8.4132,-8.4058,-8.3911,-8.3544,-8.2886,-8.2597,-8.2684,-8.2927,-8.3165,-8.3358,-8.349,-8.3709,0.0,0.0,0.0,0.0,0.0,0.0,0.0,0.0,0.0,0.0,0.0,0.0,0.0,0.0,0.0,0.0,0.0,0.0,0.0,0.0,0.0,0.0,0.0,0.0,0.0,0.0,0.0,0.0,-7.5709,-7.5709,-7.5709,-7.5709,-7.5709,-7.5709,-7.5709,-7.5709,-7.5709,-7.5709,-7.5709,-7.5709,-7.5709,-7.5709,-7.5709,-7.5709,-7.5709,-7.5709,-7.5709,-7.5709,-7.5709,-7.5899,-7.6275,-7.6702,-7.7244,-7.7996,-7.8917,-7.9444,-8.0139,-8.0948,-8.2069,-8.3259,-8.4272,-8.5252,-8.6196,-8.6925,-8.6925,-8.6925,-8.6995,-8.6995,-8.6995,-8.6995,-8.6995,-8.6995,-8.6995,-8.6995,-8.6995,-8.6995,-8.6995,-8.6995,-8.6995,-8.6995,-8.6995,-8.6995,-8.6995,-8.6995,-8.6995,-8.6995,-8.6995,-8.6995,-8.6995,-8.6995,-8.6995,-8.6995,-8.6995,-8.6995,-8.6995,-8.6995,-8.6738,-8.6151,-8.6114,-8.5747,-8.4939,-8.4903,-8.4792,-8.4609,-8.3529,-8.2969,-8.2969,-8.3224,-8.3201,-8.3078,-8.3284,-8.3292,0.0,0.0,0.0,0.0,0.0,0.0,0.0,0.0,0.0,0.0,0.0,0.0,0.0,0.0,0.0,0.0,0.0,0.0,0.0,0.0,0.0,0.0,0.0,0.0,0.0,0.0,-7.5422,-7.5709,-7.5709,-7.5709,-7.5709,-7.5709,-7.5709,-7.5709,-7.5709,-7.5709,-7.5709,-7.5709,-7.5709,-7.5709,-7.5709,-7.5709,-7.5709,-7.5709,-7.5709,-7.5709,-7.5709,-7.5709,-7.5709,-7.5709,-7.5899,-7.6216,-7.6495,-7.7065,-7.791,-7.842,-7.9205,-8.0283,-8.1335,-8.2575,-8.3846,-8.4646,-8.5736,-8.6715,-8.6715,-8.6856,-8.6995,-8.6995,-8.6995,-8.6995,-8.6995,-8.6995,-8.6995,-8.6995,-8.6995,-8.6995,-8.6995,-8.6995,-8.6995,-8.6995,-8.6995,-8.6995,-8.6995,-8.6995,-8.6995,-8.6995,-8.6995,-8.6995,-8.6995,-8.6995,-8.6995,-8.6995,-8.6995,-8.6995,-8.6995,-8.6995,-8.6995,-8.6958,-8.6958,-8.6591,-8.5747,-8.5747,-8.538,-8.4609,-8.4499,-8.4462,-8.4462,-8.4462,-8.4191,-8.3549,-8.3613,-8.3361,-6.2313,0.0,0.0,0.0,0.0,0.0,0.0,0.0,0.0,0.0,0.0,0.0,0.0,0.0,0.0,0.0,0.0,0.0,0.0,0.0,0.0,0.0,0.0,0.0,-7.4003,-7.4506,-7.5033,-7.5422,-7.5422,-7.5518,-7.5709,-7.5709,-7.5709,-7.5709,-7.5709,-7.5709,-7.5709,-7.5709,-7.5709,-7.5709,-7.5709,-7.5709,-7.5709,-7.5709,-7.5709,-7.5709,-7.5709,-7.5709,-7.5709,-7.5709,-7.5899,-7.6122,-7.6216,-7.6645,-7.7244,-7.7685,-7.8252,-7.9104,-8.0563,-8.1705,-8.2881,-8.4091,-8.5223,-8.6174,-8.6247,-8.6536,-8.6786,-8.6786,-8.6925,-8.6995,-8.6995,-8.6995,-8.6995,-8.6995,-8.6995,-8.6995,-8.6995,-8.6995,-8.6995,-8.6995,-8.6995,-8.6995,-8.6995,-8.6995,-8.6995,-8.6995,-8.6995,-8.6995,-8.6995,-8.6995,-8.6995,-8.6995,-8.6995,-8.6995,-8.6995,-8.6995,-8.6995,-8.6995,-8.6995,-8.6885,-8.6591,-8.6591,-8.6444,-8.6151,-8.6151,-8.5637,-8.4609,-8.4609,-8.4462,-8.4198,-8.3684,-8.3345,-6.0858,-6.2178,0.0,0.0,0.0,0.0,0.0,0.0,0.0,0.0,0.0,0.0,0.0,0.0,0.0,0.0,0.0,0.0,0.0,0.0,0.0,0.0,-7.1076,-7.209,-7.3077,-7.3562,-7.4206,-7.4803,-7.5,0.0,-7.5518,-7.5614,-7.5614,-7.5709,-7.5709,-7.5709,-7.5709,-7.5709,-7.5709,-7.5709,-7.5709,-7.5709,-7.5709,-7.5709,-7.5709,-7.5709,-7.5709,-7.5709,-7.5709,-7.5709,-7.5805,-7.6028,-7.6028,-7.6182,-7.6645,-7.7009,-7.7421,-7.8015,-7.9466,-8.0742,-8.1896,-8.3084,-8.4421,-8.5459,-8.5689,-8.6174,-8.6608,-8.6679,-8.6856,-8.6995,-8.6995,-8.6995,-8.6995,-8.6995,-8.6995,-8.6995,-8.6995,-8.6995,-8.6995,-8.6995,-8.6995,-8.6995,-8.6995,-8.6995,-8.6995,-8.6995,-8.6995,-8.6995,-8.6995,-8.6995,-8.6995,-8.6995,-8.6995,-8.6995,-8.6995,-8.6995,-8.6995,-8.6995,-8.6995,-8.6995,-8.6995,-8.6995,-8.6995,-8.6995,-8.6995,-8.6481,-8.5416,-8.5416,-8.527,-8.4976,-8.4168,-8.3508,0.0,0.0,0.0,0.0,0.0,0.0,0.0,0.0,0.0,0.0,0.0,0.0,0.0,0.0,0.0,0.0,0.0,0.0,0.0,0.0,0.0,-6.9209,-6.9787,-7.0662,-7.1798,-7.2411,-7.3116,-7.4003,-7.4306,-7.4704,-7.5228,-7.5325,-7.5422,-7.5709,-7.5709,-7.5709,-7.5709,-7.5709,-7.5709,-7.5709,-7.5709,-7.5709,-7.5709,-7.5709,-7.5709,-7.5709,-7.5709,-7.5709,-7.5709,-7.5709,-7.5709,-7.5709,-7.5709,-7.5899,-7.6122,-7.6402,-7.6736,-7.7223,-7.8286,-7.9548,-8.0926,-8.1699,-8.321,-8.4792,-8.5032,-8.5689,-8.6429,-8.6608,-8.6856,-8.6995,-8.6995,-8.6995,-8.6995,-8.6995,-8.6995,-8.6995,-8.6995,-8.6995,-8.6995,-8.6995,-8.6995,-8.6995,-8.6995,-8.6995,-8.6995,-8.6995,-8.6995,-8.6995,-8.6995,-8.6995,-8.6995,-8.6995,-8.6995,-8.6995,-8.6995,-8.6995,-8.6995,-8.6995,-8.6995,-8.6995,-8.6995,-8.6995,-8.6995,-8.6995,-8.6995,-8.6995,-8.6995,-8.6995,-8.6591,-8.582,-8.5013,-8.3765,-5.8863,0.0,0.0,0.0,0.0,0.0,0.0,0.0,0.0,0.0,0.0,0.0,0.0,0.0,0.0,0.0,0.0,0.0,0.0,-6.8772,-6.8741,-6.8623,-6.9209,-6.987,-7.0662,-7.0965,-7.1701,0.0,-7.3149,-7.3665,-7.4406,-7.5,-7.5422,-7.5709,-7.5709,-7.5709,-7.5709,-7.5709,-7.5709,-7.5709,-7.5709,-7.5709,-7.5709,-7.5709,-7.5709,-7.5709,-7.5709,-7.5709,-7.5709,-7.5709,-7.5709,-7.5709,-7.5709,-7.5709,-7.5805,-7.6122,-7.6275,-7.6495,-7.7125,-7.8327,-7.9705,-8.0488,-8.205,-8.3677,-8.4467,-8.5303,-8.6026,-8.6429,-8.6715,-8.6995,-8.6995,-8.6995,-8.6995,-8.6995,-8.6995,-8.6995,-8.6995,-8.6995,-8.6995,-8.6995,-8.6995,-8.6995,-8.6995,-8.6995,-8.6995,-8.6995,-8.6995,-8.6995,-8.6995,-8.6995,-8.6995,-8.6995,-8.6995,-8.6995,-8.6995,-8.6995,-8.6995,-8.6995,-8.6995,-8.6995,-8.6995,-8.6995,-8.6995,-8.6995,-8.6995,-8.6995,-8.6995,-8.6995,-8.6885,-8.6664,-8.5857,-8.4609,-5.9119,-5.9396,-5.9674,-6.0588,0.0,0.0,-6.4038,-6.6373,0.0,0.0,0.0,0.0,0.0,0.0,0.0,0.0,0.0,0.0,-6.9839,-6.9557,-6.9325,-6.8858,-6.8976,-6.9325,-6.9672,-6.987,-7.0406,-7.1406,-7.1842,-7.2697,-7.4003,-7.4902,-7.5422,-7.5709,-7.5709,-7.5709,-7.5709,-7.5709,-7.5709,-7.5709,-7.5709,-7.5709,-7.5709,-7.5709,-7.5709,-7.5709,-7.5709,-7.5709,-7.5709,-7.5709,-7.5709,-7.5709,-7.5709,-7.5709,-7.5709,-7.5899,-7.5899,-7.6062,-7.665,-7.7725,-7.8974,-7.981,-8.1353,-8.3103,-8.3968,-8.4988,-8.5876,-8.6247,-8.6715,-8.6995,-8.6995,-8.6995,-8.6995,-8.6995,-8.6995,-8.6995,-8.6995,-8.6995,-8.6995,-8.6995,-8.6995,-8.6995,-8.6995,-8.7288,-8.7509,-8.7509,-8.7802,-8.7876,-8.7545,-8.7509,-8.7362,-8.7031,-8.6995,-8.6995,-8.6995,-8.6995,-8.6995,-8.6995,-8.6995,-8.6995,-8.6995,-8.6995,-8.6995,-8.6995,-8.6995,-8.6995,-8.6995,-8.6995,-8.6848,-8.6481,-8.6004,-8.4939,-5.9641,-5.9962,-6.0114,-6.0114,-6.0689,0.0,-6.211,-6.3971,-6.5933,0.0,0.0,0.0,0.0,0.0,0.0,0.0,-7.2512,-7.2408,-7.0932,-7.0599,-7.0212,-6.9526,-6.9209,-6.9006,-6.9006,-6.9209,-6.9557,-7.013,-7.0774,-7.195,-7.3902,-7.4803,-7.5325,-7.5614,-7.5709,-7.5709,-7.5709,-7.5709,-7.5709,-7.5709,-7.5709,-7.5709,-7.5709,-7.5709,-7.5709,-7.5709,-7.5709,-7.5709,-7.5709,-7.5709,-7.5709,-7.5709,-7.5709,-7.5709,-7.5709,-7.5709,-7.5709,-7.5811,-7.6623,-7.7561,-7.8502,-7.9507,-8.118,-8.2781,-8.354,-8.463,-8.5801,-8.6247,-8.6715,-8.6995,-8.6995,-8.6995,-8.6995,-8.6995,-8.6995,-8.6995,-8.6995,-8.6995,-8.7031,-8.7142,-8.7068,-8.7031,-8.7142,-8.7729,-8.8243,-8.8316,-8.894,-8.9124,-8.8316,-8.8206,-8.7876,-8.7105,-8.6995,-8.6995,-8.6995,-8.6995,-8.6995,-8.6995,-8.6995,-8.6995,-8.6995,-8.6995,-8.6995,-8.6995,-8.6995,-8.6995,-8.6995,-8.6995,-8.6628,-8.593,-8.593,-8.5123,-5.9732,-5.9962,-6.0114,-6.0114,-6.0689,0.0,-6.1467,-6.3226,-6.4884,0.0,0.0,0.0,0.0,0.0,0.0,-7.1161,-7.1774,-7.2011,-7.1552,-7.181,-7.1625,-7.0487,-7.0098,-6.9901,-6.9672,-6.9209,-6.9209,-6.9787,-7.0917,-7.2122,-7.3389,-7.4206,-7.4935,-7.5325,-7.5614,-7.5709,-7.5709,-7.5709,-7.5709,-7.5709,-7.5709,-7.5709,-7.5709,-7.5709,-7.5709,-7.5709,-7.5709,-7.5709,-7.5709,-7.5709,-7.5709,-7.5709,-7.5709,-7.5709,-7.5709,-7.5709,-7.5709,-7.5811,-7.6623,-7.7367,-7.8307,-7.9507,-8.0802,-8.2141,-8.3454,-8.4385,-8.5225,-8.632,-8.6786,-8.6995,-8.6995,-8.6995,-8.6995,-8.6995,-8.6995,-8.6995,-8.6995,-8.6995,-8.7215,-8.7839,-8.7435,-8.7215,-8.7839,-8.8096,-8.8426,-8.9087,-8.9307,-8.9124,-8.8316,-8.8206,-8.7876,-8.7105,-8.6995,-8.6995,-8.6995,-8.6995,-8.6995,-8.6995,-8.6995,-8.6995,-8.6995,-8.6995,-8.6995,-8.6995,-8.6995,-8.6995,-8.6995,-8.6995,-8.6921,-8.6775,-8.6775,-8.6261,-6.0684,-6.0728,-6.0689,-6.0689,0.0,0.0,0.0,-6.1569,-6.2482,-6.2854,-6.441,-6.573,-6.573,0.0,-6.8166,-6.8769,-6.9849,-7.0699,-7.1253,-7.1786,-7.202,-7.1745,-7.1087,-7.0584,-7.0262,-6.9756,-6.9672,-6.9818,-7.1029,-7.223,-7.3077,-7.4138,-7.4935,-7.5325,-7.5614,-7.5709,-7.5709,-7.5709,-7.5709,-7.5709,-7.5709,-7.5709,-7.5709,-7.5709,-7.5709,-7.5709,-7.5709,-7.5709,-7.5709,-7.5709,-7.5709,-7.5709,-7.5709,-7.5709,-7.5709,-7.5709,-7.5709,-7.5879,-7.7029,-7.7671,-7.8277,-7.9854,-8.105,-8.1955,-8.3138,-8.4171,-8.5182,-8.6174,-8.6465,-8.6644,-8.6786,-8.6856,-8.6856,-8.6995,-8.6995,-8.6995,-8.6995,-8.7325,-8.7729,-8.8133,-8.7876,-8.7876,-8.8683,-8.9124,-8.9528,-8.9968,-9.0005,-8.9711,-8.8904,-8.8463,-8.7876,-8.7105,-8.6995,-8.6995,-8.6995,-8.6995,-8.6995,-8.6995,-8.6995,-8.6995,-8.6995,-8.6995,-8.6995,-8.6995,-8.6995,-8.6995,-8.6995,-8.6995,-8.6995,-8.6995,-8.6995,-8.6591,-6.1899,-6.187,-6.1717,0.0,0.0,-5.97,0.0,0.0,0.0,-6.0926,-6.2009,0.0,0.0,0.0,0.0,0.0,0.0,0.0,0.0,-7.069,0.0,-7.2597,-7.1792,-7.1108,-7.0786,-7.0474,-7.006,-6.9722,-7.1073,-7.211,-7.2672,-7.4038,-7.5067,-7.5228,-7.5518,-7.5709,-7.5709,-7.5709,-7.5709,-7.5709,-7.5709,-7.5709,-7.5709,-7.5709,-7.5709,-7.5709,-7.5709,-7.5709,-7.5709,-7.5709,-7.5709,-7.5709,-7.5709,-7.5709,-7.5709,-7.5709,-7.5709,-7.5912,-7.7468,-7.7976,-7.8311,-8.0331,-8.1359,-8.1955,-8.2816,-8.4039,-8.5182,-8.5612,-8.584,-8.61,-8.6392,-8.6536,-8.6679,-8.6856,-8.6925,-8.6995,-8.6995,-8.7509,-8.8023,-8.8169,-8.8206,-8.85,-8.9491,-8.9931,-9.0262,-9.0555,-9.0482,-9.0078,-8.9271,-8.861,-8.7876,-8.7105,-8.6995,-8.6995,-8.6995,-8.6995,-8.6995,-8.6995,-8.6995,-8.6995,-8.6995,-8.6995,-8.6995,-8.6995,-8.6995,-8.6995,-8.6995,-8.6995,-8.6995,-8.6995,-8.6995,-8.6664,0.0,0.0,0.0,0.0,-6.2266,0.0,0.0,0.0,-6.0148,-6.0216,0.0,0.0,0.0,0.0,0.0,0.0,0.0,0.0,-6.7996,-6.7775,-6.864,-7.1978,-7.1456,-7.0996,-7.132,-7.0636,-6.9978,-6.9478,-7.0694,-7.1577,-7.1922,-7.3539,-7.4738,-7.5067,-7.5422,-7.5709,-7.5709,-7.5709,-7.5709,-7.5709,-7.5709,-7.5709,-7.5709,-7.5709,-7.5709,-7.5709,-7.5709,-7.5709,-7.5709,-7.5709,-7.5709,-7.5709,-7.5709,-7.5709,-7.5709,-7.5709,-7.5709,-7.5912,-7.7468,-7.7976,-7.8311,-8.01,-8.1421,-8.2418,-8.2726,-8.3662,-8.4585,-8.4666,-8.5067,-8.5648,-8.5801,-8.6174,-8.6465,-8.6715,-8.6856,-8.6995,-8.6995,-8.7068,-8.7362,-8.8059,-8.8206,-8.8683,-9.0225,-8.9381,-8.8977,-9.0408,-9.0005,-8.9271,-8.8426,-8.8243,-8.7876,-8.7105,-8.6995,-8.6995,-8.6995,-8.6995,-8.6995,-8.6995,-8.6995,-8.6995,-8.6995,-8.6995,-8.6995,-8.6995,-8.6995,-8.6995,-8.6995,-8.6995,-8.6995,-8.6995,-8.6995,-8.6958,-6.2727,0.0,0.0,0.0,0.0,0.0,-6.0579,0.0,-5.9471,0.0,0.0,0.0,0.0,0.0,0.0,0.0,-6.3497,0.0,0.0,0.0,-6.6675,-7.0222,0.0,0.0,-6.978,-6.9566,-6.9149,-6.8316,-6.9446,-7.0247,-7.0554,-7.2579,-7.3906,-7.4332,-7.5123,-7.5518,-7.5709,-7.5709,-7.5709,-7.5709,-7.5709,-7.5709,-7.5709,-7.5709,-7.5709,-7.5709,-7.5709,-7.5709,-7.5709,-7.5709,-7.5709,-7.5709,-7.5709,-7.5709,-7.5709,-7.5709,-7.5709,-7.5845,-7.6961,-7.7638,-7.8345,-8.0001,-8.1131,-8.1767,-8.2048,-8.26,-8.3191,-8.3627,-8.3968,-8.4503,-8.5067,-8.5572,-8.5951,-8.6392,-8.6715,-8.6856,-8.6995,-8.7362,-8.7802,-8.8133,-8.8206,-8.8573,-8.9711,-8.9344,-8.916,-8.9821,-8.9234,-8.8573,-8.8243,-8.7802,-8.7362,-8.7031,-8.6995,-8.6995,-8.6995,-8.6995,-8.6995,-8.6995,-8.6995,-8.6995,-8.6995,-8.6995,-8.6995,-8.6995,-8.6995,-8.6995,-8.6995,-8.6995,-8.6995,-8.6995,-8.6995,-8.6995,-6.2761,0.0,0.0,0.0,0.0,0.0,0.0,0.0,0.0,0.0,0.0,0.0,0.0,0.0,-6.1231,-6.1975,0.0,-6.3294,0.0,-6.3876,0.0,0.0,0.0,0.0,0.0,-6.8074,-6.7931,-6.6978,-6.8097,-6.8885,-6.9181,-7.116,-7.2548,-7.3271,-7.4161,-7.4719,-7.5006,-7.5303,-7.5405,-7.5405,-7.5608,-7.5709,-7.5709,-7.5709,-7.5709,-7.5709,-7.5709,-7.5709,-7.5709,-7.5709,-7.5709,-7.5709,-7.5709,-7.5709,-7.5709,-7.5709,-7.5709,-7.5811,-7.6623,-7.7502,-7.8517,-7.9969,-8.0774,-8.1131,-8.1325,-8.1612,-8.199,-8.2474,-8.2926,-8.3367,-8.4136,-8.4828,-8.5381,-8.6026,-8.632,-8.6608,-8.6856,-8.7402,-8.7806,-8.7876,-8.7876,-8.8059,-8.8647,-8.8757,-8.883,-8.905,-8.839,-8.7876,-8.7876,-8.7362,-8.6995,-8.6995,-8.6995,-8.6995,-8.6995,-8.6995,-8.6995,-8.6995,-8.6995,-8.6995,-8.6995,-8.6995,-8.6995,-8.6995,-8.6995,-8.6995,-8.6995,-8.6995,-8.6995,-8.6995,-8.6995,-8.6995,0.0,0.0,0.0,-6.3923,0.0,0.0,0.0,0.0,-5.9438,0.0,-6.0622,-6.0351,-6.1129,-6.0655,-6.0419,-6.1197,-6.1366,0.0,0.0,-6.1278,0.0,0.0,0.0,0.0,0.0,-6.6187,-6.6355,0.0,-6.671,-6.7521,-6.7931,-6.9417,-7.0634,-7.1656,-7.2374,-7.2887,-7.3171,-7.4195,-7.4661,-7.4661,-7.5371,-7.5709,-7.5709,-7.5709,-7.5709,-7.5709,-7.5709,-7.5709,-7.5709,-7.5709,-7.5709,-7.5709,-7.5709,-7.5709,-7.5709,-7.5709,-7.5709,-7.5811,-7.6623,-7.7841,-7.9194,-7.9938,-8.041,-8.061,-8.0576,-8.097,-8.1325,-8.1325,-8.1861,-8.2565,-8.3015,-8.3883,-8.4666,-8.5417,-8.5801,-8.6247,-8.6608,-8.6715,-8.6822,-8.6962,-8.7031,-8.7068,-8.7068,-8.7105,-8.7362,-8.8133,-8.7545,-8.7031,-8.7031,-8.7031,-8.6995,-8.6995,-8.6995,-8.6995,-8.6995,-8.6995,-8.6995,-8.6995,-8.6995,-8.6995,-8.6995,-8.6995,-8.6995,-8.6995,-8.6995,-8.6995,-8.6995,-8.6995,-8.6995,-8.6995,-8.6995,-8.6995,0.0,0.0,-6.3741,-6.444,0.0,0.0,0.0,0.0,0.0,0.0,-6.326,-6.3294,-6.4072,-6.3599,-6.3024,-6.2787,-6.2787,-6.2415,0.0,-6.0202,0.0,0.0,0.0,0.0,0.0,0.0,-6.2326,-6.1719,-6.283,0.0,-6.4211,-6.6625,-6.859,-6.9846,-7.1388,-7.25,-7.3104,-7.4161,-7.4627,-7.4627,-7.5337,-7.5709,-7.5709,-7.5709,-7.5709,-7.5709,-7.5709,-7.5709,-7.5709,-7.5709,-7.5709,-7.5709,-7.5709,-7.5709,-7.5709,-7.5709,-7.5709,-7.5879,-7.7164,-7.7942,-7.8551,-7.9803,-8.0309,-8.0309,-8.0309,-8.0476,-8.0576,-8.0774,-8.1166,-8.1612,-8.2234,-8.2871,-8.3576,-8.4385,-8.4872,-8.5381,-8.5951,-8.632,-8.6573,-8.6786,-8.6925,-8.6995,-8.6995,-8.6995,-8.7105,-8.7362,-8.7178,-8.6995,-8.6995,-8.6995,-8.6995,-8.6995,-8.6995,-8.6995,-8.6995,-8.6995,-8.6995,-8.6995,-8.6995,-8.6995,-8.6995,-8.6995,-8.6995,-8.6995,-8.6995,-8.6995,-8.6995,-8.6995,-8.6995,-8.6995,-8.6995,-8.6995,-6.4073,-6.4413,0.0,-6.5348,-6.4704,0.0,-6.442,0.0,-6.3971,0.0,-6.5561,-6.5527,-6.6,-6.5256,-6.4377,-6.3632,-6.3294,-6.2505,0.0,-5.9172,-5.8084,0.0,0.0,0.0,-5.9663,-5.984,-5.9762,-5.9327,-6.0135,-6.092,0.0,-6.4177,-6.6224,-6.7715,-6.9583,-7.0929,-7.1637,-7.2882,-7.3575,-7.3844,-7.4776,-7.5377,-7.5614,-7.5709,-7.5709,-7.5709,-7.5709,-7.5709,-7.5709,-7.5709,-7.5709,-7.5709,-7.5709,-7.5709,-7.5709,-7.5709,-7.5709,-7.5912,-7.7468,-7.7976,-7.8213,-7.9701,-8.0209,-8.0209,-8.0209,-8.0209,-8.0209,-8.041,-8.0709,-8.1005,-8.1551,-8.2083,-8.26,-8.3454,-8.3968,-8.4549,-8.5303,-8.5801,-8.6174,-8.6536,-8.6786,-8.6925,-8.6995,-8.6995,-8.6995,-8.6995,-8.6995,-8.6995,-8.6995,-8.6995,-8.6995,-8.6995,-8.6995,-8.6995,-8.6995,-8.6995,-8.6995,-8.6995,-8.6995,-8.6995,-8.6995,-8.6995,-8.6995,-8.6995,-8.6995,-8.6995,-8.6995,-8.6995,-8.6995,-8.6995,-8.6995,-8.6995]}]]